     2              OBSERVATION DATA    GPS                 RINEX VERSION / TYPE
teqc 2000Jul20 Karen Wendt 20030304 00:25:49UTC             PGM / RUN BY / DATE
                                                            COMMENT
L2: 1 -> 1; 150 -> 5; 250 -> 9                              COMMENT
L2: 1 -> 1; 150 -> 5; 250 -> 9                              COMMENT
L2: 1 -> 1; 150 -> 5; 250 -> 9                              COMMENT
L2: 1 -> 1; 150 -> 5; 250 -> 9                              COMMENT
L2: 1 -> 1; 150 -> 5; 250 -> 9                              COMMENT
L2: 1 -> 1; 150 -> 5; 250 -> 9                              COMMENT
L2: 1 -> 1; 150 -> 5; 250 -> 9                              COMMENT
L2: 1 -> 1; 150 -> 5; 250 -> 9                              COMMENT
L2: 1 -> 1; 150 -> 5; 250 -> 9                              COMMENT
L2: 1 -> 1; 150 -> 5; 250 -> 9                              COMMENT
L2: 1 -> 1; 150 -> 5; 250 -> 9                              COMMENT
L2: 1 -> 1; 150 -> 5; 250 -> 9                              COMMENT
L2: 1 -> 1; 150 -> 5; 250 -> 9                              COMMENT
L2: 1 -> 1; 150 -> 5; 250 -> 9                              COMMENT
Original Marker Name: lae1 LAPE1__T6nR4e_S28S27_1919_GLO    COMMENT
Campaign Name: USGS 2003                                    COMMENT
4-Character Station Name: LAE1                              COMMENT
6-Character Antenna Code: DMRCHT                            COMMENT
Vertical Measurement Point: BCR                             COMMENT
Vertical Offset to Rinex Ref. Point: 0.0348                 COMMENT
Radial Measurement Point: ECF                               COMMENT
Radial Offset to Rinex Ref. Point: 0.1897                   COMMENT
Antenna Height from Field Measurement: 1.1890 m             COMMENT
Additional Antenna Identification Info.:                    COMMENT
Turborogue and Ashtech Choke Ring                           COMMENT
Original XYZ: -2350817.5100 -4703339.1255 3599604.3282      COMMENT
New XYZ position is based on association with SCEC monument COMMENT
E1F2J8I6+0011. Position of that monument is believed to be  COMMENT
valid to within 1 m horizontally; vertical accuracy         COMMENT
should be no worse than 3-times this value.                 COMMENT
                                                            COMMENT
Revised Rinex header created by UCSD GPS archive for        COMMENT
GSAC on 11-Jul-2003 (2003:192) 16:51:31 GMT                 COMMENT
For assistance contact dagnew@ucsd.edu                      COMMENT
or anderson@python.ucsd.edu                                 COMMENT
                                                            COMMENT
T6NR4E 1919                                                 MARKER NAME
CHS US GEOLOGICAL SURVEY                                    OBSERVER / AGENCY
LP03360 ASHTECH Z-XII3 CC00                                 REC # / TYPE / VERS
CR14244 DORNE-MARGOL. TYPE T                                ANT # / TYPE
 -2350839.6563 -4703318.5399  3599600.5209                  APPROX POSITION XYZ
        1.1390        0.0000        0.0000                  ANTENNA: DELTA H/E/N
     1     1     0                                          WAVELENGTH FACT L1/2
     5    C1    L1    L2    P1    P2                        # / TYPES OF OBSERV
    30                                                      INTERVAL
  2003     2    26     0     1    0.000000                  TIME OF FIRST OBS
  2003     2    26    23    59   30.000000                  TIME OF LAST OBS
                                                            END OF HEADER
 03  2 26  0  1  0.0000000  0 10G 6G10G23G17G29G26G15G18G30G16
  20378480.574   -29534710.50749 -22990120.93948  20378480.262    20378486.187
  24211906.275    -4568812.91249  -3252259.23045  24211905.386    24211914.068
  20712302.788   -25218015.39949 -19619276.52248  20712302.162    20712308.583
  21159084.136   -25757845.86949 -19765936.95847  21159083.411    21159090.100
  22688681.827   -17295685.77449 -13223394.05446  22688681.553    22688688.459
  21813254.471   -20680468.88949 -15805400.38246  21813254.438    21813261.461
  22607738.109   -16487300.40049 -12787111.07446  22607737.279    22607745.035
  22128112.740   -19050937.57549 -14816944.94147  22128112.167    22128118.373
  23799278.447    -8801921.45549  -6834780.96145  23799278.592    23799287.722
  23998582.003    -8271920.14649  -6127276.72145  23998581.547    23998588.687
 03  2 26  0  1 30.0000000  0 10G 6G10G23G17G29G26G15G18G30G16
  20383147.465   -29510185.83649 -22971010.80548  20383147.141    20383153.080
  24231918.074    -4463650.11049  -3170314.24445  24231917.222    24231925.926
  20707006.252   -25245848.58049 -19640964.67548  20707005.638    20707012.055
  21154019.713   -25784459.44249 -19786674.77447  21154019.007    21154025.705
  22688733.479   -17295413.35449 -13223181.72446  22688733.307    22688740.242
  21805955.170   -20718826.55749 -15835289.39746  21805955.131    21805962.166
  22595438.713   -16551933.83849 -12837474.69046  22595437.854    22595445.590
  22112601.953   -19132446.76449 -14880458.49447  22112601.385    22112607.596
  23818639.847    -8700176.73749  -6755499.49145  23818639.999    23818649.253
  23989477.208    -8319765.80349  -6164559.00345  23989476.771    23989483.905
 03  2 26  0  2  0.0000000  0 10G 6G10G23G17G29G26G15G18G30G16
  20387905.585   -29485181.76149 -22951527.10948  20387905.277    20387911.199
  24251939.968    -4358434.52749  -3088328.11245  24251939.082    24251947.743
  20701799.361   -25273210.97049 -19662285.97648  20701798.743    20701805.135
  21148983.908   -25810922.70249 -19807295.46447  21148983.194    21148989.881
  22688887.725   -17294602.85849 -13222550.11946  22688887.530    22688894.414
  21798764.377   -20756614.40449 -15864734.39846  21798764.310    21798771.293
  22583160.995   -16616452.79449 -12887749.11246  22583160.154    22583167.884
  22097153.910   -19213626.26549 -14943715.14147  22097153.369    22097159.562
  23838001.768    -8598429.81249  -6676216.29045  23838001.914    23838011.121
  23980466.239    -8367118.40149  -6201457.07445  23980465.769    23980472.949
 03  2 26  0  2 30.0000000  0 10G 6G10G23G17G29G26G15G18G30G16
  20392755.050   -29459697.68949 -22931669.38648  20392754.750    20392760.651
  24271971.613    -4253167.46649  -3006301.87645  24271970.664    24271979.593
  20696682.039   -25300102.44949 -19683240.33548  20696681.416    20696687.815
  21143976.827   -25837234.99049 -19827798.51547  21143976.110    21143982.765
  22689144.549   -17293253.23149 -13221498.40746  22689144.333    22689151.198
  21791682.466   -20793829.86349 -15893733.39046  21791682.382    21791689.318
  22570905.135   -16680856.93549 -12937934.06846  22570904.368    22570912.080
  22081768.977   -19294474.32849 -15006713.53547  22081768.430    22081774.569
  23857363.676    -8496683.15249  -6596933.28945  23857363.840    23857372.903
  23971549.279    -8413976.44949  -6237969.79445  23971548.892    23971556.135
 03  2 26  0  3  0.0000000  0 10G 6G10G23G17G29G26G15G18G30G16
  20397695.873   -29433733.37449 -22911437.45348  20397695.589    20397701.452
  24292012.627    -4147851.18949  -2924237.30345  24292011.691    24292020.538
  20691654.333   -25326523.16549 -19703827.86748  20691653.706    20691660.092
  21138998.599   -25863395.94949 -19848183.64847  21138997.876    21139004.492
  22689503.896   -17291364.33049 -13220026.48446  22689503.734    22689510.563
  21784709.827   -20830470.83849 -15922284.73547  21784709.779    21784716.697
  22558671.164   -16745146.40849 -12988029.66446  22558670.428    22558678.088
  22066447.362   -19374989.74849 -15069452.72647  22066446.817    22066452.897
  23876724.983    -8394939.48449  -6517652.62045  23876725.098    23876734.184
  23962726.654    -8460338.75449  -6274096.19645  23962726.250    23962733.633
 03  2 26  0  3 30.0000000  0 10G 6G10G23G17G29G26G15G18G30G16
  20402728.177   -29407288.62949 -22890831.15848  20402727.885    20402733.743
  24312062.655    -4042488.15649  -2842136.30145  24312061.570    24312070.454
  20686716.122   -25352473.42049 -19724048.80748  20686715.495    20686721.867
  21134049.049   -25889406.01549 -19868451.19847  21134048.303    21134054.893
  22689966.089   -17288935.51749 -13218133.85846  22689965.883    22689972.693
  21777846.994   -20866535.12249 -15950386.70247  21777846.960    21777853.819
  22546459.036   -16809321.18049 -13038035.88946  22546458.282    22546466.018
  22051189.308   -19455170.99649 -15131931.52447  22051188.760    22051194.821
  23896085.118    -8293201.70549  -6438376.55445  23896085.204    23896094.325
  23953998.751    -8506203.98349  -6309835.27345  23953998.412    23954005.694
 03  2 26  0  4  0.0000000  0 10G 6G10G23G17G29G26G15G18G30G16
  20407851.935   -29380362.98749 -22869850.14148  20407851.628    20407857.494
  24332121.243    -3937079.99349  -2760000.12145  24332120.273    24332129.111
  20681867.429   -25377953.27549 -19743903.20248  20681866.802    20681873.151
  21129128.251   -25915265.02449 -19888601.05047  21129127.490    21129134.063
  22690531.083   -17285966.29049 -13215820.13646  22690530.912    22690537.651
  21771094.338   -20902020.37049 -15978037.48147  21771094.285    21771101.123
  22534268.821   -16873380.84849 -13087952.43446  22534268.071    22534275.775
  22035995.060   -19535016.69649 -15194148.86447  22035994.559    22036000.599
  23915443.580    -8191472.40849  -6359107.08745  23915443.683    23915452.958
  23945365.704    -8551570.46649  -6345185.73445  23945365.378    23945372.566
 03  2 26  0  4 30.0000000  0 10G 6G10G23G17G29G26G15G18G30G16
  20413067.249   -29352956.53849 -22848494.46248  20413066.948    20413072.787
  24352187.904    -3831629.09149  -2677830.61745  24352186.922    24352195.828
  20677108.206   -25402963.15649 -19763391.37948  20677107.586    20677113.908
  21124236.089   -25940973.11849 -19908633.30747  21124235.356    21124241.939
  22691198.933   -17282456.40149 -13213085.11546  22691198.800    22691205.525
  21764452.215   -20936924.63649 -16005235.54147  21764452.163    21764458.974
  22522100.445   -16937325.60449 -13137779.43746  22522099.695    22522107.389
  22020864.914   -19614525.60149 -15256103.76647  22020864.403    22020870.452
  23934799.976    -8089754.43849  -6279846.46645  23934800.022    23934809.298
  23936827.882    -8596437.31649  -6380146.86745  23936827.569    23936834.766
 03  2 26  0  5  0.0000000  0 10G 6G10G23G17G29G26G15G18G30G16
  20418373.996   -29325069.30449 -22826764.15048  20418373.694    20418379.532
  24372262.170    -3726138.01649  -2595629.83645  24372261.164    24372270.140
  20672438.252   -25427503.67449 -19782513.82248  20672437.649    20672443.972
  21119372.648   -25966530.58949 -19928548.19247  21119371.923    21119378.485
  22691969.825   -17278405.67849 -13209928.67046  22691969.576    22691976.283
  21757920.980   -20971246.15549 -16031979.51147  21757920.925    21757927.773
  22509953.948   -17001155.60149 -13187517.01246  22509953.184    22509960.892
  22005799.117   -19693696.66449 -15317795.41447  22005798.593    22005804.629
  23954153.586    -7988050.86249  -6200597.06245  23954153.654    23954162.970
  23928385.296    -8640803.56949  -6414717.93145  23928384.873    23928391.999
 03  2 26  0  5 30.0000000  0 10G 6G10G23G17G29G26G15G18G30G16
  20423772.337   -29296700.98349 -22804658.96648  20423772.017    20423777.856
  24392343.751    -3620608.79549  -2513399.30845  24392342.782    24392351.656
  20667857.626   -25451574.79749 -19801270.50248  20667857.020    20667863.338
  21114537.889   -25991937.24449 -19948345.56347  21114537.170    21114543.748
  22692843.641   -17273813.68249 -13206350.45646  22692843.381    22692850.086
  21751501.070   -21004982.63749 -16058267.61847  21751501.039    21751507.901
  22497829.380   -17064870.38349 -13237164.82046  22497828.597    22497836.261
  21990797.920   -19772528.32749 -15379222.60347  21990797.368    21990803.378
  23973504.012    -7886364.24349  -6121360.87145  23973504.028    23973513.476
  23920038.193    -8684667.75249  -6448897.76145  23920037.733    23920044.817
 03  2 26  0  6  0.0000000  0 10G 6G10G23G17G29G26G15G18G30G16
  20429262.229   -29267851.38049 -22782178.75948  20429261.926    20429267.772
  24412432.075    -3515043.49849  -2431140.68445  24412431.246    24412440.120
  20663366.280   -25475176.88849 -19819661.70148  20663365.670    20663371.978
  21109731.821   -26017193.20349 -19968025.51147  21109731.097    21109737.672
  22693820.609   -17268679.86849 -13202350.04846  22693820.345    22693826.993
  21745192.916   -21038132.01749 -16084098.24047  21745192.856    21745199.685
  22485726.764   -17128470.02149 -13286722.90446  22485725.956    22485733.578
  21975861.494   -19851019.25249 -15440384.27747  21975860.958    21975866.958
  23992850.748    -7784697.34849  -6042140.05045  23992850.725    23992860.215
  23911786.829    -8728028.75249  -6482685.50245  23911786.305    23911793.423
 03  2 26  0  6 30.0000000  0 10G 6G10G23G17G29G26G15G18G30G16
  20434843.718   -29238520.33749 -22759323.40048  20434843.412    20434849.267
  24432526.989    -3409444.04649  -2348855.43445  24432526.344    24432535.098
  20658964.177   -25498309.92849 -19837687.40748  20658963.567    20658969.859
  21104954.611   -26042297.59849 -19987587.35347  21104953.904    21104960.446
  22694900.629   -17263003.88949 -13197927.17646  22694900.408    22694907.078
  21738996.844   -21070692.17849 -16109469.73147  21738996.786    21739003.612
  22473646.091   -17191954.38649 -13336191.17146  22473645.249    22473652.810
  21960990.209   -19929168.02749 -15501279.34747  21960989.663    21960995.667
  24012193.180    -7683052.56149  -5962936.46545  24012193.194    24012202.715
  23903631.552    -8770884.94549  -6516079.89345  23903631.050    23903638.016
 03  2 26  0  7  0.0000000  0 10G 6G10G23G17G29G26G15G18G30G16
  20440516.823   -29208707.96149 -22736092.98048  20440516.505    20440522.376
  24452628.049    -3303812.48049  -2266545.16545  24452627.318    24452636.168
  20654651.213   -25520974.60249 -19855348.15048  20654650.593    20654656.874
  21100206.107   -26067251.12349 -20007031.63547  21100205.392    21100211.931
  22696083.754   -17256785.70249 -13193081.79746  22696083.599    22696090.344
  21732913.310   -21102661.11949 -16134380.52747  21732913.267    21732920.077
  22461587.288   -17255323.43649 -13385569.57446  22461586.458    22461593.992
  21946184.278   -20006973.50249 -15561906.90847  21946183.693    21946189.676
  24031530.897    -7581433.00049  -5883752.53745  24031530.817    24031540.449
  23895572.449    -8813235.53049  -6549080.29745  23895571.950    23895578.945
 03  2 26  0  7 30.0000000  0 10G 6G10G23G17G29G26G15G18G30G16
  20446281.546   -29178414.02549 -22712487.32148  20446281.234    20446287.139
  24472734.760    -3198151.04249  -2184211.61645  24472734.029    24472742.993
  20650427.292   -25543171.21249 -19872644.17148  20650426.677    20650432.954
  21095486.423   -26092053.35249 -20026358.02748  21095485.699    21095492.196
  22697370.233   -17250024.73749 -13187813.49046  22697370.128    22697376.865
  21726942.633   -21134036.91649 -16158829.13547  21726942.591    21726949.393
  22449550.373   -17318576.94849 -13434857.95946  22449549.630    22449557.156
  21931443.946   -20084434.16749 -15622265.78747  21931443.378    21931449.339
  24050863.251    -7479841.27149  -5804590.30145  24050863.244    24050872.897
  23887609.817    -8855079.30349  -6581685.77545  23887609.283    23887616.236
 03  2 26  0  8  0.0000000  0 10G 6G10G23G17G29G26G15G18G30G16
  20452137.919   -29147638.39649 -22688506.31648  20452137.610    20452143.556
  24492846.843    -3092461.87349  -2101856.44245  24492845.936    24492854.875
  20646292.384   -25564900.09949 -19889575.73048  20646291.770    20646298.059
  21090795.462   -26116704.51549 -20045566.70848  21090794.727    21090801.197
  22698760.109   -17242721.00749 -13182122.23446  22698759.966    22698766.671
  21721085.222   -21164817.66149 -16182814.06247  21721085.166    21721091.967
  22437535.633   -17381714.80649 -13484056.22246  22437534.848    22437542.344
  21916769.413   -20161549.02249 -15682355.20947  21916768.837    21916774.787
  24070189.766    -7378279.98449  -5725451.79345  24070189.834    24070199.528
  23879743.751    -8896415.12949  -6613895.45745  23879743.218    23879750.251
 03  2 26  0  8 30.0000000  0 10G 6G10G23G17G29G26G15G18G30G16
  20458085.888   -29116381.63649 -22664150.40348  20458085.582    20458091.537
  24512963.698    -2986747.58449  -2019481.67545  24512962.838    24512971.597
  20642246.317   -25586162.20249 -19906143.56048  20642245.701    20642251.977
  21086133.104   -26141205.20049 -20064658.13148  21086132.374    21086138.844
  22700253.247   -17234874.74649 -13176008.23546  22700253.062    22700259.702
  21715341.314   -21195001.82949 -16206334.12147  21715341.222    21715348.040
  22425542.756   -17444737.51049 -13533164.75146  22425541.980    22425549.467
  21902160.793   -20238317.26449 -15742174.53647  21902160.250    21902166.186
  24089509.973    -7276752.56349  -5646339.65245  24089510.109    24089519.732
  23871974.561    -8937242.48449  -6645708.93645  23871974.116    23871980.984
 03  2 26  0  9  0.0000000  0 10G 6G10G23G17G29G26G15G18G30G16
  20464125.527   -29084643.05649 -22639419.04448  20464125.211    20464131.190
  24533085.019    -2881009.61749  -1937088.45245  24533084.209    24533092.871
  20638289.108   -25606957.33749 -19922347.52348  20638288.490    20638294.760
  21081499.483   -26165554.73549 -20083631.77448  21081498.762    21081505.251
  22701849.813   -17226485.20949 -13169470.90446  22701849.547    22701856.153
  21709711.381   -21224587.05949 -16229387.48047  21709711.310    21709718.115
  22413571.893   -17507644.46949 -13582183.10046  22413571.128    22413578.571
  21887618.491   -20314737.24049 -15801722.49247  21887617.938    21887623.860
  24108823.324    -7175261.00949  -5567255.48045  24108823.458    24108833.080
  23864302.436    -8977559.75949  -6677124.94345  23864301.968    23864308.879
 03  2 26  0  9 30.0000000  0 10G 6G10G23G17G29G26G15G18G30G16
  20470256.758   -29052423.26849 -22614312.71948  20470256.456    20470262.404
  24553210.360    -2775250.37549  -1854678.68645  24553209.557    24553218.157
  20634420.568   -25627286.34549 -19938188.26948  20634419.958    20634426.243
  21076894.683   -26189753.15449 -20102487.67148  21076893.970    21076900.438
  22703549.602   -17217552.62949 -13162510.43146  22703549.290    22703555.925
  21704195.704   -21253571.99249 -16251973.08047  21704195.628    21704202.373
  22401623.032   -17570436.07149 -13631111.56246  22401622.270    22401629.638
  21873142.674   -20390807.83349 -15860998.20647  21873142.129    21873148.048
  24128129.299    -7073808.45949  -5488201.69045  24128129.444    24128138.993
  23856727.579    -9017366.03049  -6708142.77545  23856727.022    23856733.971
 03  2 26  0 10  0.0000000  0 10G 6G10G23G17G29G26G15G18G30G16
  20476479.568   -29019721.94649 -22588831.17548  20476479.258    20476485.235
  24573339.356    -2669471.59649  -1772253.70445  24573338.592    24573347.239
  20630640.716   -25647149.44249 -19953665.96748  20630640.105    20630646.367
  21072318.609   -26213800.55149 -20121225.88548  21072317.878    21072324.342
  22705352.855   -17208076.62749 -13155126.51446  22705352.511    22705359.143
  21698794.658   -21281954.47949 -16274089.24047  21698794.577    21698801.316
  22389696.270   -17633111.65149 -13679949.61946  22389695.496    22389702.828
  21858733.628   -20466527.56849 -15920000.52047  21858733.074    21858739.002
  24147427.344    -6972397.39849  -5409180.23345  24147427.443    24147436.983
  23849250.106    -9056660.08649  -6738761.46845  23849249.568    23849256.515
 03  2 26  0 10 30.0000000  0 10G 6G10G23G17G29G26G15G18G30G16
  20482794.051   -28986538.96149 -22562974.30648  20482793.767    20482799.748
  24593471.822    -2563675.19349  -1689814.97645  24593471.024    24593479.757
  20626949.504   -25666546.87649 -19968780.81548  20626948.890    20626955.113
  21067771.314   -26237696.61949 -20139846.17548  21067770.606    21067777.075
  22707259.562   -17198056.84249 -13147318.85646  22707259.212    22707265.776
  21693508.627   -21309732.53749 -16295734.41747  21693508.567    21693515.249
  22377791.577   -17695671.23449 -13728697.28546  22377790.808    22377798.081
  21844391.615   -20541895.29749 -15978728.54647  21844391.073    21844396.950
  24166716.970    -6871030.33549  -5330193.04345  24166717.020    24166726.537
  23841870.331    -9095441.11849  -6768980.40845  23841869.827    23841876.758
 03  2 26  0 11  0.0000000  0 10G 6G10G23G17G29G26G15G18G30G16
  20489200.013   -28952875.41449 -22536742.97648  20489199.722    20489205.722
  24613607.074    -2457864.33549  -1607364.95645  24613606.325    24613615.031
  20623346.542   -25685480.33449 -19983534.11848  20623345.925    20623352.131
  21063252.613   -26261442.63549 -20158349.54748  21063251.884    21063258.355
  22709269.498   -17187494.37149 -13139088.32246  22709269.190    22709275.706
  21688337.691   -21336905.60449 -16316908.17247  21688337.676    21688344.363
  22365908.759   -17758115.69549 -13777355.25246  22365907.964    22365915.214
  21830116.537   -20616911.02849 -16037182.29147  21830115.965    21830121.820
  24185997.461    -6769711.08049  -5251243.11545  24185997.482    24186007.082
  23834588.198    -9133708.97049  -6798799.47545  23834587.748    23834594.521
 03  2 26  0 11 30.0000000  0 10G 6G10G23G17G29G26G15G18G30G16
  20495697.818   -28918729.17549 -22510135.52348  20495697.544    20495703.536
  24633745.065    -2352038.90949  -1524903.60845  24633744.184    24633752.976
  20619832.250   -25703948.06949 -19997924.52448  20619831.628    20619837.816
  21058762.938   -26285035.92049 -20176733.90448  21058762.202    21058768.643
  22711383.171   -17176387.06649 -13130433.24246  22711382.827    22711389.310
  21683282.681   -21363469.60949 -16337607.34247  21683282.666    21683289.324
  22354048.275   -17820442.74449 -13825921.72846  22354047.495    22354054.728
  21815909.053   -20691571.37549 -16095359.11047  21815908.521    21815914.349
  24205268.921    -6668440.12149  -5172330.81245  24205268.830    24205278.470
  23827404.361    -9171460.55449  -6828216.24145  23827403.782    23827410.587
 03  2 26  0 12  0.0000000  0 10G 6G10G23G17G29G26G15G18G30G16
  20502287.023   -28884102.68549 -22483153.84648  20502286.732    20502292.733
  24653884.958    -2246202.98349  -1442434.04145  24653884.141    24653892.922
  20616406.033   -25721952.81349 -20011954.15848  20616405.410    20616411.613
  21054301.856   -26308478.79649 -20195001.05848  21054301.131    21054307.587
  22713600.073   -17164736.90549 -13121355.15846  22713599.742    22713606.203
  21678343.539   -21389425.00449 -16357832.26247  21678343.505    21678350.133
  22342209.683   -17882654.56649 -13874398.41746  22342208.871    22342216.137
  21801769.076   -20765877.31849 -16153259.77547  21801768.540    21801774.337
  24224530.207    -6567222.32749  -5093459.94545  24224530.156    24224539.713
  23820318.418    -9208697.11549  -6857231.69145  23820317.907    23820324.643
 03  2 26  0 12 30.0000000  0 10G 6G10G23G17G29G26G15G18G30G16
  20508967.858   -28848994.57149 -22455796.88248  20508967.567    20508973.582
  24674026.772    -2140357.16049  -1359956.79945  24674025.947    24674034.642
  20613068.061   -25739493.67049 -20025622.32348  20613067.450    20613073.655
  21049869.736   -26331769.73749 -20213149.82348  21049869.019    21049875.450
  22715920.554   -17152542.66449 -13111853.11446  22715920.206    22715926.634
  21673520.743   -21414768.88049 -16377580.67647  21673520.674    21673527.294
  22330393.385   -17944749.50949 -13922784.02046  22330392.551    22330399.809
  21787697.068   -20839826.14049 -16210882.16347  21787696.492    21787702.249
  24243780.986    -6466058.93649  -5014631.45745  24243781.030    24243790.557
  23813330.981    -9245416.29849  -6885843.99845  23813330.474    23813337.206
 03  2 26  0 13  0.0000000  0 10G 6G10G23G17G29G26G15G18G30G16
  20515740.297   -28813405.32949 -22428065.01248  20515740.009    20515746.020
  24694169.995    -2034503.69649  -1277473.60945  24694169.232    24694177.914
  20609818.243   -25756571.45549 -20038929.65148  20609817.630    20609823.808
  21045466.503   -26354908.87449 -20231180.29548  21045465.777    21045472.224
  22718344.574   -17139804.31249 -13101927.08246  22718344.247    22718350.615
  21668814.535   -21439499.69949 -16396851.38547  21668814.482    21668821.075
  22318599.211   -18006727.84849 -13971078.77346  22318598.406    22318605.656
  21773693.095   -20913416.97149 -16268225.59947  21773692.536    21773698.313
  24263020.803    -6364952.83949  -4935847.62645  24263020.819    24263030.509
  23806442.105    -9281617.35249  -6914052.56445  23806441.614    23806448.419
 03  2 26  0 13 30.0000000  0 10G 6G10G23G17G29G26G15G18G30G16
  20522604.260   -28777335.10149 -22399958.34148  20522603.977    20522609.953
  24714314.189    -1928644.88649  -1194986.25045  24714313.417    24714322.249
  20606656.428   -25773186.93349 -20051876.73848  20606655.799    20606661.972
  21041092.160   -26377896.07849 -20249092.37748  21041091.436    21041097.874
  22720872.052   -17126522.22849 -13091577.36146  22720871.728    22720878.094
  21664225.324   -21463616.00349 -16415643.24747  21664225.279    21664231.840
  22306827.281   -18068589.58849 -14019282.66446  22306826.456    22306833.717
  21759757.461   -20986648.87649 -16325289.35047  21759756.904    21759762.679
  24282249.264    -6263906.72549  -4857110.56145  24282249.409    24282259.025
  23799651.896    -9317299.73849  -6941856.98345  23799651.444    23799658.250
 03  2 26  0 14  0.0000000  0  9G 6G23G17G29G26G15G18G30G16
  20529559.878   -28740783.19449 -22371476.33348  20529559.592    20529565.558
  20603582.533   -25789339.99449 -20064463.50248  20603581.917    20603588.092
  21036746.871   -26400730.71549 -20266885.57748  21036746.144    21036752.562
  22723503.096   -17112695.72849 -13080803.40646  22723502.767    22723509.124
  21659753.513   -21487115.38949 -16433954.40347  21659753.455    21659760.017
  22295077.681   -18130333.82749 -14067394.99246  22295076.869    22295084.120
  21745890.491   -21059520.08749 -16382072.03747  21745889.934    21745895.692
  24301466.037    -6162922.66849  -4778421.83945  24301466.175    24301475.738
  23792960.722    -9352461.66649  -6969255.83845  23792960.306    23792967.113
 03  2 26  0 14 30.0000000  0  9G 6G23G17G29G26G15G18G30G16
  20536607.138   -28703749.68949 -22342619.05848  20536606.853    20536612.796
  20600596.609   -25805031.04149 -20076690.25748  20600596.004    20600602.159
  21032430.643   -26423412.57749 -20284559.73648  21032429.932    21032436.348
  22726237.732   -17098324.67949 -13069605.13646  22726237.433    22726243.764
  21655399.461   -21509996.07649 -16451783.46547  21655399.409    21655405.925
  22283350.552   -18191960.07749 -14115415.38146  22283349.718    22283356.979
  21732092.382   -21132029.29149 -16438572.65047  21732091.836    21732097.582
  24320670.531    -6062002.95049  -4699783.25545  24320670.740    24320680.363
  23786368.751    -9387102.15749  -6996248.39845  23786368.370    23786375.195
 03  2 26  0 15  0.0000000  0  9G 6G23G17G29G26G15G18G30G16
  20543745.580   -28666237.03849 -22313388.42048  20543745.301    20543751.202
  20597698.069   -25820262.90049 -20088559.19748  20597697.451    20597703.596
  21028143.099   -26445943.59949 -20302116.35048  21028142.400    21028148.799
  22729075.530   -17083411.30349 -13057984.27146  22729075.309    22729081.675
  21651162.975   -21532258.74949 -16469130.95847  21651162.922    21651169.423
  22271645.448   -18253470.51049 -14163345.52246  22271644.611    22271651.904
  21718362.926   -21204177.61149 -16494792.05047  21718362.371    21718368.093
  24339861.822    -5961152.61149  -4621198.73845  24339861.944    24339871.813
  23779875.758    -9421222.83349  -7022835.88645  23779875.375    23779882.185
 03  2 26  0 15 30.0000000  0  9G 6G23G17G29G26G15G18G30G16
  20550975.326   -28628244.50349 -22283783.85248  20550975.036    20550980.925
  20594886.969   -25835035.17549 -20100070.02348  20594886.357    20594892.487
  21023884.516   -26468322.51649 -20319554.43748  21023883.798    21023890.203
  22732016.717   -17067954.78049 -13045940.18546  22732016.513    22732022.950
  21647044.564   -21553901.04949 -16485995.03247  21647044.483    21647050.973
  22259962.586   -18314863.92449 -14211184.48046  22259961.759    22259969.075
  21704702.586   -21275962.99949 -16550728.64747  21704702.028    21704707.708
  24359039.701    -5860373.13749  -4542669.43645  24359039.748    24359049.650
  23773482.056    -9454821.78749  -7049016.85445  23773481.661    23773488.536
 03  2 26  0 16  0.0000000  0  9G 6G23G17G29G26G15G18G30G16
  20558296.426   -28589772.16649 -22253805.41348  20558296.128    20558301.981
  20592163.179   -25849348.52049 -20111223.24148  20592162.563    20592168.700
  21019654.779   -26490549.66149 -20336874.26448  21019654.066    21019660.479
  22735061.169   -17051955.38849 -13033473.06346  22735061.045    22735067.486
  21643044.476   -21574921.17849 -16502374.29847  21643044.422    21643050.885
  22248302.034   -18376140.26649 -14258932.21446  22248301.222    22248308.542
  21691111.505   -21347384.21549 -16606381.46747  21691110.946    21691116.654
  24378203.525    -5759667.15449  -4464197.40445  24378203.611    24378213.574
  23767187.779    -9487898.04949  -7074790.51945  23767187.389    23767194.304
 03  2 26  0 16 30.0000000  0  9G 6G23G17G29G26G15G18G30G16
  20565708.754   -28550820.14749 -22223453.19948  20565708.456    20565714.279
  20589526.684   -25863203.18549 -20122019.04548  20589526.078    20589532.214
  21015454.118   -26512624.20549 -20354075.18248  21015453.404    21015459.818
  22738209.168   -17035412.81249 -13020582.69446  22738208.946    22738215.389
  21639163.120   -21595317.44949 -16518267.44647  21639163.069    21639169.552
  22236663.793   -18437299.11249 -14306588.39146  22236663.019    22236670.297
  21677589.935   -21418440.09049 -16661749.60647  21677589.377    21677595.109
  24397352.927    -5659036.80949  -4385784.30145  24397353.064    24397363.104
  23760993.229    -9520450.50649  -7100156.02745  23760992.787    23760999.753
 03  2 26  0 17  0.0000000  0  9G 6G23G17G29G26G15G18G30G16
  20573212.145   -28511389.67449 -22192728.16448  20573211.852    20573217.653
  20586977.145   -25876601.07249 -20132458.92148  20586976.533    20586982.649
  21011282.297   -26534547.30049 -20371158.08548  21011281.573    21011287.966
  22741460.258   -17018328.32449 -13007270.05946  22741460.005    22741466.411
  21635400.576   -21615089.53649 -16533674.20947  21635400.554    21635407.023
  22225047.795   -18498341.30249 -14354153.67246  22225047.050    22225054.286
  21664137.949   -21489130.48949 -16716832.96247  21664137.400    21664143.129
  24416487.221    -5558485.90949  -4307433.10445  24416487.367    24416497.455
  23754898.327    -9552479.70249  -7125113.81245  23754897.857    23754904.798
 03  2 26  0 17 30.0000000  0  9G 6G23G17G29G26G15G18G30G16
  20580806.717   -28471479.98249 -22161629.71548  20580806.424    20580812.225
  20584514.596   -25889541.74449 -20142542.52748  20584513.988    20584520.081
  21007139.490   -26556317.70649 -20388122.00848  21007138.770    21007145.176
  22744814.562   -17000701.06549 -12993534.49546  22744814.323    22744820.755
  21631757.276   -21634235.08049 -16548592.75747  21631757.216    21631763.660
  22213454.269   -18559265.64949 -14401627.11846  22213453.516    22213460.700
  21650755.977   -21559453.07149 -16771629.70647  21650755.414    21650761.125
  24435606.063    -5458015.99649  -4229145.00545  24435606.201    24435616.464
  23748903.245    -9583983.68849  -7149662.33745  23748902.776    23748909.787
 03  2 26  0 18  0.0000000  0  9G 6G23G17G29G26G15G18G30G16
  20588492.380   -28431091.64049 -22130158.28948  20588492.074    20588497.890
  20582138.890   -25902026.19149 -20152270.63348  20582138.262    20582144.317
  21003025.727   -26577935.45949 -20404966.98248  21003025.028    21003031.424
  22748272.042   -16982531.75349 -12979376.54646  22748271.799    22748278.188
  21628233.382   -21652752.92149 -16563022.17847  21628233.316    21628239.762
  22201883.049   -18620072.42749 -14449008.95746  22201882.307    22201889.493
  21637443.983   -21629407.54249 -16826139.60947  21637443.430    21637449.107
  24454709.058    -5357629.81549  -4150922.15345  24454709.207    24454719.437
  23743008.137    -9614962.30449  -7173801.48245  23743007.717    23743014.688
 03  2 26  0 18 30.0000000  0  9G 6G23G17G29G26G15G18G30G16
  20596268.994   -28390225.23749 -22098314.34748  20596268.690    20596274.513
  20579849.782   -25914055.39449 -20161644.00448  20579849.157    20579855.195
  20998941.118   -26599400.25449 -20421692.76948  20998940.396    20998946.771
  22751832.531   -16963820.82849 -12964796.57746  22751832.305    22751838.751
  21624829.204   -21670641.76749 -16576961.48247  21624829.173    21624835.577
  22190334.234   -18680761.48449 -14496299.07146  22190333.542    22190340.681
  21624202.189   -21698993.23749 -16880362.15347  21624201.647    21624207.330
  24473795.614    -5257330.30249  -4072766.83645  24473795.733    24473805.824
  23737213.191    -9645414.97449  -7197530.81045  23737212.710    23737219.708
 03  2 26  0 19  0.0000000  0  9G 6G23G17G29G26G15G18G30G16
  20604136.692   -28348880.31649 -22066097.53748  20604136.393    20604142.209
  20577647.333   -25925629.23349 -20170662.54748  20577646.702    20577652.723
  20994885.663   -26620711.76249 -20438299.11548  20994884.954    20994891.336
  22755496.278   -16944567.70549 -12949794.10746  22755496.048    22755502.498
  21621545.101   -21687899.72649 -16590409.17547  21621545.056    21621551.445
  22178808.113   -18741331.67049 -14543496.55346  22178807.381    22178814.491
  21611030.967   -21768208.03649 -16934295.68847  21611030.445    21611036.121
  24492865.190    -5157119.16549  -3994680.38845  24492865.332    24492875.553
  23731518.489    -9675340.27149  -7220849.19645  23731518.062    23731525.064
 03  2 26  0 19 30.0000000  0  9G 6G23G17G29G26G15G18G30G16
  20612095.198   -28307058.10349 -22033508.80648  20612094.884    20612100.710
  20575531.175   -25936749.48849 -20179327.64648  20575530.547    20575536.575
  20990859.282   -26641870.39849 -20454786.34048  20990858.551    20990864.933
  22759262.952   -16924773.61449 -12934370.10946  22759262.701    22759269.087
  21618381.125   -21704526.39349 -16603364.95647  21618381.066    21618387.429
  22167304.360   -18801784.17549 -14590602.33646  22167303.635    22167310.711
  21597930.327   -21837052.02949 -16987940.28247  21597929.815    21597935.482
  24511917.397    -5056999.85449  -3916665.50645  24511917.512    24511927.738
  23725924.227    -9704738.58149  -7243756.94445  23725923.735    23725930.694
 03  2 26  0 20  0.0000000  0  9G 6G23G17G29G26G15G18G30G16
  20620144.511   -28264758.61749 -22000548.17048  20620144.231    20620150.048
  20573501.254   -25947416.56949 -20187639.62748  20573500.632    20573506.688
  20986862.092   -26662875.77149 -20471154.14148  20986861.348    20986867.723
  22763132.614   -16904438.49449 -12918524.53146  22763132.331    22763138.683
  21615337.553   -21720520.03249 -16615827.47347  21615337.513    21615343.883
  22155823.145   -18862118.09549 -14637615.72147  22155822.413    22155829.468
  21584900.506   -21905523.83249 -17041294.86047  21584899.995    21584905.634
  24530951.715    -4956974.58549  -3838723.89945  24530951.845    24530962.079
  23720430.470    -9733608.72749  -7266253.12045  23720429.888    23720436.843
 03  2 26  0 20 30.0000000  0  9G 6G23G17G29G26G15G18G30G16
  20628284.646   -28221982.04349 -21967215.78048  20628284.346    20628290.158
  20571557.474   -25957631.02649 -20195598.91148  20571556.848    20571562.900
  20982894.160   -26683727.32349 -20487402.07548  20982893.435    20982899.800
  22767105.149   -16883562.39349 -12902257.41646  22767104.902    22767111.212
  21612414.731   -21735879.24449 -16627795.62347  21612414.697    21612421.062
  22144364.602   -18922332.96349 -14684536.34047  22144363.876    22144370.924
  21571941.795   -21973622.27349 -17094358.51147  21571941.286    21571946.864
  24549967.571    -4857045.44949  -3760857.21145  24549967.541    24549978.124
  23715037.213    -9761949.96649  -7288337.17945  23715036.712    23715043.643
 03  2 26  0 21  0.0000000  0  9G 6G23G17G29G26G15G18G30G16
  20636515.377   -28178729.30049 -21933512.35048  20636515.068    20636520.903
  20569699.606   -25967394.11849 -20203206.48648  20569698.974    20569705.033
  20978955.480   -26704425.11549 -20503530.20248  20978954.752    20978961.108
  22771180.429   -16862146.34549 -12885569.56346  22771180.240    22771186.499
  21609612.811   -21750603.21049 -16639268.78247  21609612.786    21609619.112
  22132928.616   -18982429.16149 -14731364.48347  22132927.883    22132934.934
  21559054.173   -22041346.90449 -17147130.88447  21559053.648    21559059.204
  24568964.545    -4757215.54249  -3683067.83045  24568964.640    24568975.207
  23709744.624    -9789762.38749  -7310009.16745  23709744.165    23709751.178
 03  2 26  0 21 30.0000000  0  9G 6G23G17G29G26G15G18G30G16
  20644836.705   -28135000.38649 -21899437.87748  20644836.417    20644842.250
  20567927.547   -25976706.13949 -20210462.57848  20567926.931    20567932.985
  20975046.148   -26724968.71549 -20519538.18248  20975045.418    20975051.729
  22775358.576   -16840190.18749 -12868460.83646  22775358.338    22775364.534
  21606932.121   -21764690.35749 -16650245.71847  21606932.062    21606938.400
  22121515.292   -19042406.32749 -14778099.88946  22121514.534    22121521.576
  21546237.865   -22108696.72349 -17199611.19947  21546237.370    21546242.907
  24587942.335    -4657486.97549  -3605357.41545  24587942.542    24587953.119
  23704552.937    -9817044.84149  -7331268.19745  23704552.490    23704559.488
 03  2 26  0 22  0.0000000  0  9G 6G23G17G29G26G15G18G30G16
  20653248.551   -28090795.90749 -21864992.83148  20653248.254    20653254.098
  20566241.104   -25985568.23649 -20217368.07848  20566240.478    20566246.526
  20971166.149   -26745358.34649 -20535426.18248  20971165.404    20971171.709
  22779639.334   -16817694.72249 -12850931.87246  22779639.084    22779645.256
  21604372.714   -21778139.75049 -16660725.70847  21604372.664    21604379.029
  22110124.616   -19102264.35249 -14824742.45246  22110123.870    22110130.878
  21533493.086   -22175670.76749 -17251798.70247  21533492.573    21533498.104
  24606900.352    -4557862.56049  -3527728.13545  24606900.546    24606911.114
  23699462.086    -9843797.02549  -7352114.02445  23699461.684    23699468.704
 03  2 26  0 22 30.0000000  0  9G 6G23G17G29G26G15G18G30G16
  20661750.776   -28046116.33849 -21830177.58448  20661750.488    20661756.349
  20564640.158   -25993981.27249 -20223923.66348  20564639.536    20564645.559
  20967315.388   -26765593.98349 -20551194.19048  20967314.660    20967320.946
  22784022.617   -16794660.13749 -12832982.81246  22784022.419    22784028.582
  21601934.923   -21790950.27449 -16670707.87847  21601934.882    21601941.207
  22098756.690   -19162002.89449 -14871291.91146  22098755.980    22098762.947
  21520820.085   -22242267.82749 -17303692.45447  21520819.577    21520825.070
  24625838.134    -4458344.71049  -3450181.91045  24625838.287    24625848.915
  23694472.406    -9870018.41349  -7372546.25645  23694471.978    23694478.845
 03  2 26  0 23  0.0000000  0  9G 6G23G17G29G26G15G18G30G16
  20670343.192   -28000962.72049 -21794992.94848  20670342.909    20670348.795
  20563124.407   -26001946.60949 -20230130.38748  20563123.786    20563129.767
  20963493.925   -26785675.76749 -20566842.31348  20963493.216    20963499.525
  22788508.298   -16771087.70649 -12814614.65346  22788508.044    22788514.189
  21599618.768   -21803121.40449 -16680191.81747  21599618.715    21599625.031
  22087411.440   -19221622.37149 -14917748.59446  22087410.714    22087417.676
  21508218.871   -22308487.56649 -17355292.19847  21508218.350    21508223.766
  24644755.015    -4358936.43949  -3372721.05345  24644755.181    24644765.559
  23689583.686    -9895709.18549  -7392565.00845  23689583.183    23689590.072
 03  2 26  0 23 30.0000000  0  9G 6G23G17G29G26G15G18G30G16
  20679025.860   -27955334.99949 -21759438.88347  20679025.568    20679031.457
  20561693.753   -26009464.68249 -20235988.59048  20561693.116    20561699.097
  20959701.996   -26805602.54149 -20582369.65248  20959701.271    20959707.558
  22793096.331   -16746977.19149 -12795827.22046  22793096.098    22793102.256
  21597424.577   -21814651.65949 -16689176.37547  21597424.534    21597430.816
  22076088.950   -19281122.13849 -14964112.00047  22076088.212    22076095.177
  21495689.603   -22374328.93949 -17406597.10447  21495689.094    21495694.488
  24663650.653    -4259639.75449  -3295347.15745  24663650.859    24663661.264
  23684795.863    -9920868.51849  -7412169.65045  23684795.388    23684802.375
 03  2 26  0 24  0.0000000  0  9G 6G23G17G29G26G15G18G30G16
  20687798.625   -27909233.71749 -21723515.81247  20687798.345    20687804.257
  20560347.984   -26016536.35249 -20241498.95248  20560347.368    20560353.368
  20955939.467   -26825374.49749 -20597776.34948  20955938.726    20955945.036
  22797786.697   -16722329.20749 -12776620.96546  22797786.421    22797792.652
  21595352.586   -21825539.84049 -16697660.60447  21595352.539    21595358.829
  22064789.355   -19340501.74149 -15010381.77647  22064788.595    22064795.552
  21483232.633   -22439790.84549 -17457606.32547  21483232.118    21483237.476
  24682524.660    -4160457.15449  -3218062.16145  24682524.903    24682535.185
  23680109.383    -9945495.70449  -7431359.63245  23680108.922    23680115.957
 03  2 26  0 24 30.0000000  0  8G 6G23G17G29G26G15G18G16
  20696663.323   -27862649.17549 -21687216.17547  20696663.038    20696669.014
  20559088.985   -26023152.25549 -20246654.17348  20559088.369    20559094.378
  20952208.512   -26844980.74749 -20613053.93148  20952207.758    20952214.108
  22802581.066   -16697134.03649 -12756988.34446  22802580.792    22802587.115
  21593404.869   -21835774.81449 -16705635.84547  21593404.807    21593411.108
  22053514.687   -19399750.52349 -15056549.61447  22053513.910    22053520.826
  21470849.938   -22504861.99449 -17508311.06147  21470849.430    21470854.770
  23675526.361    -9969580.14649  -7450126.71045  23675525.855    23675532.830
 03  2 26  0 25  0.0000000  0  8G 6G23G17G29G26G15G18G16
  20705617.327   -27815595.63849 -21650551.08247  20705617.040    20705623.002
  20557913.996   -26029326.85149 -20251465.52148  20557913.373    20557919.360
  20948506.472   -26864434.89749 -20628212.99348  20948505.741    20948512.063
  22807476.932   -16671405.70849 -12736940.27146  22807476.703    22807483.053
  21591579.072   -21845369.16749 -16713111.90747  21591579.021    21591585.307
  22042262.277   -19458882.28249 -15102626.26247  22042261.480    22042268.385
  21458539.164   -22569555.35749 -17558721.41947  21458538.653    21458543.988
  23671044.017    -9993134.99549  -7468481.11745  23671043.468    23671050.448
 03  2 26  0 25 30.0000000  0  8G 6G23G17G29G26G15G18G16
  20714660.542   -27768073.12749 -21613520.56147  20714660.249    20714666.215
  20556822.886   -26035060.66849 -20255933.40348  20556822.278    20556828.233
  20944833.490   -26883736.53949 -20643253.22348  20944832.764    20944839.068
  22812474.219   -16645144.52149 -12716476.98846  22812473.993    22812480.309
  21589875.487   -21854321.58449 -16720087.76147  21589875.400    21589881.671
  22031032.187   -19517896.37249 -15148611.21847  22031031.394    22031038.321
  21446300.510   -22633869.82649 -17608836.53747  21446299.995    21446305.319
  23666662.474   -10016159.74949  -7486422.45545  23666661.950    23666668.927
 03  2 26  0 26  0.0000000  0  8G 6G23G17G29G26G15G18G16
  20723793.013   -27720081.57649 -21576124.55547  20723792.727    20723798.719
  20555815.549   -26040354.10249 -20260058.12048  20555814.926    20555820.876
  20941189.794   -26902884.28349 -20658173.52948  20941189.076    20941195.358
  22817572.944   -16618350.41849 -12695598.45146  22817572.703    22817579.024
  21588294.281   -21862630.47949 -16726562.17247  21588294.215    21588300.478
  22019824.753   -19576791.85049 -15194503.75647  22019823.963    22019830.881
  21434134.252   -22697803.74449 -17658655.12047  21434133.708    21434139.065
  23662382.176   -10038653.25949  -7503949.85145  23662381.604    23662388.485
 03  2 26  0 26 30.0000000  0  8G 6G23G17G29G26G15G18G16
  20733014.960   -27671619.95749 -21538362.26947  20733014.683    20733020.701
  20554892.174   -26045206.42649 -20263839.12248  20554891.555    20554897.488
  20937575.699   -26921876.56549 -20672972.69648  20937574.969    20937581.247
  22822773.254   -16591022.32949 -12674303.81646  22822773.043    22822779.390
  21586836.026   -21870293.38049 -16732533.21647  21586835.945    21586842.216
  22008640.201   -19635566.87549 -15240302.43747  22008639.406    22008646.297
  21422040.886   -22761354.54049 -17708175.17047  21422040.350    21422045.717
  23658203.320   -10060613.51549  -7521061.71245  23658202.777    23658209.580
 03  2 26  0 27  0.0000000  0  8G 6G23G17G29G26G15G18G16
  20742326.121   -27622689.43449 -21500234.60147  20742325.856    20742331.883
  20554052.438   -26049619.15249 -20267277.58048  20554051.816    20554057.740
  20933991.097   -26940713.66449 -20687650.93948  20933990.370    20933996.654
  22828075.047   -16563161.43149 -12652594.00546  22828074.793    22828081.171
  21585500.766   -21877309.84449 -16738000.53147  21585500.709    21585506.959
  21997478.538   -19694221.62149 -15286007.38447  21997477.733    21997484.595
  21410020.463   -22824522.17849 -17757396.65247  21410019.922    21410025.265
  23654125.772   -10082040.94149  -7537758.38845  23654125.250    23654132.042
 03  2 26  0 27 30.0000000  0  8G 6G23G17G29G26G15G18G16
  20751726.547   -27573289.99149 -21461741.53947  20751726.269    20751732.307
  20553296.276   -26053592.63849 -20270373.77448  20553295.650    20553301.571
  20930436.249   -26959394.27849 -20702207.24548  20930435.531    20930441.796
  22833478.118   -16534767.72849 -12630469.03046  22833477.892    22833484.319
  21584288.818   -21883678.49149 -16742963.06047  21584288.748    21584294.972
  21986339.918   -19752755.12749 -15331617.86447  21986339.144    21986345.978
  21398073.228   -22887305.19349 -17806318.42347  21398072.683    21398078.008
  23650149.794   -10102934.58249  -7554039.13445  23650149.263    23650156.114
 03  2 26  0 28  0.0000000  0  8G 6G23G17G29G26G15G18G16
  20761216.064   -27523422.37149 -21422883.65747  20761215.779    20761221.791
  20552623.523   -26057128.00449 -20273128.57648  20552622.895    20552628.795
  20926911.255   -26977918.23249 -20716641.48148  20926910.531    20926916.801
  22838982.527   -16505841.81149 -12607929.33046  22838982.322    22838988.693
  21583200.239   -21889398.64749 -16747420.27747  21583200.201    21583206.411
  21975224.507   -19811167.06449 -15377133.60647  21975223.719    21975230.483
  21386199.280   -22949702.98649 -17854940.01947  21386198.723    21386204.013
  23646275.463   -10123294.15649  -7569903.71145  23646274.945    23646281.800
 03  2 26  0 28 30.0000000  0  8G 6G23G17G29G26G15G18G16
  20770794.642   -27473086.58549 -21383660.97447  20770794.358    20770800.385
  20552034.015   -26060225.69049 -20275542.33548  20552033.393    20552039.286
  20923416.116   -26996285.10749 -20730953.31648  20923415.391    20923421.694
  22844588.125   -16476384.15849 -12584975.29746  22844587.981    22844594.246
  21582235.355   -21894468.91849 -16751371.09047  21582235.310    21582241.510
  21964132.358   -19869456.69449 -15422554.04647  21964131.558    21964138.328
  21374398.901   -23011713.96049 -17903260.20447  21374398.352    21374403.657
  23642502.881   -10143118.89549  -7585351.54745  23642502.396    23642509.211
 03  2 26  0 29  0.0000000  0  8G 6G23G17G29G26G15G18G16
  20780462.102   -27422283.70749 -21344074.32247  20780461.826    20780467.865
  20551527.553   -26062887.05349 -20277616.10048  20551526.934    20551532.816
  20919950.977   -27014494.49249 -20745142.43148  20919950.240    20919956.537
  22850294.789   -16446395.68349 -12561607.63346  22850294.600    22850300.834
  21581394.211   -21898888.88949 -16754815.17447  21581394.192    21581400.389
  21953063.441   -19927623.99349 -15467879.16747  21953062.611    21953069.396
  21362672.184   -23073337.96649 -17951278.85347  21362671.630    21362676.939
  23638832.119   -10162408.88549  -7600382.68945  23638831.607    23638838.447
 03  2 26  0 29 30.0000000  0  8G 6G23G17G29G26G15G18G16
  20790218.216   -27371015.10249 -21304124.76447  20790217.931    20790223.941
  20551103.769   -26065113.69549 -20279351.11948  20551103.177    20551109.063
  20916515.691   -27032546.91649 -20759209.23748  20916514.948    20916521.260
  22856102.116   -16415877.66549 -12537827.34046  22856101.950    22856108.191
  21580676.839   -21902658.49249 -16757752.48947  21580676.808    21580683.010
  21942017.728   -19985669.39649 -15513109.29747  21942016.908    21942023.692
  21351019.156   -23134574.83349 -17998995.83447  21351018.588    21351023.881
  23635263.020   -10181164.54649  -7614997.47945  23635262.498    23635269.360
 03  2 26  0 30  0.0000000  0  8G 6G23G17G29G26G15G18G16
  20800063.035   -27319280.40449 -21263812.02447  20800062.736    20800068.714
  20550762.748   -26066905.64849 -20280747.42348  20550762.163    20550768.031
  20913110.570   -27050440.90849 -20773152.59348  20913109.845    20913116.147
  22862010.327   -16384829.96949 -12513634.32046  22862010.110    22862016.333
  21580083.531   -21905775.98349 -16760181.66147  21580083.519    21580089.724
  21930995.505   -20043591.50149 -15558243.35947  21930994.658    21931001.446
  21339440.114   -23195422.79449 -18046409.77447  21339439.573    21339444.831
  23631795.620   -10199384.85049  -7629195.11245  23631795.199    23631802.046
 03  2 26  0 30 30.0000000  0  8G 6G23G17G29G26G15G18G16
  20809996.227   -27267081.16249 -21223137.29747  20809995.920    20810001.917
  20550504.102   -26068264.76649 -20281806.45048  20550503.513    20550509.397
  20909735.437   -27068177.18749 -20786973.05048  20909734.722    20909741.036
  22868019.087   -16353254.13249 -12489029.72646  22868018.840    22868025.021
  21579614.337   -21908241.68749 -16762102.94247  21579614.304    21579620.462
  21919996.609   -20101390.88049 -15603281.78547  21919995.763    21920002.524
  21327935.077   -23255882.04149 -18093520.81647  21327934.518    21327939.735
  23628430.130   -10217070.30749  -7642975.97145  23628429.808    23628436.599
 03  2 26  0 31  0.0000000  0  8G 6G23G17G29G26G15G18G16
  20820017.694   -27214417.98549 -21182101.07047  20820017.402    20820023.394
  20550327.614   -26069192.01349 -20282528.95948  20550327.035    20550332.910
  20906390.524   -27085754.70849 -20800669.80448  20906389.798    20906396.107
  22874128.135   -16321150.73649 -12464014.08446  22874127.881    22874134.094
  21579269.317   -21910054.61949 -16763515.57347  21579269.293    21579275.408
  21909021.133   -20159067.10449 -15648224.24847  21909020.321    21909027.072
  21316504.176   -23315951.51149 -18140328.13847  21316503.632    21316508.857
  23625166.549   -10234220.86349  -7656340.02745  23625166.227    23625172.990
 03  2 26  0 31 30.0000000  0  8G 6G23G17G29G26G15G18G16
  20830127.401   -27161291.09049 -21140703.50347  20830127.123    20830133.114
  20550233.243   -26069687.90749 -20282915.34648  20550232.640    20550238.505
  20903075.948   -27103173.01749 -20814242.49448  20903075.222    20903081.514
  22880337.468   -16288520.01149 -12438587.50146  22880337.262    22880343.490
  21579048.762   -21911213.82749 -16764418.81147  21579048.726    21579054.782
  21898069.297   -20216619.25849 -15693070.03347  21898068.483    21898075.215
  21305147.654   -23375629.96749 -18186830.77447  21305147.124    21305152.352
  23622004.858   -10250835.57549  -7669286.54645  23622004.517    23622011.325
 03  2 26  0 32  0.0000000  0  8G 6G23G17G29G26G15G18G16
  20840325.025   -27107702.38549 -21098946.08147  20840324.733    20840330.730
  20550220.531   -26069754.56049 -20282967.26248  20550219.949    20550225.803
  20899791.457   -27120432.98849 -20827691.80448  20899790.746    20899797.030
  22886646.855   -16255364.00849 -12412751.64146  22886646.604    22886652.836
  21578952.478   -21911719.69949 -16764812.94747  21578952.422    21578958.489
  21887140.975   -20274048.05149 -15737819.69047  21887140.148    21887146.841
  21293865.522   -23434918.00349 -18233029.18447  21293864.964    21293870.158
  23618944.839   -10266915.66849  -7681816.47345  23618944.535    23618951.363
 03  2 26  0 32 30.0000000  0  8G 6G23G17G29G26G15G18G16
  20850609.629   -27053656.53149 -21056832.44747  20850609.343    20850615.337
  20550288.615   -26069396.88549 -20282688.53248  20550288.022    20550293.876
  20896536.520   -27137537.86949 -20841020.26748  20896535.789    20896542.079
  22893055.296   -16221687.42149 -12386510.12246  22893055.057    22893061.250
  21578979.831   -21911575.69249 -16764700.69047  21578979.773    21578985.843
  21876235.391   -20331356.92849 -15782475.91047  21876234.588    21876241.273
  21282657.028   -23493818.67749 -18278925.76347  21282656.464    21282661.668
  23615986.022   -10282464.76849  -7693932.63545  23615985.663    23615992.416
 03  2 26  0 33  0.0000000  0  8G 6G23G17G29G26G15G18G16
  20860982.045   -26999149.04449 -21014359.08647  20860981.743    20860987.743
  20550438.182   -26068610.74549 -20282075.93248  20550437.578    20550443.432
  20893312.127   -27154482.05949 -20854223.51448  20893311.382    20893317.684
  22899563.693   -16187485.83849 -12359859.50146  22899563.452    22899569.610
  21579132.008   -21910775.96449 -16764077.48147  21579131.968    21579137.991
  21865353.778   -20388540.21449 -15827034.26447  21865352.981    21865359.633
  21271523.413   -23552326.01149 -18324515.83647  21271522.861    21271528.077
  23613129.261   -10297477.57049  -7705630.91345  23613128.831    23613135.598
 03  2 26  0 33 30.0000000  0  8G 6G23G17G29G26G15G18G16
  20871442.363   -26944179.75849 -20971525.88647  20871442.081    20871448.073
  20550669.231   -26067396.42949 -20281129.69048  20550668.638    20550674.471
  20890118.596   -27171263.89049 -20867300.24548  20890117.872    20890124.171
  22906171.956   -16152759.26249 -12332799.81446  22906171.677    22906177.875
  21579409.208   -21909319.16249 -16762942.27047  21579409.186    21579415.144
  21854496.220   -20445596.86049 -15871493.93247  21854495.418    21854502.065
  21260464.915   -23610438.55849 -18369798.28947  21260464.347    21260469.549
  23610374.553   -10311953.25849  -7716910.65545  23610374.228    23610380.890
 03  2 26  0 34  0.0000000  0  8G 6G23G17G29G26G15G18G16
  20881990.070   -26888751.24749 -20928334.84547  20881989.789    20881995.768
  20550981.243   -26065756.84649 -20279852.07148  20550980.642    20550986.465
  20886955.724   -27187884.91449 -20880251.67548  20886954.992    20886961.301
  22912879.592   -16117510.36349 -12305333.10846  22912879.274    22912885.473
  21579811.259   -21907206.59549 -16761296.07547  21579811.198    21579817.109
  21843662.487   -20502528.10249 -15915855.88547  21843661.678    21843668.359
  21249481.387   -23668157.35349 -18414773.92147  21249480.811    21249485.995
  23607721.841   -10325893.61149  -7727773.25845  23607721.524    23607728.145
 03  2 26  0 34 30.0000000  0  8G 6G23G17G29G26G15G18G16
  20892625.034   -26832864.25249 -20884786.54647  20892624.757    20892630.719
  20551373.991   -26063692.79049 -20278243.69248  20551373.370    20551379.201
  20883823.447   -27204344.99249 -20893077.69948  20883822.720    20883829.040
  22919686.448   -16081739.68749 -12277459.82646  22919686.172    22919692.371
  21580338.148   -21904437.52049 -16759138.31947  21580338.083    21580343.993
  21832852.682   -20559333.52049 -15960119.79947  21832851.891    21832858.574
  21238572.853   -23725481.58549 -18459442.10347  21238572.283    21238577.472
  23605171.025   -10339298.51249  -7738218.61945  23605170.680    23605177.287
 03  2 26  0 35  0.0000000  0  8G 6G23G17G29G26G15G18G16
  20903347.072   -26776519.75749 -20840881.75247  20903346.804    20903352.744
  20551847.252   -26061205.68449 -20276305.66348  20551846.653    20551852.481
  20880721.929   -27220643.53449 -20905777.84248  20880721.208    20880727.514
  22926592.393   -16045448.48949 -12249180.94446  22926592.160    22926598.266
  21580990.006   -21901011.79849 -16756468.88747  21580989.971    21580995.830
  21822066.946   -20616012.96649 -16004285.55047  21822066.118    21822072.793
  21227739.609   -23782410.77649 -18503802.45547  21227739.042    21227744.191
  23602722.052   -10352168.12449  -7748246.86745  23602721.695    23602728.294
 03  2 26  0 35 30.0000000  0  8G 6G23G17G29G26G15G18G16
  20914155.910   -26719719.10649 -20796621.51747  20914155.621    20914161.559
  20552400.694   -26058297.29549 -20274039.36748  20552400.090    20552405.913
  20877651.152   -27236780.54949 -20918352.12248  20877650.413    20877656.711
  22933597.150   -16008638.35149 -12220497.70546  22933596.931    22933602.991
  21581766.753   -21896929.72849 -16753288.01647  21581766.694    21581772.546
  21811305.158   -20672566.38549 -16048353.10247  21811304.328    21811310.982
  21216981.522   -23838944.74449 -18547854.85347  21216980.970    21216986.065
  23600374.769   -10364503.01549  -7757858.45545  23600374.421    23600381.009
 03  2 26  0 36  0.0000000  0  8G 6G23G17G29G26G15G18G16
  20925051.430   -26662462.78149 -20752006.21147  20925051.149    20925057.098
  20553034.208   -26054968.06349 -20271445.13848  20553033.591    20553039.401
  20874611.289   -27252755.06149 -20930799.77548  20874610.558    20874616.870
  22940700.562   -15971309.55649 -12191410.29446  22940700.324    22940706.418
  21582668.582   -21892190.24249 -16749594.87447  21582668.540    21582674.395
  21800567.531   -20728992.84649 -16092321.71647  21800566.692    21800573.340
  21206298.795   -23895082.65649 -18591598.62247  21206298.235    21206303.328
  23598129.396   -10376302.58449  -7767052.91145  23598129.055    23598135.618
 03  2 26  0 36 30.0000000  0  8G 6G23G17G29G26G15G18G16
  20936033.462   -26604751.89849 -20707036.69847  20936033.176    20936039.112
  20553747.514   -26051219.40749 -20268524.08848  20553746.907    20553752.732
  20871602.342   -27268567.08349 -20943120.81748  20871601.621    20871607.904
  22947902.391   -15933463.52249 -12161919.86046  22947902.168    22947908.298
  21583695.561   -21886793.39849 -16745389.50647  21583695.528    21583701.376
  21789854.085   -20785292.14649 -16136191.25147  21789853.249    21789859.881
  21195691.507   -23950824.03749 -18635033.41747  21195690.958    21195696.051
  23595985.763   -10387567.33049  -7775830.61245  23595985.420    23595991.987
 03  2 26  0 37  0.0000000  0  8G 6G23G17G29G26G15G18G16
  20947101.555   -26546588.71549 -20661714.75047  20947101.274    20947107.197
  20554540.126   -26047054.15049 -20265278.41448  20554539.528    20554545.348
  20868624.191   -27284217.45549 -20955315.89648  20868623.443    20868629.706
  22955202.180   -15895102.60149 -12132028.20846  22955201.994    22955208.160
  21584847.360   -21880740.48349 -16740672.91147  21584847.311    21584853.173
  21779164.584   -20841465.46849 -16179962.61847  21779163.759    21779170.396
  21185159.548   -24006169.77949 -18678159.92147  21185158.990    21185164.048
  23593943.509   -10398298.93049  -7784192.88645  23593943.153    23593949.742
 03  2 26  0 37 30.0000000  0  8G 6G23G17G29G26G15G18G16
  20958255.875   -26487972.40949 -20616039.71347  20958255.602    20958261.523
  20555412.125   -26042471.74049 -20261707.68648  20555411.525    20555417.334
  20865677.145   -27299704.01149 -20967383.33148  20865676.423    20865682.698
  22962600.149   -15856226.13249 -12101734.83846  22962599.933    22962606.122
  21586124.425   -21874029.18449 -16735443.29747  21586124.407    21586130.239
  21768499.534   -20897510.68949 -16223634.16347  21768498.702    21768505.330
  21174703.293   -24061117.66649 -18720976.41947  21174702.749    21174707.777
  23592003.185   -10408495.62849  -7792138.35145  23592002.807    23592009.378
 03  2 26  0 38  0.0000000  0  8G 6G23G17G29G26G15G18G16
  20969495.910   -26428905.53249 -20570013.58547  20969495.630    20969501.566
  20556362.988   -26037474.84649 -20257813.97948  20556362.396    20556368.193
  20862761.107   -27315027.73649 -20979323.88548  20862760.402    20862766.694
  22970095.795   -15816836.55349 -12071041.63946  22970095.564    22970101.682
  21587526.514   -21866661.17649 -16729701.94947  21587526.477    21587532.304
  21757858.647   -20953428.84249 -16267206.69347  21757857.788    21757864.422
  21164322.548   -24115668.44649 -18763483.47947  21164322.015    21164327.041
  23590164.286   -10418159.16649  -7799668.37245  23590163.839    23590170.428
 03  2 26  0 38 30.0000000  0  8G 6G23G17G29G26G15G18G16
  20980821.707   -26369388.00949 -20523636.30247  20980821.449    20980827.388
  20557392.715   -26032063.58949 -20253597.39648  20557392.094    20557397.880
  20859876.364   -27330186.98649 -20991136.27348  20859875.669    20859881.944
  22977688.953   -15776934.06749 -12039948.77346  22977688.697    22977694.828
  21589053.792   -21858635.01049 -16723447.75447  21589053.779    21589059.571
  21747242.163   -21009218.38449 -16310679.01147  21747241.328    21747247.964
  21154017.651   -24169820.87149 -18805680.13247  21154017.129    21154022.152
  23588427.002   -10427288.60249  -7806782.19645  23588426.542    23588433.127
 03  2 26  0 39  0.0000000  0  8G 6G23G17G29G26G15G18G16
  20992232.982   -26309421.60349 -20476909.24747  20992232.710    20992238.650
  20558500.863   -26026240.06749 -20249059.57048  20558500.257    20558506.037
  20857022.932   -27345181.92949 -21002820.63448  20857022.224    20857028.501
  22985379.400   -15736520.52749 -12008457.68346  22985379.103    22985385.242
  21590706.222   -21849951.42949 -16716681.28847  21590706.175    21590711.969
  21736650.099   -21064879.78149 -16354051.47647  21736649.271    21736655.906
  21143788.607   -24223574.78149 -18847566.25947  21143788.070    21143793.096
  23586791.134   -10435885.07949  -7813480.74745  23586790.675    23586797.214
 03  2 26  0 39 30.0000000  0  8G 6G23G17G29G26G15G18G16
  21003729.473   -26249007.26649 -20429833.15547  21003729.171    21003735.138
  20559687.249   -26020005.28749 -20244201.28048  20559686.665    20559692.442
  20854200.783   -27360012.46749 -21014376.88848  20854200.078    20854206.341
  22993166.901   -15695596.75449 -11976569.00946  22993166.572    22993172.760
  21592483.772   -21840610.04449 -16709402.25347  21592483.735    21592489.539
  21726082.558   -21120412.40149 -16397323.59947  21726081.747    21726088.348
  21133635.452   -24276929.75149 -18889141.52047  21133634.909    21133639.920
  23585256.654   -10443948.70949  -7819764.07745  23585256.227    23585262.753
 03  2 26  0 40  0.0000000  0  8G 6G23G17G29G26G15G18G16
  21015311.067   -26188145.55649 -20382408.46447  21015310.773    21015316.745
  20560951.741   -26013360.30749 -20239023.35748  20560951.160    20560956.907
  20851410.047   -27374677.77349 -21025804.38948  20851409.340    20851415.603
  23001051.277   -15654163.69449 -11944283.48846  23001050.974    23001057.217
  21594386.539   -21830610.72649 -16701610.54547  21594386.488    21594392.332
  21715539.671   -21175815.37949 -16440494.70147  21715538.875    21715545.479
  21123558.372   -24329885.09049 -18930405.38447  21123557.835    21123562.812
  23583823.559   -10451479.45449  -7825632.17645  23583823.179    23583829.744
 03  2 26  0 40 30.0000000  0  8G 6G23G17G29G26G15G18G16
  21026977.489   -26126838.28849 -20334636.57647  21026977.207    21026983.149
  20562293.940   -26006307.09849 -20233527.32848  20562293.331    20562299.070
  20848650.748   -27389178.09449 -21037103.33048  20848650.020    20848656.296
  23009032.229   -15612223.32249 -11911602.66446  23009031.949    23009038.137
  21596414.445   -21819953.90649 -16693306.49447  21596414.393    21596420.221
  21705021.396   -21231089.12049 -16483565.10647  21705020.597    21705027.176
  21113557.332   -24382440.91549 -18971357.93747  21113556.779    21113561.732
  23582491.689   -10458478.42349  -7831085.90345  23582491.351    23582497.872
 03  2 26  0 41  0.0000000  0  8G 6G23G17G29G26G15G18G16
  21038728.389   -26065086.73249 -20286518.49347  21038728.121    21038734.072
  20563713.521   -25998847.01149 -20227714.25548  20563712.918    20563718.665
  20845922.931   -27403512.68649 -21048273.12848  20845922.218    20845928.487
  23017109.523   -15569776.84349 -11878527.47646  23017109.257    23017115.401
  21598567.424   -21808639.76849 -16684490.24347  21598567.353    21598573.187
  21694527.805   -21286233.26849 -16526534.52047  21694526.992    21694533.525
  21103632.360   -24434596.98049 -19011998.99247  21103631.810    21103636.745
  23581261.008   -10464945.83449  -7836125.43245  23581260.603    23581267.180
 03  2 26  0 41 30.0000000  0  8G 6G23G17G29G26G15G18G16
  21050563.745   -26002891.55449 -20238054.72747  21050563.478    21050569.457
  20565210.323   -25990981.10049 -20221584.95048  20565209.742    20565215.453
  20843226.877   -27417680.71149 -21059313.13248  20843226.165    20843232.416
  23025282.866   -15526825.20449 -11845058.64646  23025282.618    23025288.765
  21600845.502   -21796668.14749 -16675161.66047  21600845.456    21600851.291
  21684058.979   -21341247.05249 -16569402.35847  21684058.189    21684064.668
  21093783.561   -24486352.51449 -19052327.93947  21093783.018    21093787.955
  23580131.457   -10470881.87449  -7840750.91245  23580131.015    23580137.549
 03  2 26  0 42  0.0000000  0  8G 6G23G17G29G26G15G18G16
  21062483.275   -25940253.84249 -20189246.13847  21062483.016    21062489.035
  20566784.140   -25982710.65449 -20215140.42548  20566783.532    20566789.238
  20840562.556   -27431681.76249 -21070223.02448  20840561.849    20840568.068
  23033552.228   -15483369.51849 -11811197.06046  23033551.964    23033558.073
  21603248.689   -21784038.96849 -16665320.70647  21603248.672    21603254.534
  21673615.010   -21396130.02049 -16612168.26647  21673614.239    21673620.718
  21084011.068   -24537706.89749 -19092344.30647  21084010.543    21084015.479
  23579102.946   -10476286.90449  -7844962.59945  23579102.417    23579108.952
 03  2 26  0 42 30.0000000  0  8G 6G23G17G29G26G15G18G16
  21074486.831   -25877174.77449 -20140093.63147  21074486.566    21074492.601
  20568434.688   -25974036.96849 -20208381.68648  20568434.079    20568439.811
  20837930.031   -27445515.75949 -21081002.74548  20837929.312    20837935.545
  23041917.230   -15439411.05649 -11776943.70546  23041916.993    23041923.055
  21605777.016   -21770752.27549 -16654967.39847  21605777.012    21605782.854
  21663196.091   -21450881.51549 -16654831.73047  21663195.322    21663201.788
  21074314.979   -24588660.01849 -19132048.00147  21074314.446    21074319.380
  23578175.224   -10481161.51649  -7848760.99745  23578174.799    23578181.290
 03  2 26  0 43  0.0000000  0  8G 6G23G17G29G26G15G18G16
  21086574.007   -25813656.31249 -20090598.74247  21086573.749    21086579.767
  20570161.543   -25964962.09249 -20201310.33548  20570160.944    20570166.680
  20835329.316   -27459182.53749 -21091652.16248  20835328.592    20835334.813
  23050377.491   -15394952.01849 -11742300.29346  23050377.206    23050383.324
  21608430.262   -21756809.22849 -16644102.65647  21608430.235    21608436.090
  21652802.150   -21505501.98549 -16697393.09947  21652801.387    21652807.852
  21064695.201   -24639211.96649 -19171439.09247  21064694.675    21064699.609
  23577348.395   -10485506.80249  -7852146.93745  23577347.892    23577354.354
 03  2 26  0 43 30.0000000  0  8G 6G23G17G29G26G15G18G16
  21098744.710   -25749699.10749 -20040761.97447  21098744.443    21098750.403
  20571964.634   -25955486.69549 -20193926.88948  20571964.046    20571969.785
  20832760.654   -27472680.86549 -21102170.31748  20832759.940    20832766.121
  23058932.930   -15349992.96349 -11707267.25546  23058932.613    23058938.711
  21611208.557   -21742209.02249 -16632725.84747  21611208.532    21611214.407
  21642433.296   -21559990.42349 -16739851.58447  21642432.506    21642439.002
  21055151.935   -24689362.04749 -19210517.04247  21055151.402    21055156.347
  23576622.234   -10489322.58249  -7855120.27845  23576621.764    23576628.216
 03  2 26  0 44  0.0000000  0  8G 6G23G17G29G26G15G18G16
  21110998.746   -25685303.76249 -19990583.79847  21110998.480    21111004.425
  20573843.721   -25945611.91649 -20186232.23148  20573843.125    20573848.866
  20830224.160   -27486010.26449 -21112556.83848  20830223.426    20830229.593
  23067583.250   -15304534.88549 -11671845.36246  23067582.945    23067589.107
  21614111.887   -21726951.86549 -16620837.12947  21614111.852    21614117.669
  21632089.751   -21614345.91849 -16782206.47947  21632088.957    21632095.498
  21045685.286   -24739109.39549 -19249281.16947  21045684.736    21045689.710
  23575996.866   -10492608.97249  -7857681.09745  23575996.348    23576002.772
 03  2 26  0 44 30.0000000  0  8G 6G23G17G29G26G15G18G16
  21123335.742   -25620472.50349 -19940065.94447  21123335.459    21123341.418
  20575798.408   -25935339.98149 -20178228.10848  20575797.802    20575803.534
  20827719.739   -27499171.00149 -21122811.92948  20827719.010    20827725.192
  23076328.099   -15258580.06349 -11636036.39846  23076327.841    23076334.019
  21617140.024   -21711038.82449 -16608437.33147  21617140.005    21617145.762
  21621771.370   -21668568.99949 -16824458.19547  21621770.590    21621777.161
  21036295.090   -24788454.77449 -19287732.07647  21036294.556    21036299.541
  23575471.948   -10495367.38749  -7859830.51445  23575471.461    23575477.896
 03  2 26  0 45  0.0000000  0  8G 6G23G17G29G26G15G18G16
  21135755.534   -25555206.10449 -19889209.02547  21135755.251    21135761.248
  20577828.492   -25924671.82649 -20169915.24148  20577827.886    20577833.623
  20825247.632   -27512161.88349 -21132934.66848  20825246.902    20825253.075
  23085167.370   -15212129.47749 -11599841.13546  23085167.111    23085173.241
  21620293.028   -21694469.56349 -16595526.20247  21620292.983    21620298.768
  21611478.438   -21722658.69149 -16866605.97047  21611477.615    21611484.175
  21026981.583   -24837397.35149 -19325869.10147  21026981.044    21026986.025
  23575047.511   -10497597.97549  -7861568.63345  23575047.055    23575053.437
 03  2 26  0 45 30.0000000  0  8G 6G23G17G29G26G15G18G16
  21148257.837   -25489506.04149 -19838014.18047  21148257.566    21148263.551
  20579933.593   -25913609.13749 -20161294.94948  20579932.989    20579938.720
  20822807.921   -27524982.54949 -21142924.77248  20822807.201    20822813.366
  23094100.672   -15165184.63549 -11563260.72346  23094100.417    23094106.570
  21623570.774   -21677244.71249 -16582104.22347  21623570.744    21623576.498
  21601210.944   -21776614.68349 -16908649.56447  21601210.133    21601216.658
  21017744.774   -24885937.15149 -19363692.27947  21017744.258    21017749.182
  23574723.333   -10499301.56749  -7862896.10945  23574722.919    23574729.281
 03  2 26  0 46  0.0000000  0  8G 6G23G17G29G26G15G18G16
  21160842.599   -25423372.76149 -19786481.76747  21160842.314    21160848.312
  20582113.652   -25902152.75249 -20152367.88048  20582113.050    20582118.773
  20820400.672   -27537632.59849 -21152781.92548  20820399.947    20820406.128
  23103127.868   -15117746.12249 -11526295.63046  23103127.638    23103133.836
  21626973.377   -21659363.79949 -16568171.03247  21626973.328    21626979.093
  21590969.113   -21830435.80449 -16950588.06047  21590968.284    21590974.775
  21008584.851   -24934072.77149 -19401200.51147  21008584.330    21008589.221
  23574499.446   -10500477.94549  -7863812.77645  23574499.014    23574505.400
 03  2 26  0 46 30.0000000  0  8G 6G23G17G29G26G15G18G16
  21173509.181   -25356809.46549 -19734614.27847  21173508.885    21173514.911
  20584368.026   -25890306.02649 -20143136.65048  20584367.419    20584373.136
  20818025.780   -27550112.70249 -21162506.65748  20818025.031    20818031.215
  23112248.358   -15069817.46149 -11488948.62646  23112248.153    23112254.353
  21630500.357   -21640829.15949 -16553728.44547  21630500.336    21630506.103
  21580752.642   -21884123.58149 -16992422.64447  21580751.807    21580758.308
  20999501.411   -24981806.15549 -19438395.31147  20999500.888    20999505.814
  23574375.424   -10501129.63249  -7864320.58945  23574375.000    23574381.325
 03  2 26  0 47  0.0000000  0  8G 6G23G17G29G26G15G18G16
  21186257.654   -25289815.86549 -19682411.48647  21186257.359    21186263.418
  20586696.710   -25878068.63449 -20133601.00348  20586696.097    20586701.814
  20815683.631   -27562420.72149 -21172097.29848  20815682.873    20815689.057
  23121462.193   -15021398.30849 -11451219.40146  23121461.965    23121468.184
  21634152.006   -21621639.50349 -16538775.45447  21634151.988    21634157.747
  21570561.970   -21937675.69249 -17034151.51847  21570561.141    21570567.658
  20990494.965   -25029135.17649 -19475275.02247  20990494.453    20990499.380
  23574351.401   -10501255.76449  -7864418.87545  23574350.996    23574357.314
 03  2 26  0 47 30.0000000  0  8G 6G23G17G29G26G15G18G16
  21199087.637   -25222393.81549 -19629874.83647  21199087.347    21199093.438
  20589099.358   -25865442.54949 -20123762.48148  20589098.744    20589104.482
  20813374.187   -27574556.59949 -21181553.80248  20813373.441    20813379.639
  23130768.971   -14972490.81849 -11413109.66046  23130768.752    23130775.014
  21637928.126   -21601795.83949 -16523312.84747  21637928.094    21637933.853
  21560397.084   -21991092.37249 -17075774.86447  21560396.238    21560402.762
  20981565.386   -25076060.33049 -19511840.03747  20981564.845    20981569.756
  23574427.160   -10500857.57249  -7864108.59145  23574426.754    23574433.073
 03  2 26  0 48  0.0000000  0  8G 6G23G17G29G26G15G18G16
  21211998.781   -25154545.10049 -19577005.72347  21211998.509    21212004.625
  20591575.599   -25852429.67949 -20113622.57048  20591574.999    20591580.735
  20811097.474   -27586520.55949 -21190876.35148  20811096.748    20811102.965
  23140168.373   -14923096.79649 -11374620.79746  23140168.105    23140174.330
  21641828.506   -21581299.02849 -16507341.29047  21641828.484    21641834.228
  21550257.931   -22044373.68349 -17117292.72447  21550257.088    21550263.631
  20972712.633   -25122581.70949 -19548090.42247  20972712.114    20972716.990
  23574602.562   -10499935.96249  -7863390.46545  23574602.132    23574608.497
 03  2 26  0 48 30.0000000  0  8G 6G23G17G29G26G15G18G16
  21224991.042   -25086270.34249 -19523804.62147  21224990.775    21224996.927
  20594125.260   -25839030.96549 -20103181.99848  20594124.674    20594130.397
  20808853.804   -27598310.99149 -21200063.68548  20808853.101    20808859.299
  23149660.120   -14873217.20049 -11335753.57246  23149659.874    23149666.032
  21645853.191   -21560148.99949 -16490860.73247  21645853.198    21645858.937
  21540144.838   -22097518.30149 -17158704.07347  21540144.009    21540150.514
  20963936.856   -25168698.79949 -19584025.77847  20963936.319    20963941.145
  23574877.478   -10498491.17149  -7862264.66145  23574877.022    23574883.472
 03  2 26  0 49  0.0000000  0  8G 6G23G17G29G26G15G18G16
  21238064.116   -25017570.91349 -19470272.60747  21238063.844    21238069.988
  20596748.168   -25825247.64449 -20092441.73248  20596747.578    20596753.296
  20806643.270   -27609927.51149 -21209115.50848  20806642.531    20806648.757
  23159244.030   -14822853.47249 -11296509.09446  23159243.799    23159249.897
  21650002.110   -21538346.36249 -16473871.64647  21650002.086    21650007.810
  21530057.878   -22150525.56049 -17200008.39047  21530057.022    21530063.516
  20955238.086   -25214411.19049 -19619645.78847  20955237.521    20955242.329
  23575251.815   -10496523.79349  -7860731.64045  23575251.403    23575257.901
 03  2 26  0 49 30.0000000  0  8G 6G23G17G29G26G15G18G16
  21251217.589   -24948449.05749 -19416411.42247  21251217.288    21251223.420
  20599443.755   -25811082.17349 -20081403.68448  20599443.142    20599448.885
  20804465.757   -27621370.17149 -21218031.85048  20804465.049    20804471.240
  23168919.596   -14772007.89549 -11256889.15846  23168919.381    23168925.504
  21654274.973   -21515892.29349 -16456374.95047  21654274.967    21654280.700
  21519996.904   -22203395.92749 -17241206.03147  21519996.087    21520002.601
  20946616.147   -25259719.49649 -19654950.92847  20946615.590    20946620.398
  23575725.303   -10494035.81449  -7858792.96145  23575724.856    23575731.277
 03  2 26  0 50  0.0000000  0  8G 6G23G17G29G26G15G18G16
  21264451.246   -24878905.63349 -19362221.74547  21264450.957    21264457.104
  20602211.878   -25796535.59249 -20070068.66748  20602211.276    20602216.999
  20802321.486   -27632638.23349 -21226812.14648  20802320.783    20802326.975
  23178686.746   -14720681.63549 -11216894.66946  23178686.519    23178692.593
  21658671.741   -21492787.12149 -16438370.89947  21658671.724    21658677.460
  21509962.135   -22256128.57849 -17282296.36647  21509961.344    21509967.865
  20938071.218   -25304623.25749 -19689940.83847  20938070.675    20938075.463
  23576297.845   -10491027.32549  -7856448.69445  23576297.389    23576303.807
 03  2 26  0 50 30.0000000  0  8G 6G23G17G29G26G15G18G16
  21277764.956   -24808941.75949 -19307704.44947  21277764.660    21277770.804
  20605052.289   -25781609.07449 -20058437.59748  20605051.680    20605057.388
  20800210.672   -27643730.68949 -21235455.60848  20800209.974    20800216.148
  23188545.076   -14668876.12149 -11176526.72246  23188544.824    23188550.830
  21663192.382   -21469030.92149 -16419859.54047  21663192.364    21663198.093
  21499953.803   -22308722.40349 -17323278.52747  21499953.052    21499959.545
  20929603.435   -25349121.79649 -19724614.99247  20929602.878    20929607.643
  23576969.322   -10487498.71449  -7853699.13245  23576968.844    23576975.270
 03  2 26  0 51  0.0000000  0  9G 6G23G17G29G26G15G18G 2G16
  21291156.858   -24738566.99449 -19252866.98247  21291156.549    21291162.673
  20607963.097   -25766312.50649 -20046518.17848  20607962.495    20607968.206
  20798131.750   -27654655.51649 -21243968.45548  20798131.043    20798137.222
  23198492.701   -14616600.95949 -11135792.81446  23198492.468    23198498.436
  21667835.122   -21444632.88449 -16400848.06047  21667835.120    21667840.872
  21489970.416   -22361185.28449 -17364158.66047  21489969.644    21489976.137
  20921211.137   -25393223.32749 -19758979.79547  20921210.607    20921215.377
  25114956.448    -4147986.15249  -3020467.73545  25114955.708    25114964.731
  23577738.042   -10483459.05749  -7850551.35945  23577737.562    23577744.032
 03  2 26  0 51 30.0000000  0  9G 6G23G17G29G26G15G18G 2G16
  21304628.849   -24667771.19349 -19197701.43747  21304628.533    21304634.635
  20610946.341   -25750635.58649 -20034302.38348  20610945.719    20610951.431
  20796087.149   -27665399.92849 -21252340.71948  20796086.439    20796092.588
  23208531.635   -14563846.12149 -11094685.14246  23208531.398    23208537.396
  21672602.199   -21419581.65149 -16381327.59447  21672602.180    21672607.951
  21480014.355   -22413504.73749 -17404927.03447  21480013.576    21480020.040
  20912896.659   -25436916.05049 -19793026.05048  20912896.113    20912900.883
  25110020.768    -4173923.28649  -3040678.51745  25110020.054    25110029.048
  23578605.982   -10478897.72749  -7846997.07745  23578605.560    23578611.981
 03  2 26  0 52  0.0000000  0  9G 6G23G17G29G26G15G18G 2G16
  21318180.174   -24596558.50549 -19142211.03647  21318179.851    21318185.965
  20614001.109   -25734582.51249 -20021793.47348  20614000.484    20614006.199
  20794076.436   -27675966.31949 -21260574.26448  20794075.701    20794081.868
  23218661.009   -14510615.77949 -11053206.95046  23218660.756    23218666.762
  21677492.938   -21393880.78949 -16361300.92147  21677492.884    21677498.648
  21470085.176   -22465683.01449 -17445585.39947  21470084.380    21470090.794
  20904659.556   -25480202.19249 -19826755.48648  20904659.016    20904663.775
  25105165.220    -4199439.17949  -3060561.02745  25105164.597    25105173.562
  23579572.680   -10473818.15049  -7843038.97245  23579572.162    23579578.616
 03  2 26  0 52 30.0000000  0  9G 6G23G17G29G26G15G18G 2G16
  21331810.592   -24524930.17849 -19086396.76347  21331810.305    21331816.415
  20617127.215   -25718154.62149 -20008992.50048  20617126.590    20617132.284
  20792099.648   -27686354.07349 -21268668.61048  20792098.949    20792105.125
  23228880.546   -14456911.54649 -11011359.47946  23228880.281    23228886.349
  21682507.113   -21367530.83949 -16340768.46747  21682507.073    21682512.835
  21460182.978   -22517719.38249 -17486133.18347  21460182.155    21460188.559
  20896499.819   -25523081.83149 -19860168.16848  20896499.285    20896503.998
  25100389.938    -4224533.68449  -3080115.21345  25100389.272    25100398.175
  23580637.754   -10468221.01449  -7838677.57145  23580637.284    23580643.712
 03  2 26  0 53  0.0000000  0  9G 6G23G17G29G26G15G18G 2G16
  21345519.686   -24452888.58349 -19030260.46047  21345519.374    21345525.467
  20620324.155   -25701354.41349 -19995901.40748  20620323.537    20620329.237
  20790156.929   -27696563.36549 -21276623.89348  20790156.204    20790162.363
  23239189.808   -14402735.79349 -10969144.60146  23239189.574    23239195.669
  21687644.526   -21340533.51549 -16319731.56847  21687644.486    21687650.253
  21450307.692   -22569614.27949 -17526570.73447  21450306.862    21450313.259
  20888417.316   -25565555.55249 -19893264.55248  20888416.790    20888421.481
  25095694.708    -4249207.41649  -3099341.50145  25095694.062    25095702.921
  23581801.035   -10462108.30649  -7833914.43345  23581800.589    23581806.977
 03  2 26  0 53 30.0000000  0  9G 6G23G17G29G26G15G18G 2G16
  21359307.044   -24380435.58849 -18973803.59447  21359306.720    21359312.802
  20623591.598   -25684183.83249 -19982521.71248  20623590.995    20623596.666
  20788248.204   -27706593.77749 -21284439.78648  20788247.466    20788253.613
  23249588.334   -14348090.84749 -10926564.12246  23249588.145    23249594.208
  21692904.890   -21312889.91249 -16298191.07747  21692904.864    21692910.630
  21440459.392   -22621367.38049 -17566897.79647  21440458.559    21440464.940
  20880412.019   -25607623.71949 -19926044.91748  20880411.492    20880416.160
  25091079.509    -4273460.32549  -3118239.87445  25091078.757    25091087.643
  23583062.144   -10455481.06649  -7828750.36045  23583061.706    23583068.136
 03  2 26  0 54  0.0000000  0  9G 6G23G17G29G26G15G18G 2G16
  21373172.395   -24307572.57049 -18917027.23347  21373172.091    21373178.180
  20626929.268   -25666644.15849 -19968854.41648  20626928.654    20626934.316
  20786373.651   -27716444.59249 -21292115.73648  20786372.904    20786379.078
  23260075.917   -14292978.02649 -10883619.05646  23260075.745    23260081.812
  21698288.104   -21284600.72849 -16276147.52847  21698288.088    21698293.888
  21430638.177   -22672978.01749 -17607113.85147  21430637.358    21430643.720
  20872483.865   -25649286.28149 -19958509.23248  20872483.321    20872488.016
  25086544.472    -4297292.00549  -3136810.03945  25086543.777    25086552.538
  23584420.966   -10448340.26049  -7823186.09145  23584420.515    23584426.982
 03  2 26  0 54 30.0000000  0  9G 6G23G17G29G26G15G18G 2G16
  21387115.468   -24234301.21449 -18859932.67047  21387115.158    21387121.246
  20630336.873   -25648737.13149 -19954900.86048  20630336.236    20630341.898
  20784533.360   -27726115.39849 -21299651.41048  20784532.617    20784538.771
  23270652.171   -14237399.16949 -10840310.84746  23270651.953    23270658.130
  21703793.983   -21255667.12349 -16253601.82547  21703793.976    21703799.767
  21420844.141   -22724445.82749 -17647218.59947  21420843.359    21420849.706
  20864632.864   -25690543.39449 -19990657.60048  20864632.336    20864637.031
  25082089.621    -4320702.54549  -3155052.01945  25082088.942    25082097.663
  23585877.265   -10440687.33849  -7817222.77845  23585876.797    23585883.315
 03  2 26  0 55  0.0000000  0  9G 6G23G17G29G26G15G18G 2G16
  21401135.928   -24160623.29549 -18802521.32447  21401135.632    21401141.713
  20633813.957   -25630464.70249 -19940662.58448  20633813.348    20633819.008
  20782727.329   -27735606.17749 -21307046.80648  20782726.598    20782732.720
  23281316.755   -14181356.50149 -10796641.22846  23281316.520    23281322.673
  21709422.304   -21226090.14949 -16230554.80947  21709422.270    21709428.037
  21411077.354   -22775770.36149 -17687211.71447  21411076.560    21411082.915
  20856858.977   -25731395.26949 -20022490.21148  20856858.447    20856863.143
  25077714.829    -4343692.00149  -3172965.88045  25077713.910    25077722.874
  23587430.893   -10432523.36949  -7810861.25045  23587430.421    23587436.916
 03  2 26  0 55 30.0000000  0  9G 6G23G17G29G26G15G18G 2G16
  21415233.359   -24086540.93249 -18744794.81647  21415233.063    21415239.117
  20637360.221   -25611828.81349 -19926141.09048  20637359.613    20637365.269
  20780955.579   -27744916.59749 -21314301.66148  20780954.844    20780960.959
  23292069.238   -14124851.98549 -10752611.72046  23292068.996    23292075.134
  21715172.758   -21195871.30049 -16207007.62847  21715172.699    21715178.458
  21401337.882   -22826951.64249 -17727093.19847  21401337.083    21401343.419
  20849162.147   -25771842.31949 -20054007.36548  20849161.596    20849166.302
  25073420.033    -4366260.75249  -3190551.90845  25073419.213    25073428.134
  23589081.430   -10423849.79449  -7804102.62745  23589080.910    23589087.455
 03  2 26  0 56  0.0000000  0  9G 6G23G17G29G26G15G18G 2G16
  21429407.619   -24012054.82249 -18686753.70447  21429407.320    21429413.389
  20640975.507   -25592830.37049 -19911337.08248  20640974.900    20640980.548
  20779218.508   -27754044.87249 -21321414.57748  20779217.777    20779223.881
  23302909.366   -14067886.73849 -10708223.19846  23302909.122    23302915.219
  21721045.342   -21165010.46249 -16182960.18747  21721045.313    21721051.003
  21391625.932   -22877988.28849 -17766861.97947  21391625.136    21391631.430
  20841542.494   -25811883.79149 -20085208.48148  20841541.961    20841546.669
  25069205.687    -4388407.89749  -3207809.42045  25069204.981    25069213.683
  23590828.846   -10414667.05049  -7796947.24745  23590828.359    23590834.867
 03  2 26  0 56 30.0000000  0  9G 6G23G17G29G26G15G18G 2G16
  21443658.331   -23937166.89449 -18628399.48647  21443658.024    21443664.095
  20644659.387   -25573471.32649 -19896252.09748  20644658.770    20644664.420
  20777516.141   -27762990.90149 -21328385.48848  20777515.395    20777521.501
  23313836.728   -14010462.69849 -10663477.18046  23313836.587    23313842.617
  21727039.871   -21133509.18849 -16158413.70647  21727039.813    21727045.484
  21381941.564   -22928879.95049 -17806517.79247  21381940.750    21381947.023
  20833999.997   -25851519.87749 -20116093.71248  20833999.452    20834004.151
  25065071.459    -4410133.65249  -3224738.56945  25065070.793    25065079.591
  23592672.826   -10404976.66549  -7789396.31145  23592672.412    23592678.887
 03  2 26  0 57  0.0000000  0  9G 6G23G17G29G26G15G18G 2G16
  21457985.094   -23861879.20449 -18569733.76547  21457984.806    21457990.868
  20648411.499   -25553753.78749 -19880887.76648  20648410.873    20648416.520
  20775848.525   -27771754.18049 -21335214.00048  20775847.810    20775853.884
  23324851.021   -13952582.13749 -10618375.41846  23324850.832    23324856.949
  21733155.906   -21101368.85549 -16133369.26047  21733155.859    21733161.516
  21372284.738   -22979626.68949 -17846060.67747  21372283.946    21372290.192
  20826534.482   -25890751.24949 -20146663.58448  20826533.931    20826538.637
  25061017.171    -4431438.41549  -3241339.66645  25061016.500    25061025.497
  23594613.201   -10394779.93649  -7781450.81945  23594612.790    23594619.296
 03  2 26  0 57 30.0000000  0  9G 6G23G17G29G26G15G18G 2G16
  21472387.868   -23786192.32749 -18510756.98847  21472387.575    21472393.635
  20652231.666   -25533678.36649 -19865244.56448  20652231.058    20652236.703
  20774215.898   -27780333.62249 -21341899.25548  20774215.180    20774221.229
  23335951.948   -13894246.04949 -10572918.69546  23335951.777    23335957.883
  21739393.571   -21068589.50949 -16107826.88247  21739393.531    21739399.176
  21362655.873   -23030226.56549 -17885489.11547  21362655.092    21362661.339
  20819146.204   -25929576.75049 -20176917.18848  20819145.655    20819150.353
  25057043.311    -4452321.00249  -3257611.82945  25057042.570    25057051.676
  23596649.993   -10384077.03449  -7773110.91145  23596649.520    23596655.985
 03  2 26  0 58  0.0000000  0  9G 6G23G17G29G26G15G18G 2G16
  21486866.149   -23710108.54149 -18451470.93647  21486865.862    21486871.911
  20656119.578   -25513247.29049 -19849324.22948  20656118.966    20656124.604
  20772618.296   -27788729.04649 -21348441.12448  20772617.566    20772623.615
  23347139.152   -13835456.72949 -10527108.82346  23347139.002    23347145.120
  21745752.538   -21035172.90049 -16081787.94147  21745752.489    21745758.119
  21353054.908   -23080679.78849 -17924803.28647  21353054.138    21353060.369
  20811834.987   -25967997.25049 -20206855.20848  20811834.457    20811839.145
  25053149.735    -4472781.99949  -3273555.44245  25053148.926    25053158.050
  23598782.697   -10372869.82349  -7764378.02645  23598782.223    23598788.687
 03  2 26  0 58 30.0000000  0  9G 6G23G17G29G26G15G18G 2G16
  21501419.501   -23633630.17949 -18391877.43147  21501419.197    21501425.251
  20660074.685   -25492462.99249 -19833128.65548  20660074.068    20660079.716
  20771055.705   -27796940.24549 -21354839.44548  20771054.998    20771061.046
  23358412.295   -13776216.60949 -10480947.67546  23358412.058    23358418.123
  21752232.386   -21001120.85549 -16055253.85947  21752232.303    21752237.966
  21343481.850   -23130986.50949 -17964003.29047  21343481.056    21343487.296
  20804600.729   -26006013.37549 -20236478.12648  20804600.205    20804604.889
  25049336.270    -4492822.08449  -3289171.08545  25049335.566    25049344.514
  23601010.908   -10361160.10549  -7755253.57745  23601010.441    23601016.980
 03  2 26  0 59  0.0000000  0  9G 6G23G17G29G26G15G18G 2G16
  21516047.917   -23556757.36349 -18331976.54747  21516047.640    21516053.689
  20664096.995   -25471325.42949 -19816657.80948  20664096.394    20664102.040
  20769528.592   -27804965.23349 -21361092.65848  20769527.915    20769533.955
  23369771.109   -13716526.15249 -10434435.61346  23369770.794    23369776.831
  21758833.181   -20966433.05849 -16028224.38147  21758833.143    21758838.812
  21333937.075   -23181144.51949 -18003087.41647  21333936.283    21333942.493
  20797443.630   -26043623.98849 -20265785.06048  20797443.100    20797447.798
  25045603.154    -4512439.71249  -3304457.52645  25045602.490    25045611.281
  23603334.829   -10348947.82149  -7745737.52645  23603334.432    23603340.937
 03  2 26  0 59 30.0000000  0  9G 6G23G17G29G26G15G18G 2G16
  21530750.793   -23479493.37749 -18271770.85247  21530750.482    21530756.553
  20668185.939   -25449837.90349 -19799914.26548  20668185.323    20668190.960
  20768036.747   -27812805.06049 -21367201.59348  20768036.038    20768042.075
  23381214.792   -13656388.81549 -10387575.34046  23381214.522    23381220.610
  21765554.530   -20931112.10649 -16000701.54247  21765554.500    21765560.138
  21324420.385   -23231154.94149 -18042056.53847  21324419.582    21324425.772
  20790363.419   -26080830.49749 -20294777.10548  20790362.901    20790367.588
  25041950.082    -4531636.59449  -3319416.11145  25041949.490    25041958.051
  23605753.994   -10336235.63549  -7735831.92545  23605753.447    23605759.982
 03  2 26  1  0  0.0000000  0  9G 6G23G17G29G26G15G18G 2G16
  21545527.913   -23401838.96549 -18211260.93847  21545527.622    21545533.707
  20672341.350   -25428001.15049 -19782898.59948  20672340.736    20672346.361
  20766580.405   -27820457.99949 -21373164.90348  20766579.696    20766585.740
  23392743.331   -13595805.57949 -10340367.61146  23392743.062    23392749.251
  21772396.339   -20895158.22249 -15972685.51647  21772396.314    21772401.893
  21314932.135   -23281016.00949 -18080909.28447  21314931.340    21314937.484
  20783360.262   -26117632.14949 -20323453.68148  20783359.750    20783364.426
  25038377.297    -4550411.78749  -3334046.12245  25038376.713    25038385.261
  23608268.095   -10323023.87449  -7725537.06245  23608267.586    23608274.182
 03  2 26  1  0 30.0000000  0  9G 6G23G17G29G26G15G18G 2G16
  21560379.018   -23323795.83349 -18150448.12647  21560378.740    21560384.830
  20676562.860   -25405816.76149 -19765612.05148  20676562.264    20676567.881
  20765159.796   -27827923.20049 -21378981.92348  20765159.090    20765165.131
  23404356.350   -13534778.18749 -10292813.79446  23404356.102    23404362.343
  21779358.351   -20858572.67249 -15944177.28347  21779358.304    21779363.866
  21305472.399   -23330727.06049 -18119645.12847  21305471.599    21305477.768
  20776434.203   -26154028.79849 -20351814.66848  20776433.674    20776438.349
  25034884.769    -4568765.18849  -3348347.45145  25034884.061    25034892.745
  23610876.990   -10309313.78349  -7714853.87145  23610876.490    23610883.110
 03  2 26  1  1  0.0000000  0  9G 6G23G17G29G26G15G18G 2G16
  21575303.660   -23245366.17549 -18089334.13447  21575303.388    21575309.505
  20680850.210   -25383286.69549 -19748056.14248  20680849.586    20680855.222
  20763774.899   -27835200.78649 -21384652.75248  20763774.188    20763780.228
  23416053.635   -13473308.81849 -10244915.56346  23416053.373    23416059.562
  21786440.199   -20821357.07749 -15915178.11047  21786440.172    21786445.714
  21296041.293   -23380287.68549 -18158263.75747  21296040.498    21296046.671
  20769585.013   -26190021.31549 -20379860.74348  20769584.486    20769589.165
  25031472.450    -4586697.23249  -3362320.45845  25031471.574    25031480.308
  23613580.375   -10295107.03749  -7703783.69245  23613579.959    23613586.637
 03  2 26  1  1 30.0000000  0  9G 6G23G17G29G26G15G18G 2G16
  21590301.580   -23166551.60749 -18027920.21647  21590301.296    21590307.409
  20685203.003   -25360412.49349 -19730232.07948  20685202.392    20685208.005
  20762425.957   -27842289.49449 -21390176.40548  20762425.262    20762431.291
  23427834.642   -13411399.37049 -10196674.43246  23427834.358    23427840.508
  21793641.806   -20783512.46749 -15885688.79547  21793641.776    21793647.278
  21286638.991   -23429697.00449 -18196764.49347  21286638.217    21286644.351
  20762812.738   -26225609.66449 -20407591.88848  20762812.214    20762816.878
  25028140.249    -4604207.88549  -3375965.11345  25028139.370    25028148.202
  23616378.111   -10280404.61349  -7692327.26145  23616377.682    23616384.403
 03  2 26  1  2  0.0000000  0  9G 6G23G17G29G26G15G18G 2G16
  21605372.429   -23087353.74549 -17966207.62147  21605372.172    21605378.313
  20689620.977   -25337195.90149 -19712141.21548  20689620.364    20689625.955
  20761113.027   -27849188.95349 -21395552.59348  20761112.301    20761118.373
  23439698.995   -13349051.83649 -10148091.90946  23439698.724    23439704.820
  21800962.814   -20745040.22249 -15855710.40447  21800962.787    21800968.322
  21277265.536   -23478954.60849 -18235147.00347  21277264.746    21277270.929
  20756117.381   -26260794.03249 -20435008.24248  20756116.859    20756121.485
  25024888.188    -4621297.24049  -3389281.47645  25024887.410    25024896.197
  23619269.961   -10265208.07149  -7680485.80145  23619269.450    23619276.185
 03  2 26  1  2 30.0000000  0  9G 6G23G17G29G26G15G18G 2G16
  21620515.832   -23007774.68749 -17904197.98647  21620515.559    21620521.722
  20694103.704   -25313638.93449 -19693785.12148  20694103.081    20694108.669
  20759836.180   -27855898.62249 -21400780.88748  20759835.465    20759841.515
  23451646.184   -13286268.66449 -10099169.93846  23451645.973    23451651.985
  21808402.936   -20705942.18049 -15825244.38147  21808402.937    21808408.409
  21267921.024   -23528060.14649 -18273411.01947  21267920.255    21267926.426
  20749498.741   -26295574.95849 -20462110.21848  20749498.211    20749502.842
  25021716.190    -4637965.63649  -3402269.81945  25021715.497    25021724.076
  23622255.415   -10249519.14949  -7668260.67645  23622254.873    23622261.730
 03  2 26  1  3  0.0000000  0  9G 6G23G17G29G26G15G18G 2G16
  21635731.587   -22927815.26349 -17841891.96147  21635731.325    21635737.495
  20698651.093   -25289742.21249 -19675164.28748  20698650.482    20698656.068
  20758595.772   -27862417.04049 -21405860.15548  20758595.064    20758601.085
  23463676.184   -13223050.52349 -10049909.03546  23463675.985    23463681.977
  21815962.126   -20666218.50649 -15794290.85547  21815962.094    21815967.590
  21258605.828   -23577011.88849 -18311555.20147  21258605.054    21258611.175
  20742957.047   -26329951.67049 -20488897.23048  20742956.530    20742961.139
  25018624.397    -4654212.32749  -3414929.55445  25018623.767    25018632.361
  23625334.487   -10233338.22649  -7655652.16845  23625333.961    23625340.803
 03  2 26  1  3 30.0000000  0  9G 6G23G17G29G26G15G18G 2G16
  21651019.171   -22847478.53149 -17779291.93847  21651018.921    21651025.087
  20703262.535   -25265508.83749 -19656281.12748  20703261.920    20703267.496
  20757391.637   -27868744.69149 -21410790.77748  20757390.917    20757396.957
  23475788.225   -13159400.84849 -10000311.87846  23475788.060    23475794.094
  21823639.802   -20625871.97649 -15762851.98347  21823639.779    21823645.233
  21249319.725   -23625810.72749 -18349580.22947  21249318.923    21249325.012
  20736492.034   -26363925.64149 -20515370.42048  20736491.486    20736496.073
  25015612.813    -4670038.74749  -3427261.82245  25015612.113    25015620.663
  23628506.699   -10216668.03949  -7642662.41745  23628506.205    23628513.084
 03  2 26  1  4  0.0000000  0  9G 6G23G17G29G26G15G18G 2G16
  21666378.398   -22766765.56349 -17716398.73647  21666378.129    21666384.277
  20707937.878   -25240939.83749 -19637136.43848  20707937.253    20707942.828
  20756224.125   -27874879.88749 -21415571.43748  20756223.406    20756229.446
  23487982.229   -13095320.95049  -9950379.47746  23487982.048    23487988.128
  21831435.785   -20584903.44449 -15730928.44447  21831435.801    21831441.294
  21240062.961   -23674455.22349 -18387484.99147  21240062.181    21240068.244
  20730103.688   -26397496.49049 -20541529.48548  20730103.138    20730107.709
  25012681.091    -4685444.54049  -3439266.31045  25012680.462    25012689.261
  23631771.955   -10199509.38949  -7629292.04245  23631771.385    23631778.185
 03  2 26  1  4 30.0000000  0  9G 6G23G17G29G26G15G18G 2G16
  21681808.904   -22685677.82549 -17653213.50447  21681808.646    21681814.761
  20712676.774   -25216036.57649 -19617731.28548  20712676.173    20712681.727
  20755093.291   -27880822.34249 -21420201.91048  20755092.588    20755098.615
  23500257.848   -13030812.48049  -9900113.12146  23500257.630    23500263.625
  21839350.032   -20543313.82949 -15698520.93147  21839350.033    21839355.555
  21230835.756   -23722944.33149 -18425268.66847  21230834.969    21230841.030
  20723792.127   -26430663.74449 -20567374.05748  20723791.588    20723796.137
  25009829.520    -4700429.48849  -3450942.89345  25009828.825    25009837.512
  23635129.859   -10181863.34649  -7615541.87245  23635129.261    23635136.128
 03  2 26  1  5  0.0000000  0  9G 6G23G17G29G26G15G18G 2G16
  21697310.155   -22604218.54549 -17589738.76947  21697309.885    21697316.005
  20717478.735   -25190801.96149 -19598067.93848  20717478.138    20717483.678
  20753999.200   -27886572.00049 -21424682.15848  20753998.496    20754004.483
  23512614.409   -12965878.63949  -9849515.31846  23512614.156    23512620.148
  21847381.925   -20501105.91149 -15665631.62847  21847381.922    21847387.444
  21221638.038   -23771278.53449 -18462931.64847  21221637.256    21221643.298
  20717556.998   -26463429.36649 -20592905.67848  20717556.464    20717561.030
  25007057.902    -4714995.00649  -3462292.61845  25007057.145    25007065.861
  23638579.976   -10163732.61449  -7601414.03645  23638579.462    23638586.352
 03  2 26  1  5 30.0000000  0  9G 6G23G17G29G26G15G18G 2G16
  21712881.899   -22522388.59349 -17525975.18347  21712881.615    21712887.740
  20722343.588   -25165236.83849 -19578147.03948  20722342.981    20722348.544
  20752942.051   -27892127.22449 -21429010.89048  20752941.338    20752947.326
  23525051.630   -12900520.61249  -9798586.97546  23525051.365    23525057.359
  21855531.420   -20458280.27349 -15632260.98147  21855531.400    21855536.899
  21212470.075   -23819456.27449 -18500472.69447  21212469.293    21212475.358
  20711398.429   -26495792.63649 -20618123.76548  20711397.888    20711402.435
  25004366.163    -4729140.43949  -3473314.99745  25004365.308    25004374.246
  23642122.275   -10145117.88449  -7586909.06045  23642121.690    23642128.584
 03  2 26  1  6  0.0000000  0  9G 6G23G17G29G26G15G18G 2G16
  21728523.788   -22440189.90849 -17461924.28447  21728523.506    21728529.615
  20727271.008   -25139343.07649 -19557970.06948  20727270.409    20727275.968
  20751921.940   -27897487.97849 -21433188.08848  20751921.234    20751927.219
  23537569.166   -12834740.45749  -9747329.70346  23537568.870    23537574.909
  21863798.089   -20414838.61549 -15598410.32547  21863798.047    21863803.581
  21203332.047   -23867476.80549 -18537891.24847  21203331.259    21203337.323
  20705316.347   -26527753.89949 -20643028.60948  20705315.828    20705320.369
  25001754.264    -4742866.04449  -3484010.25845  25001753.477    25001762.362
  23645756.293   -10126020.72949  -7572028.16645  23645755.794    23645762.674
 03  2 26  1  6 30.0000000  0  9G 6G23G17G29G26G15G18G 2G16
  21744235.554   -22357623.86749 -17397587.13447  21744235.299    21744241.457
  20732260.731   -25113121.85249 -19537537.92848  20732260.105    20732265.676
  20750939.214   -27902652.36449 -21437212.27348  20750938.514    20750944.457
  23550166.734   -12768539.76949  -9695744.73946  23550166.459    23550172.490
  21872181.802   -20370781.78449 -15564080.31147  21872181.764    21872187.286
  21194224.140   -23915339.04649 -18575186.45947  21194223.344    21194229.402
  20699310.895   -26559312.59149 -20667619.75948  20699310.366    20699314.920
  24999222.253    -4756171.59349  -3494378.19045  24999221.399    24999230.475
  23649481.863   -10106442.16149  -7556772.14445  23649481.415    23649488.383
 03  2 26  1  7  0.0000000  0  9G 6G23G17G29G26G15G18G 2G16
  21760016.823   -22274692.71349 -17332965.47947  21760016.574    21760022.737
  20737312.344   -25086575.31549 -19516852.30248  20737311.738    20737317.324
  20749993.846   -27907620.32149 -21441083.39848  20749993.149    20749999.060
  23562843.786   -12701921.08549  -9643834.06246  23562843.553    23562849.610
  21880682.200   -20326111.90949 -15529272.59947  21880682.129    21880687.641
  21185146.415   -23963042.54749 -18612357.97947  21185145.629    21185151.687
  20693381.832   -26590469.89049 -20691898.14048  20693381.300    20693385.844
  24996770.050    -4769057.84049  -3504419.40145  24996769.256    24996778.427
  23653298.829   -10086383.79649  -7541142.25945  23653298.382    23653305.421
 03  2 26  1  7 30.0000000  0  9G 6G23G17G29G26G15G18G 2G16
  21775867.168   -22191398.85249 -17268061.19647  21775866.881    21775873.064
  20742425.463   -25059705.74949 -19495914.96148  20742424.848    20742430.439
  20749085.948   -27912391.34949 -21444801.06648  20749085.247    20749091.151
  23575599.925   -12634887.01949  -9591599.73546  23575599.742    23575605.793
  21889298.849   -20280831.01549 -15493988.76647  21889298.794    21889304.304
  21176098.918   -24010587.02549 -18649405.58747  21176098.142    21176104.234
  20687529.052   -26621226.52049 -20715864.30748  20687528.512    20687533.038
  24994397.485    -4781525.70049  -3514134.61045  24994396.759    24994405.653
  23657206.594   -10065848.37049  -7525140.61945  23657206.107    23657213.199
 03  2 26  1  8  0.0000000  0  9G 6G23G17G29G26G15G18G 2G16
  21791786.198   -22107743.67249 -17202875.36147  21791785.950    21791792.147
  20747599.797   -25032514.32849 -19474726.82848  20747599.176    20747604.743
  20748215.606   -27916964.81249 -21448364.79648  20748214.900    20748220.837
  23588434.863   -12567438.99049  -9539042.81246  23588434.677    23588440.676
  21898031.573   -20234940.39149 -15458229.81847  21898031.498    21898036.995
  21167081.893   -24057971.40849 -18686328.44447  21167081.125    21167087.229
  20681752.503   -26651582.30849 -20739518.13248  20681751.971    20681756.493
  24992104.621    -4793574.73149  -3523523.45245  24992103.897    24992112.737
  23661204.971   -10044836.64449  -7508767.85545  23661204.479    23661211.579
 03  2 26  1  8 30.0000000  0 10G 3G 6G23G17G29G26G15G18G 2G16
  24581535.412    -3239667.79949  -2474117.91045  24581535.157    24581543.021
  21807773.081   -22023731.89549 -17137411.65247  21807772.843    21807779.093
  20752834.495   -25005005.76349 -19453291.56248  20752833.872    20752839.451
  20747382.474   -27921342.86149 -21451776.24448  20747381.757    20747387.723
  23601347.676   -12499582.05449  -9486167.26446  23601347.447    23601353.387
  21906879.465   -20188444.44449 -15421999.18746  21906879.363    21906884.866
  21158094.960   -24105197.90649 -18723128.27347  21158094.196    21158100.280
  20676051.643   -26681540.35949 -20762862.03248  20676051.088    20676055.611
  24989890.839    -4805208.15749  -3532588.45545  24989889.969    24989898.958
  23665293.133   -10023353.20049  -7492027.51645  23665292.689    23665299.693
 03  2 26  1  9  0.0000000  0 10G 3G 6G23G17G29G26G15G18G 2G16
  24562617.793    -3339080.28149  -2551582.09845  24562617.474    24562625.202
  21823828.008   -21939362.58449 -17071669.35447  21823827.798    21823834.116
  20758129.803   -24977178.84949 -19431608.24048  20758129.186    20758134.736
  20746587.322   -27925521.24049 -21455032.11248  20746586.617    20746592.579
  23614338.379   -12431315.46749  -9432972.51446  23614338.094    23614344.060
  21915842.719   -20141342.00449 -15385295.97046  21915842.638    21915848.154
  21149138.831   -24152262.75949 -18759802.15047  21149138.036    21149144.136
  20670426.951   -26711098.21849 -20785894.09948  20670426.402    20670430.900
  24987756.554    -4816423.54249  -3541327.67745  24987755.647    24987764.552
  23669471.201   -10001396.64049  -7474918.51345  23669470.796    23669477.895
 03  2 26  1  9 30.0000000  0 10G 3G 6G23G17G29G26G15G18G 2G16
  24543730.318    -3438334.56949  -2628923.00845  24543729.999    24543737.565
  21839950.753   -21854637.04349 -17005649.47247  21839950.517    21839956.894
  20763485.446   -24949034.54949 -19409677.59948  20763484.839    20763490.385
  20745830.386   -27929498.84049 -21458131.51848  20745829.681    20745835.653
  23627406.687   -12362640.60449  -9379459.62246  23627406.467    23627412.420
  21924921.312   -20093633.87749 -15348120.78046  21924921.233    21924926.714
  21140213.688   -24199164.55449 -18796348.96547  21140212.885    21140218.953
  20664878.496   -26740255.37249 -20808613.92548  20664877.943    20664882.440
  24985701.874    -4827220.68549  -3549741.00445  24985701.049    24985709.831
  23673739.288    -9978968.04649  -7457441.69745  23673738.842    23673745.923
 03  2 26  1 10  0.0000000  0 10G 3G 6G23G17G29G26G15G18G 2G16
  24524873.494    -3537427.72349  -2706138.36345  24524873.124    24524880.679
  21856141.057   -21769556.75349 -16939353.16947  21856140.789    21856147.164
  20768901.294   -24920574.16549 -19387500.66048  20768900.689    20768906.224
  20745111.979   -27933274.07749 -21461073.24248  20745111.288    20745117.241
  23640552.373   -12293559.06949  -9325629.85246  23640552.226    23640558.197
  21934114.748   -20045321.60449 -15310474.82946  21934114.688    21934120.172
  21131319.804   -24245902.10449 -18832767.80247  21131319.002    21131325.043
  20659406.286   -26769011.88549 -20831021.56948  20659405.741    20659410.230
  24983726.806    -4837599.39749  -3557828.31245  24983726.165    24983734.946
  23678096.999    -9956068.61149  -7439597.98545  23678096.505    23678103.524
 03  2 26  1 10 30.0000000  0 10G 3G 6G23G17G29G26G15G18G 2G16
  24506047.351    -3636358.95449  -2783227.54145  24506046.868    24506054.538
  21872398.163   -21684125.08849 -16872783.06547  21872397.944    21872404.291
  20774376.635   -24891800.95049 -19365079.96248  20774376.019    20774381.546
  20744431.892   -27936848.02349 -21463858.12048  20744431.169    20744437.149
  23653774.852   -12224074.49049  -9271486.01246  23653774.703    23653780.701
  21943422.632   -19996408.20549 -15272360.47646  21943422.545    21943428.062
  21122457.057   -24292475.96649 -18869059.09047  21122456.268    21122462.290
  20654009.942   -26797369.79649 -20853118.61348  20654009.407    20654013.875
  24981831.044    -4847561.65649  -3565591.09445  24981830.378    24981839.213
  23682543.678    -9932701.31249  -7421389.70945  23682543.206    23682550.149
 03  2 26  1 11  0.0000000  0 10G 3G 6G23G17G29G26G15G18G 2G16
  24487252.556    -3735125.76049  -2860188.61145  24487251.998    24487259.894
  21888721.822   -21598343.78649 -16805940.51647  21888721.593    21888727.974
  20779911.177   -24862716.46949 -19342416.71548  20779910.577    20779916.084
  20743790.218   -27940219.94849 -21466485.57548  20743789.493    20743795.466
  23667073.509   -12154188.96349  -9217029.74945  23667073.436    23667079.408
  21952844.538   -19946895.39849 -15233779.04046  21952844.472    21952850.039
  21113625.570   -24338885.53349 -18905222.35347  21113624.772    21113630.783
  20648689.414   -26825329.24949 -20874905.16848  20648688.870    20648693.314
  24980014.531    -4857107.72449  -3573029.56745  24980013.706    24980022.445
  23687079.045    -9908868.04149  -7402818.31845  23687078.557    23687085.485
 03  2 26  1 11 30.0000000  0 10G 3G 6G23G17G29G26G15G18G 2G16
  24468489.625    -3833724.90249  -2937019.00045  24468489.148    24468496.957
  21905111.818   -21512214.00649 -16738826.42847  21905111.567    21905117.948
  20785504.857   -24833321.65149 -19319511.65348  20785504.255    20785509.731
  20743187.361   -27943387.89049 -21468954.08748  20743186.651    20743192.633
  23680448.258   -12083903.76649  -9162262.04745  23680448.227    23680454.197
  21962380.317   -19896784.17249 -15194731.30446  21962380.281    21962385.841
  21104825.705   -24385129.10949 -18941256.27947  21104824.894    21104830.890
  20643444.771   -26852889.77449 -20896380.87748  20643444.241    20643448.682
  24978277.310    -4866237.13749  -3580143.42045  24978276.509    24978285.213
  23691703.009    -9884569.48249  -7383884.38545  23691702.466    23691709.358
 03  2 26  1 12  0.0000000  0 10G 3G 6G23G17G29G26G15G18G 2G16
  24449758.838    -3932154.80249  -3013717.49445  24449758.305    24449766.461
  21921567.486   -21425738.76849 -16671443.14947  21921567.265    21921573.610
  20791157.079   -24803619.14749 -19296366.83248  20791156.472    20791161.935
  20742623.345   -27946351.79849 -21471263.59948  20742622.621    20742628.621
  23693898.665   -12013222.04749  -9107185.36645  23693898.516    23693904.426
  21972029.495   -19846077.25449 -15155219.38246  21972029.451    21972035.030
  21096057.369   -24431206.85449 -18977160.98447  21096056.564    21096062.555
  20638275.847   -26880052.68449 -20917546.74948  20638275.309    20638279.756
  24976619.177    -4874951.26149  -3586933.63045  24976618.357    24976626.798
  23696414.872    -9859808.47749  -7364590.10345  23696414.334    23696421.197
 03  2 26  1 12 30.0000000  0 10G 3G 6G23G17G29G26G15G18G 2G16
  24431060.728    -4030413.18449  -3090282.35645  24431060.260    24431068.322
  21938088.584   -21338920.05449 -16603792.23247  21938088.327    21938094.702
  20796867.462   -24773610.91149 -19272983.78148  20796866.849    20796872.302
  20742098.206   -27949111.28149 -21473413.82948  20742097.485    20742103.481
  23707423.979   -11942146.10749  -9051801.50645  23707423.832    23707429.703
  21981791.634   -19794776.59749 -15115244.83246  21981791.623    21981797.198
  21087320.680   -24477118.00149 -19012935.87547  21087319.892    21087325.922
  20633182.439   -26906818.52949 -20938403.22848  20633181.906    20633186.354
  24975039.791    -4883250.51349  -3593400.55745  24975038.980    24975047.503
  23701214.407    -9834586.80349  -7344936.86445  23701213.901    23701220.726
 03  2 26  1 13  0.0000000  0 10G 3G 6G23G17G29G26G15G18G 2G16
  24412395.779    -4128496.91349  -3166711.11645  24412395.401    24412403.357
  21954674.785   -21251759.26549 -16535874.75147  21954674.515    21954680.856
  20802635.794   -24743298.04949 -19249363.35148  20802635.185    20802640.630
  20741612.214   -27951665.02449 -21475403.73548  20741611.491    20741617.522
  23721023.962   -11870677.46049  -8996111.63645  23721023.827    23721029.688
  21991666.535   -19742883.40549 -15074808.54546  21991666.556    21991672.131
  21078616.020   -24522861.10549 -19048579.81547  21078615.268    21078621.281
  20628164.617   -26933187.04949 -20958950.09448  20628164.109    20628168.544
  24973539.420    -4891135.00149  -3599544.30745  24973538.569    24973547.306
  23706101.335    -9808905.81449  -7324925.71445  23706100.888    23706107.646
 03  2 26  1 13 30.0000000  0 10G 3G 6G23G17G29G26G15G18G 2G16
  24393764.482    -4226404.56149  -3243002.65645  24393764.159    24393772.172
  21971325.533   -21164259.33149 -16467693.01147  21971325.228    21971331.520
  20808461.594   -24712683.22449 -19225507.63148  20808460.982    20808466.426
  20741165.308   -27954013.32949 -21477233.56648  20741164.601    20741170.606
  23734698.233   -11798819.24949  -8940118.21445  23734698.020    23734703.833
  22001653.697   -19690400.40749 -15033912.68146  22001653.682    22001659.251
  21069943.332   -24568436.30949 -19084092.93047  21069942.552    21069948.589
  20623222.165   -26959159.81149 -20979188.57948  20623221.661    20623226.062
  24972117.785    -4898606.14349  -3605365.95745  24972116.963    24972125.514
  23711075.244    -9782768.02649  -7304558.61245  23711074.784    23711081.498
 03  2 26  1 14  0.0000000  0 10G 3G 6G23G17G29G26G15G18G 2G16
  24375167.301    -4324132.79849  -3319154.40445  24375166.933    24375175.108
  21988040.484   -21076421.74549 -16399248.16547  21988040.217    21988046.503
  20814344.676   -24681767.58249 -19201417.50648  20814344.050    20814349.481
  20740757.910   -27956154.18949 -21478901.75348  20740757.203    20740763.175
  23748446.245   -11726572.92949  -8883822.36645  23748446.083    23748451.862
  22011752.897   -19637328.92949 -14992558.26946  22011752.890    22011758.384
  21061302.915   -24613841.91749 -19119473.89347  21061302.134    21061308.145
  20618355.065   -26984736.59049 -20999118.50748  20618354.540    20618358.937
  24970774.777    -4905663.81649  -3610865.41645  24970773.983    24970782.482
  23716135.836    -9756174.47649  -7283836.37945  23716135.351    23716142.148
 03  2 26  1 14 30.0000000  0 10G 3G 6G23G17G29G26G15G18G 2G16
  24356604.661    -4421679.58349  -3395164.74845  24356604.204    24356612.450
  22004819.232   -20988248.80449 -16330542.00547  22004819.001    22004825.248
  20820284.542   -24650553.18949 -19177094.58448  20820283.917    20820289.338
  20740389.979   -27958087.75249 -21480408.40248  20740389.257    20740395.225
  23762267.702   -11653941.04049  -8827226.06945  23762267.474    23762273.252
  22021963.668   -19583671.22749 -14950747.05046  22021963.602    22021969.084
  21052694.887   -24659077.55949 -19154722.40947  21052694.083    21052700.034
  20613563.149   -27009917.99649 -21018740.34748  20613562.618    20613567.039
  24969510.297    -4912308.93649  -3616043.40845  24969509.438    24969518.103
  23721282.677    -9729127.45849  -7262760.79945  23721282.248    23721289.066
 03  2 26  1 15  0.0000000  0 10G 3G 6G23G17G29G26G15G18G 2G16
  24338077.075    -4519042.26249  -3471031.64445  24338076.580    24338084.704
  22021661.539   -20899742.30249 -16261575.92847  22021661.261    22021667.489
  20826281.000   -24619041.56849 -19152540.05948  20826280.376    20826285.797
  20740061.752   -27959812.54649 -21481752.38148  20740061.035    20740066.998
  23776162.099   -11580925.69249  -8770330.97845  23776161.875    23776167.584
  22032285.548   -19529429.07649 -14908480.42546  22032285.516    22032291.002
  21044119.308   -24704142.29849 -19189837.75447  21044118.510    21044124.453
  20608846.456   -27034704.38749 -21038054.39148  20608845.923    20608850.338
  24968324.167    -4918541.61149  -3620900.01345  24968323.439    24968332.136
  23726515.604    -9701628.72949  -7241333.23845  23726515.145    23726521.903
 03  2 26  1 15 30.0000000  0 10G 3G 6G23G17G29G26G15G18G 2G16
  24319584.991    -4616218.74249  -3546753.45145  24319584.502    24319592.555
  22038566.794   -20810904.74249 -16192351.87947  22038566.538    22038572.726
  20832333.568   -24587234.90749 -19127755.62748  20832332.946    20832338.392
  20739773.239   -27961328.65949 -21482933.75048  20739772.514    20739778.480
  23790128.883   -11507529.46849  -8713139.09545  23790128.657    23790134.330
  22042718.254   -19474604.76749 -14865760.17146  22042718.184    22042723.670
  21035576.407   -24749035.45449 -19224819.39747  21035575.594    21035581.545
  20604204.717   -27059096.75249 -21057061.39448  20604204.196    20604208.594
  24967216.345    -4924362.94649  -3625436.09545  24967215.706    24967224.382
  23731833.915    -9673680.50549  -7219555.41645  23731833.463    23731840.228
 03  2 26  1 16  0.0000000  0 10G 3G 6G23G17G29G26G15G18G 2G16
  24301128.905    -4713206.36049  -3622328.08945  24301128.349    24301136.310
  22055534.724   -20721737.79549 -16122871.16647  22055534.441    22055540.663
  20838441.982   -24555134.67449 -19102742.44248  20838441.367    20838446.860
  20739524.788   -27962634.23449 -21483951.05848  20739524.056    20739530.024
  23804167.878   -11433754.25749  -8655651.90645  23804167.607    23804173.200
  22053261.473   -19419199.94249 -14822587.55546  22053261.365    22053266.819
  21027066.349   -24793755.84549 -19259666.41647  21027065.535    21027071.519
  20599637.949   -27083095.26049 -21075761.49548  20599637.398    20599641.787
  24966186.813    -4929773.28449  -3629651.94345  24966186.139    24966194.911
  23737237.553    -9645284.36549  -7197428.56845  23737237.113    23737243.885
 03  2 26  1 16 30.0000000  0 10G 3G 6G23G17G29G26G15G18G 2G16
  24282709.154    -4810002.68849  -3697753.68345  24282708.541    24282716.451
  22072564.909   -20632243.51349 -16053135.38747  22072564.632    22072570.882
  20844605.956   -24522742.57049 -19077501.82748  20844605.330    20844610.853
  20739316.535   -27963728.61849 -21484803.80448  20739315.820    20739321.775
  23818278.564   -11359602.27149  -8597871.11345  23818278.269    23818283.871
  22063914.746   -19363216.56049 -14778964.13046  22063914.660    22063920.110
  21018589.314   -24838302.87749 -19294378.34947  21018588.504    21018594.493
  20595146.005   -27106700.40849 -21094155.08348  20595145.468    20595149.844
  24965235.345    -4934773.13349  -3633547.91945  24965234.657    24965243.517
  23742726.081    -9616442.18149  -7174954.16345  23742725.613    23742732.431
 03  2 26  1 17  0.0000000  0 10G 3G 6G23G17G29G26G15G18G 2G16
  24264326.297    -4906604.81049  -3773027.94145  24264325.677    24264333.552
  22089657.038   -20542423.81349 -15983146.04047  22089656.749    22089663.052
  20850825.182   -24490060.20149 -19052035.03148  20850824.555    20850830.091
  20739148.599   -27964611.05649 -21485491.39848  20739147.877    20739153.806
  23832460.484   -11285075.47449  -8539798.26045  23832460.171    23832465.860
  22074677.714   -19306656.67949 -14734891.48446  22074677.609    22074683.073
  21010145.453   -24882675.47949 -19328954.36747  21010144.670    21010150.624
  20590728.834   -27129912.54049 -21112242.42748  20590728.295    20590732.680
  24964361.915    -4939362.98949  -3637124.40645  24964361.212    24964370.069
  23748298.976    -9587155.74349  -7152133.60045  23748298.545    23748305.462
 03  2 26  1 17 30.0000000  0 10G 3G 6G23G17G29G26G15G18G 2G16
  24245980.735    -5003011.27849  -3848149.74645  24245980.107    24245987.874
  22106810.531   -20452281.52049 -15912905.32647  22106810.274    22106816.624
  20857099.134   -24457090.17449 -19026344.08648  20857098.511    20857104.054
  20739021.097   -27965281.11649 -21486013.50648  20739020.365    20739026.275
  23846713.106   -11210177.26849  -8481436.00545  23846712.824    23846718.502
  22085549.854   -19249522.92249 -14690371.65446  22085549.772    22085555.244
  21001734.841   -24926873.42149 -19363394.28547  21001734.062    21001739.980
  20586386.210   -27152733.10749 -21130024.65748  20586385.672    20586390.054
  24963566.220    -4943544.25849  -3640382.52945  24963565.484    24963574.339
  23753956.045    -9557427.68349  -7128968.89245  23753955.589    23753962.548
 03  2 26  1 18  0.0000000  0 10G 3G 6G23G17G29G26G15G18G 2G16
  24227673.073    -5099218.27449  -3923116.12945  24227672.482    24227680.147
  22124025.356   -20361817.39249 -15842413.82447  22124025.066    22124031.427
  20863427.785   -24423832.78149 -19000429.21648  20863427.170    20863432.729
  20738934.256   -27965737.26449 -21486368.92548  20738933.525    20738939.426
  23861036.212   -11134908.29149  -8422784.82145  23861035.939    23861041.675
  22096531.086   -19191816.16149 -14645405.33346  22096531.030    22096536.480
  20993357.909   -24970894.54049 -19397696.41747  20993357.131    20993363.011
  20582118.290   -27175161.10249 -21147500.98348  20582117.756    20582122.121
  24962848.446    -4947316.30149  -3643321.78045  24962847.640    24962856.474
  23759697.035    -9527258.65149  -7105460.57445  23759696.574    23759703.589
 03  2 26  1 18 30.0000000  0 10G 3G 6G23G17G29G26G15G18G 2G16
  24209403.580    -5195224.56449  -3997926.11545  24209403.069    24209410.623
  22141300.717   -20271034.81449 -15771674.18247  22141300.446    22141306.787
  20869810.533   -24390291.15349 -18974292.86348  20869809.911    20869815.465
  20738888.103   -27965979.62349 -21486557.75548  20738887.387    20738893.272
  23875429.159   -11059272.23849  -8363847.63945  23875428.945    23875434.771
  22107620.742   -19133539.74849 -14599995.12446  22107620.653    22107626.107
  20985014.479   -25014739.43449 -19431861.22847  20985013.707    20985019.556
  20577924.723   -27197198.27649 -21164672.77648  20577924.190    20577928.549
  24962208.122    -4950681.20649  -3645943.78045  24962207.414    24962216.086
  23765521.313    -9496652.07349  -7081611.32945  23765520.873    23765527.886
 03  2 26  1 19  0.0000000  0 10G 3G 6G23G17G29G26G15G18G 2G16
  24191172.781    -5291027.08849  -4072577.32245  24191172.260    24191179.821
  22158636.353   -20179935.42649 -15700687.67746  22158636.105    22158642.444
  20876247.054   -24356466.73549 -18947936.16348  20876246.425    20876252.012
  20738882.856   -27966007.07349 -21486579.12448  20738882.141    20738888.023
  23889891.655   -10983270.94849  -8304625.84745  23889891.502    23889897.334
  22118818.385   -19074695.41649 -14554142.37646  22118818.281    22118823.790
  20976704.862   -25058406.72749 -19465887.64847  20976704.080    20976709.918
  20573805.454   -27218845.02549 -21181540.34348  20573804.901    20573809.264
  24961645.178    -4953638.98549  -3648248.53145  24961644.464    24961653.183
  23771428.561    -9465609.47149  -7057422.32145  23771428.033    23771435.094
 03  2 26  1 19 30.0000000  0 10G 3G 6G23G17G29G26G15G18G 2G16
  24172981.280    -5386623.69649  -4147068.07845  24172980.834    24172988.205
  22176031.870   -20088521.53449 -15629456.10646  22176031.613    22176037.912
  20882737.117   -24322361.19749 -18921360.40348  20882736.522    20882742.100
  20738918.700   -27965818.57049 -21486432.21748  20738917.986    20738923.881
  23904423.197   -10906906.69149  -8245121.21445  23904423.033    23904428.987
  22130123.740   -19015285.34349 -14507848.78346  22130123.624    22130129.151
  20968429.226   -25101895.42149 -19499774.90547  20968428.439    20968434.270
  20569760.327   -27240102.01649 -21198104.20048  20569759.802    20569764.167
  24961159.609    -4956190.61849  -3650236.80345  24961158.920    24961167.627
  23777418.405    -9434132.80949  -7032895.07845  23777417.926    23777424.913
 03  2 26  1 20  0.0000000  0 10G 3G 6G23G17G29G26G15G18G 2G16
  24154829.315    -5482012.37649  -4221396.84145  24154828.890    24154836.189
  22193486.749   -19996795.82649 -15557981.56546  22193486.479    22193492.750
  20889280.232   -24287976.85249 -18894567.39648  20889279.613    20889285.183
  20738995.695   -27965413.84749 -21486116.83348  20738994.993    20739000.900
  23919023.286   -10830182.37949  -8185336.03145  23919023.165    23919029.212
  22141536.129   -18955312.30949 -14461116.53446  22141536.074    22141541.611
  20960187.567   -25145205.35949 -19533522.87347  20960186.775    20960192.606
  20565789.173   -27260970.33249 -21214365.19948  20565788.641    20565793.011
  24960751.157    -4958337.37949  -3651909.62145  24960750.482    24960759.094
  23783490.427    -9402224.72549  -7008031.65545  23783489.912    23783496.756
 03  2 26  1 20 30.0000000  0 10G 3G 6G23G17G29G26G15G18G 2G16
  24136717.569    -5577189.50949  -4295560.76345  24136717.109    24136724.373
  22211000.762   -19904759.21249 -15486264.74946  22211000.495    22211006.756
  20895876.295   -24253314.38849 -18867557.66248  20895875.676    20895881.241
  20739114.187   -27964791.06049 -21485631.52148  20739113.490    20739119.386
  23933691.837   -10753099.09149  -8125271.11945  23933691.630    23933697.669
  22153055.520   -18894777.05849 -14413946.18046  22153055.489    22153061.062
  20951980.322   -25188334.44449 -19567129.91347  20951979.546    20951985.387
  20561892.133   -27281449.21749 -21230322.73748  20561891.599    20561895.961
  24960419.699    -4960078.85749  -3653266.61245  24960419.002    24960427.744
  23789644.322    -9369886.19549  -6982832.81745  23789643.792    23789650.613
 03  2 26  1 21  0.0000000  0 10G 3G 6G23G17G29G26G15G18G 2G16
  24118646.344    -5672153.64049  -4369558.70245  24118645.939    24118653.186
  22228573.272   -19812415.01949 -15414308.27146  22228573.009    22228579.307
  20902524.678   -24218376.76349 -18840333.52548  20902524.064    20902529.621
  20739274.135   -27963950.63149 -21484976.62148  20739273.420    20739279.294
  23948427.974   -10675660.40349  -8064929.27045  23948427.768    23948433.797
  22164681.362   -18833683.22549 -14366340.57646  22164681.310    22164686.820
  20943807.497   -25231282.88849 -19600596.19947  20943806.714    20943812.517
  20558068.846   -27301540.75549 -21245978.45248  20558068.315    20558072.640
  24960165.068    -4961416.71649  -3654309.08945  24960164.358    24960173.204
  23795879.531    -9337120.19749  -6957300.89845  23795879.065    23795885.750
 03  2 26  1 21 30.0000000  0 10G 3G 6G23G17G29G26G15G18G 2G16
  24100616.389    -5766901.03449  -4443387.76645  24100616.151    24100623.287
  22246204.183   -19719764.09849 -15342112.78446  22246203.923    22246210.232
  20909225.326   -24183164.56449 -18812895.43448  20909224.705    20909230.274
  20739475.914   -27962890.11649 -21484150.22748  20739475.190    20739481.073
  23963231.532   -10597867.55649  -8004311.45545  23963231.260    23963237.206
  22176413.237   -18772031.75149 -14318300.44646  22176413.169    22176418.668
  20935669.449   -25274048.51949 -19633920.03147  20935668.668    20935674.435
  20554319.384   -27321244.21649 -21261331.77048  20554318.851    20554323.171
  24959987.419    -4962350.79449  -3655036.93745  24959986.701    24959995.530
  23802195.823    -9303927.76649  -6931436.68845  23802195.403    23802202.102
 03  2 26  1 22  0.0000000  0 10G 3G 6G23G17G29G26G15G18G 2G16
  24082627.824    -5861430.51049  -4517047.02045  24082627.664    24082634.749
  22263892.871   -19626809.79349 -15269680.90046  22263892.548    22263898.883
  20915977.640   -24147680.79949 -18785245.73548  20915977.021    20915982.586
  20739719.421   -27961610.21349 -21483152.88348  20739718.722    20739724.605
  23978101.754   -10519723.88249  -7943420.26545  23978101.466    23978107.432
  22188250.503   -18709826.21249 -14269828.57946  22188250.474    22188255.983
  20927566.164   -25316631.61349 -19667101.63447  20927565.348    20927571.122
  20550643.374   -27340561.45349 -21276384.13548  20550642.846    20550647.181
  24959886.231    -4962882.90649  -3655451.59945  24959885.302    24959894.191
  23808592.610    -9270312.39549  -6905242.91045  23808592.165    23808598.971
 03  2 26  1 22 30.0000000  0 10G 3G 6G23G17G29G26G15G18G 2G16
  24064681.313    -5955739.09349  -4590534.13445  24064681.169    24064688.340
  22281638.886   -19533553.75849 -15197013.89446  22281638.593    22281644.969
  20922781.466   -24111926.47749 -18757385.21148  20922780.850    20922786.399
  20740005.000   -27960109.34549 -21481983.35548  20740004.294    20740010.153
  23993038.306   -10441231.18049  -7882257.09945  23993038.075    23993044.149
  22200192.991   -18647068.00449 -14220926.05446  22200192.976    22200198.485
  20919497.852   -25359030.59949 -19700139.77647  20919497.054    20919502.829
  20547040.902   -27359492.43849 -21291135.52148  20547040.380    20547044.719
  24959861.445    -4963013.30349  -3655553.19845  24959860.568    24959869.298
  23815069.564    -9236275.34249  -6878720.56245  23815069.161    23815075.963
 03  2 26  1 23  0.0000000  0 10G 3G 6G23G17G29G26G15G18G 2G16
  24046777.392    -6049824.13049  -4663847.04545  24046777.243    24046784.498
  22299441.897   -19439998.06149 -15124113.38146  22299441.618    22299448.055
  20929636.456   -24075903.23549 -18729315.14148  20929635.845    20929641.386
  20740332.828   -27958386.58249 -21480640.92448  20740332.117    20740337.973
  24008041.030   -10362391.59449  -7820823.64345  24008040.749    24008046.782
  22212240.224   -18583759.38349 -14171594.64046  22212240.186    22212245.712
  20911464.748   -25401244.53849 -19733033.72847  20911463.945    20911469.708
  20543511.844   -27378037.89649 -21305586.49848  20543511.323    20543515.625
  24959912.946    -4962742.86049  -3655342.46945  24959912.142    24959920.772
  23821626.552    -9201818.68249  -6851871.24045  23821626.051    23821632.877
 03  2 26  1 23 30.0000000  0 10G 3G 6G23G17G29G26G15G18G 2G16
  24028916.516    -6143683.10749  -4736983.79045  24028916.447    24028923.710
  22317301.568   -19346145.13249 -15050981.25446  22317301.274    22317307.695
  20936542.211   -24039613.16649 -18701037.15748  20936541.604    20936547.138
  20740703.035   -27956441.01449 -21479124.88548  20740702.321    20740708.160
  24023109.222   -10283207.70349  -7759121.88945  24023108.968    24023114.977
  22224391.618   -18519902.99349 -14121836.39046  22224391.644    22224397.207
  20903467.086   -25443272.65349 -19765782.87947  20903466.271    20903472.013
  20540055.995   -27396198.53649 -21319737.61948  20540055.446    20540059.736
  24960040.459    -4962072.66949  -3654820.24245  24960039.594    24960048.274
  23828262.893    -9166944.87449  -6824696.86345  23828262.398    23828269.143
 03  2 26  1 24  0.0000000  0 10G 3G 6G23G17G29G26G15G18G 2G16
  24011099.177    -6237313.93949  -4809942.76145  24011099.022    24011106.340
  22335217.330   -19251997.52949 -14977619.51846  22335216.991    22335223.376
  20943498.340   -24003058.41649 -18672552.92047  20943497.738    20943503.276
  20741115.697   -27954272.47349 -21477435.09248  20741114.975    20741120.825
  24038242.363   -10203682.38449  -7697154.07645  24038242.171    24038248.085
  22236646.808   -18455501.40249 -14071653.30346  22236646.820    22236652.333
  20895504.821   -25485114.53249 -19798386.91547  20895504.004    20895509.732
  20536673.109   -27413975.57449 -21333589.82548  20536672.567    20536676.873
  24960243.791    -4961003.99749  -3653987.51145  24960242.894    24960251.549
  23834978.152    -9131656.21049  -6797199.22145  23834977.638    23834984.350
 03  2 26  1 24 30.0000000  0 10G 3G 6G23G17G29G26G15G18G 2G16
  23993325.793    -6330713.66749  -4882721.64145  23993325.626    23993332.930
  22353188.724   -19157557.14149 -14904029.64046  22353188.450    22353194.841
  20950504.580   -23966240.31949 -18643863.47947  20950503.968    20950509.524
  20741571.150   -27951878.91249 -21475569.96648  20741570.430    20741576.282
  24053440.149   -10123817.49349  -7634921.66945  24053439.940    24053445.769
  22249005.486   -18390556.44249 -14021046.82746  22249005.454    22249010.939
  20887578.306   -25526768.62649 -19830844.62647  20887577.491    20887583.198
  20533363.247   -27431368.87549 -21347143.02248  20533362.719    20533366.993
  24960522.859    -4959537.12649  -3652844.50345  24960522.041    24960530.722
  23841771.961    -9095954.54349  -6769379.76445  23841771.465    23841778.157
 03  2 26  1 25  0.0000000  0 10G 3G 6G23G17G29G26G15G18G 2G16
  23975596.705    -6423880.27649  -4955318.85645  23975596.540    23975603.802
  22371215.425   -19062826.52749 -14830213.60046  22371215.130    22371221.511
  20957560.518   -23929161.00549 -18614970.48847  20957559.913    20957565.460
  20742069.359   -27949260.85249 -21473529.90148  20742068.625    20742074.475
  24068702.010   -10043615.88049  -7572426.87645  24068701.884    24068707.654
  22261466.974   -18325070.87549 -13970019.08946  22261466.937    22261472.393
  20879687.633   -25568234.27749 -19863155.49947  20879686.824    20879692.498
  20530126.139   -27448380.01149 -21360398.42648  20530125.590    20530129.869
  24960877.541    -4957673.31249  -3651392.17945  24960876.795    24960885.407
  23848643.824    -9059842.52849  -6741240.55145  23848643.428    23848650.084
 03  2 26  1 25 30.0000000  0 10G 3G 6G23G17G29G26G15G18G 2G16
  23957912.694    -6516810.58049  -5027731.94145  23957912.482    23957919.696
  22389297.057   -18967807.09849 -14756172.52046  22389296.732    22389303.118
  20964665.995   -23891821.53349 -18585874.78047  20964665.374    20964670.910
  20742610.581   -27946416.46849 -21471313.48048  20742609.880    20742615.729
  24084027.746    -9963078.93249  -7509670.78445  24084027.595    24084033.256
  22274031.037   -18259046.32249 -13918571.36046  22274030.989    22274036.464
  20871833.085   -25609509.90849 -19895318.30147  20871832.291    20871837.973
  20526961.759   -27465008.84649 -21373355.93448  20526961.210    20526965.497
  24961307.672    -4955412.84449  -3649630.77145  24961306.757    24961315.605
  23855593.575    -9023321.58549  -6712782.68745  23855593.106    23855599.804
 03  2 26  1 26  0.0000000  0  9G 3G 6G23G17G29G26G15G18G16
  23940274.615    -6609499.23949  -5099956.73345  23940274.343    23940281.553
  22407433.742   -18872498.37049 -14681906.01646  22407433.456    22407439.794
  20971821.146   -23854220.85049 -18556575.53747  20971820.541    20971826.053
  20743195.700   -27943341.64249 -21468917.49448  20743194.985    20743200.844
  24099417.290    -9882206.25449  -7446653.08645  24099417.131    24099422.809
  22286697.657   -18192482.44449 -13866703.38146  22286697.620    22286703.140
  20864015.464   -25650591.84549 -19927330.17847  20864014.663    20864020.339
  20523870.542   -27481253.15349 -21386013.81648  20523869.991    20523874.288
  23862621.264    -8986391.15749  -6684005.74845  23862620.771    23862627.405
 03  2 26  1 26 30.0000000  0  9G 3G 6G23G17G29G26G15G18G16
  23922682.163    -6701947.57749  -5171994.25245  23922681.962    23922689.093
  22425624.274   -18776906.55549 -14607418.91946  22425623.974    22425630.322
  20979024.958   -23816364.67249 -18527077.19847  20979024.334    20979029.863
  20743824.050   -27940039.61749 -21466344.46348  20743823.320    20743829.166
  24114869.436    -9801004.49049  -7383378.96045  24114869.243    24114874.965
  22299465.698   -18125385.69549 -13814420.17246  22299465.662    22299471.212
  20856234.135   -25691482.96949 -19959193.36147  20856233.320    20856238.997
  20520851.624   -27497117.67249 -21398375.75548  20520851.090    20520855.354
  23869725.652    -8949057.52549  -6654914.63745  23869725.143    23869731.736
 03  2 26  1 27  0.0000000  0  9G 3G 6G23G17G29G26G15G18G16
  23905135.905    -6794153.79049  -5243843.10445  23905135.609    23905142.737
  22443868.114   -18681034.59149 -14532713.53446  22443867.833    22443874.239
  20986276.837   -23778255.49249 -18497381.71747  20986276.233    20986281.751
  20744495.678   -27936510.03949 -21463594.12848  20744494.975    20744500.807
  24130383.664    -9719476.56949  -7319850.68345  24130383.474    24130389.231
  22312334.583   -18057759.01149 -13761724.02846  22312334.582    22312340.138
  20848489.147   -25732183.05049 -19990907.68747  20848488.322    20848493.987
  20517904.668   -27512603.77749 -21410442.83448  20517904.141    20517908.409
  23876906.154    -8911323.71549  -6625511.67245  23876905.643    23876912.224
 03  2 26  1 27 30.0000000  0  9G 3G 6G23G17G29G26G15G18G16
  23887636.281    -6886114.88049  -5315500.95945  23887635.974    23887642.982
  22462165.014   -18584883.90349 -14457790.94846  22462164.777    22462171.168
  20993576.704   -23739894.36349 -18467489.91147  20993576.110    20993581.620
  20745210.827   -27932751.80349 -21460665.61148  20745210.120    20745215.943
  24145959.674    -9637624.03349  -7256069.46245  24145959.480    24145965.087
  22325303.984   -17989604.26549 -13708616.40746  22325303.954    22325309.511
  20840780.832   -25772690.17249 -20022471.65547  20840780.038    20840785.712
  20515029.709   -27527711.66449 -21422215.19348  20515029.171    20515033.456
  23884162.548    -8873191.12249  -6595797.98345  23884162.038    23884168.673
 03  2 26  1 28  0.0000000  0  9G 3G 6G23G17G29G26G15G18G16
  23870183.597    -6977828.62349  -5386966.06045  23870183.256    23870190.314
  22480514.497   -18488456.98249 -14382653.11646  22480514.214    22480520.597
  21000924.135   -23701283.34049 -18437403.38247  21000923.513    21000929.031
  20745969.640   -27928764.07649 -21457558.27548  20745968.925    20745974.748
  24161596.855    -9555449.78649  -7192037.54445  24161596.715    24161602.295
  22338373.344   -17920924.04049 -13655099.31946  22338373.366    22338378.909
  20833109.433   -25813003.61049 -20053884.70047  20833108.639    20833114.295
  20512226.534   -27542442.18349 -21433693.50048  20512226.001    20512230.282
  23891494.356    -8834662.30149  -6565775.52145  23891493.754    23891500.456
 03  2 26  1 28 30.0000000  0  9G 3G 6G23G17G29G26G15G18G16
  23852778.654    -7069291.60049  -5458235.77945  23852778.215    23852785.377
  22498916.284   -18391755.22949 -14307301.12146  22498915.974    22498922.343
  21008318.955   -23662423.36049 -18407122.85747  21008318.324    21008323.824
  20746772.507   -27924544.92549 -21454270.60348  20746771.819    20746777.636
  24177294.997    -9472955.30149  -7127756.11045  24177294.877    24177300.400
  22351542.389   -17851720.09749 -13601174.14346  22351542.399    22351547.902
  20825475.267   -25853121.56049 -20085145.41047  20825474.444    20825480.095
  20509495.194   -27556795.39649 -21444877.80148  20509494.662    20509498.939
  23898901.211    -8795738.68549  -6535445.46745  23898900.626    23898907.361
 03  2 26  1 29  0.0000000  0  9G 3G 6G23G17G29G26G15G18G16
  23835421.970    -7160500.82849  -5529307.78845  23835421.501    23835428.727
  22517369.962   -18294780.65649 -14231736.54746  22517369.649    22517376.049
  21015760.877   -23623315.73449 -18376649.36747  21015760.272    21015765.732
  20747619.629   -27920093.12949 -21450801.66148  20747618.932    20747624.730
  24193053.767    -9390142.45949  -7063226.58845  24193053.638    24193059.033
  22364810.701   -17781994.47549 -13546842.47646  22364810.734    22364816.178
  20817878.494   -25893042.67549 -20116252.74847  20817877.683    20817883.339
  20506835.597   -27570771.68649 -21455768.40148  20506835.064    20506839.332
  23906382.926    -8756422.11149  -6504809.20045  23906382.356    23906388.998
 03  2 26  1 29 30.0000000  0  9G 3G 6G23G17G29G26G15G18G16
  23818113.786    -7251455.15749  -5600181.16745  23818113.293    23818120.626
  22535874.820   -18197536.78749 -14155962.11446  22535874.529    22535880.953
  21023249.371   -23583963.41249 -18345985.19747  21023248.748    21023254.213
  20748511.046   -27915408.91149 -21447151.59648  20748510.335    20748516.113
  24208872.358    -9307015.08349  -6998451.98245  24208872.176    24208877.677
  22378177.672   -17711750.98349 -13492107.26146  22378177.620    22378183.023
  20810319.146   -25932767.03149 -20147206.76247  20810318.346    20810324.011
  20504247.348   -27584372.96249 -21466366.77548  20504246.825    20504251.084
  23913938.669    -8716716.35549  -6473869.65645  23913938.205    23913944.763
 03  2 26  1 30  0.0000000  0  9G 3G 6G23G17G29G26G15G18G16
  23800854.999    -7342150.35249  -5670852.62645  23800854.492    23800861.750
  22554430.818   -18100024.13049 -14079978.23946  22554430.553    22554436.985
  21030784.393   -23544366.55449 -18315130.48347  21030783.761    21030789.219
  20749447.087   -27910490.02049 -21443318.67248  20749446.367    20749452.126
  24224750.553    -9223573.97149  -6933432.90745  24224750.374    24224755.897
  22391642.906   -17640990.27749 -13436969.02446  22391642.888    22391648.322
  20802797.713   -25972292.35849 -20178005.69447  20802796.913    20802802.585
  20501730.637   -27597598.39449 -21476672.28848  20501730.098    20501734.338
  23921568.342    -8676622.07049  -6442627.37745  23921567.953    23921574.393
 03  2 26  1 30 30.0000000  0 10G 3G 6G14G23G17G29G26G15G18G16
  23783645.738    -7432585.24449  -5741321.26045  23783645.235    23783652.389
  22573037.397   -18002246.15749 -14003787.62546  22573037.102    22573043.557
  24664394.621    -3937647.55959  -3037832.76745  24664393.996    24664402.768
  21038365.379   -23504528.11649 -18284087.52047  21038364.763    21038370.211
  20750427.764   -27905336.49849 -21439302.92048  20750427.038    20750432.783
  24240687.896    -9139822.53149  -6868172.01445  24240687.651    24240693.170
  22405205.804   -17569716.28549 -13381430.83046  22405205.808    22405211.288
  20795314.198   -26011618.57049 -20208649.46947  20795313.384    20795319.028
  20499285.044   -27610449.87749 -21486686.41348  20499284.511    20499288.734
  23929271.339    -8636142.71749  -6411085.03845  23929270.880    23929277.354
 03  2 26  1 31  0.0000000  0 10G 3G 6G14G23G17G29G26G15G18G16
  23766485.603    -7522761.36349  -5811588.24045  23766485.135    23766492.250
  22591693.156   -17904209.39349 -13927395.36146  22591692.886    22591699.350
  24642757.096    -4051352.89749  -3126434.07345  24642756.395    24642765.046
  21045991.225   -23464453.91949 -18252860.84747  21045990.604    21045996.055
  20751452.389   -27899951.82449 -21435107.04448  20751451.669    20751457.413
  24256683.004    -9055767.50649  -6802674.59145  24256682.837    24256688.382
  22418865.191   -17497935.58349 -13325497.78246  22418865.193    22418870.662
  20787867.961   -26050748.73749 -20239140.48047  20787867.149    20787872.765
  20496909.662   -27622932.52849 -21496413.13248  20496909.135    20496913.352
  23937046.320    -8595284.90549  -6379247.82345  23937045.878    23937052.532
 03  2 26  1 31 30.0000000  0 10G 3G 6G14G23G17G29G26G15G18G16
  23749376.547    -7612669.42349  -5881646.37945  23749376.109    23749383.175
  22610399.030   -17805909.54149 -13850798.09246  22610398.727    22610405.225
  24621119.949    -4165056.49749  -3215034.03345  24621119.034    24621127.556
  21053662.867   -23424139.09549 -18221446.68247  21053662.263    21053667.689
  20752522.521   -27894328.22849 -21430725.00148  20752521.798    20752527.529
  24272736.748    -8971404.74149  -6736937.35145  24272736.524    24272742.128
  22432621.795   -17425644.23649 -13269166.84546  22432621.779    22432627.239
  20780460.459   -26089675.34649 -20269472.87747  20780459.637    20780465.244
  20494605.545   -27635040.49049 -21505847.88748  20494605.030    20494609.259
  23944894.138    -8554044.28449  -6347112.31645  23944893.675    23944900.450
 03  2 26  1 32  0.0000000  0 10G 3G 6G14G23G17G29G26G15G18G16
  23732318.752    -7702308.59949  -5951494.98945  23732318.268    23732325.265
  22629154.260   -17707350.40749 -13773998.78946  22629153.992    22629160.435
  24599483.266    -4278757.34549  -3303631.84145  24599482.303    24599490.788
  21061379.683   -23383586.92949 -18189847.56847  21061379.061    21061384.471
  20753637.954   -27888466.45349 -21426157.35748  20753637.236    20753642.990
  24288848.248    -8886737.92649  -6670963.19645  24288848.021    24288853.690
  22446474.782   -17352846.09749 -13212440.99946  22446474.769    22446480.201
  20773091.543   -26128398.82849 -20299646.98547  20773090.729    20773096.356
  20492372.340   -27646775.95649 -21514992.37748  20492371.806    20492376.032
  23952813.987    -8512424.84349  -6314681.60645  23952813.492    23952820.422
 03  2 26  1 32 30.0000000  0 10G 3G 6G14G23G17G29G26G15G18G16
  23715312.573    -7791676.68949  -6021132.37745  23715312.081    23715318.954
  22647958.330   -17608534.53049 -13696999.42246  22647957.995    22647964.518
  24577847.437    -4392453.34749  -3392225.87144  24577846.482    24577855.198
  21069141.246   -23342799.59549 -18158065.21247  21069140.618    21069146.028
  20754798.802   -27882365.93649 -21421403.68448  20754798.102    20754803.852
  24305017.044    -8801770.16649  -6604754.53745  24305016.807    24305022.579
  22460423.587   -17279544.26749 -13155322.66746  22460423.612    22460429.022
  20765761.522   -26166918.22449 -20329662.06847  20765760.743    20765766.349
  20490209.803   -27658140.29349 -21523847.67848  20490209.263    20490213.486
  23960805.485    -8470429.27649  -6281957.82445  23960805.070    23960811.851
 03  2 26  1 33  0.0000000  0 10G 3G 6G14G23G17G29G26G15G18G16
  23698358.627    -7880769.78949  -6090555.47645  23698358.108    23698364.951
  22666810.988   -17509462.83249 -13619800.72246  22666810.664    22666817.295
  24556213.245    -4506140.21349  -3480812.81045  24556212.478    24556221.079
  21076947.490   -23301777.44349 -18126099.88047  21076946.863    21076952.264
  20756005.577   -27876024.29349 -21416462.12048  20756004.867    20756010.597
  24321243.010    -8716502.28949  -6538312.00945  24321242.794    24321248.548
  22474468.144   -17205739.83949 -13097812.70846  22474468.170    22474473.531
  20758470.772   -26205231.23449 -20359516.32747  20758469.970    20758475.573
  20488117.934   -27669132.93049 -21532413.34348  20488117.392    20488121.605
  23968868.438    -8428058.49449  -6248941.66845  23968868.038    23968874.730
 03  2 26  1 33 30.0000000  0 10G 3G 6G14G23G17G29G26G15G18G16
  23681456.940    -7969588.39649  -6159764.69445  23681456.509    23681463.210
  22685711.219   -17410141.08149 -13542407.18746  22685710.939    22685717.588
  24534580.683    -4619818.67349  -3569393.19245  24534580.144    24534588.518
  21084797.461   -23260525.36749 -18093955.39147  21084796.839    21084802.238
  20757257.858   -27869443.59449 -21411334.28048  20757257.120    20757262.821
  24337525.106    -8630939.95049  -6471640.01945  24337524.842    24337530.595
  22488607.160   -17131438.74749 -13039915.73946  22488607.171    22488612.530
  20751218.883   -26243340.13249 -20389211.53847  20751218.081    20751223.665
  20486096.074   -27679757.78749 -21540692.42748  20486095.551    20486099.756
  23977001.725    -8385318.18749  -6215637.56545  23977001.228    23977008.080
 03  2 26  1 34  0.0000000  0 10G 3G 6G14G23G17G29G26G15G18G16
  23664608.321    -8058128.32249  -6228756.75145  23664607.863    23664614.601
  22704659.033   -17310569.74149 -13464819.16146  22704658.742    22704665.427
  24512950.592    -4733484.44749  -3657963.69945  24512949.928    24512958.506
  21092691.242   -23219043.28249 -18061631.67447  21092690.624    21092695.983
  20758556.009   -27862621.65149 -21406018.45148  20758555.271    20758560.973
  24353863.028    -8545083.80349  -6404739.09945  24353862.762    24353868.463
  22502840.538   -17056641.85949 -12981632.41846  22502840.528    22502845.921
  20744006.331   -26281242.20349 -20418745.58847  20744005.524    20744011.119
  20484144.372   -27690014.17749 -21548684.38948  20484143.832    20484148.023
  23985205.190    -8342209.13449  -6182046.13345  23985204.569    23985211.607
 03  2 26  1 34 30.0000000  0 10G 3G 6G14G23G17G29G26G15G18G16
  23647813.232    -8146386.65749  -6297529.39345  23647812.810    23647819.567
  22723654.033   -17210750.49649 -13387037.95846  22723653.722    22723660.413
  24491323.544    -4847134.28449  -3746521.80745  24491322.980    24491331.342
  21100628.550   -23177332.38549 -18029129.65847  21100627.939    21100633.306
  20759900.360   -27855556.91849 -21400513.44448  20759899.631    20759905.305
  24370256.253    -8458935.98949  -6337610.90345  24370256.083    24370261.774
  22517167.872   -16981351.23949 -12922964.37346  22517167.889    22517173.220
  20736833.458   -26318935.81049 -20448117.19747  20736832.649    20736838.240
  20482262.757   -27699902.05849 -21556389.20748  20482262.225    20482266.407
  23993478.321    -8298733.32449  -6148168.90545  23993477.781    23993484.798
 03  2 26  1 35  0.0000000  0 10G 3G 6G14G23G17G29G26G15G18G16
  23631071.845    -8234362.91449  -6366082.23345  23631071.380    23631078.113
  22742695.411   -17110687.60249 -13309066.91346  22742695.120    22742701.818
  24469699.668    -4960767.39049  -3835066.88245  24469699.260    24469707.443
  21108608.693   -23135396.24349 -17996452.13147  21108608.095    21108613.441
  20761290.833   -27848250.05449 -21394819.75748  20761290.078    20761295.761
  24386704.376    -8372500.68649  -6270258.68145  24386704.126    24386709.917
  22531588.232   -16905571.37249 -12863915.10746  22531588.226    22531593.631
  20729700.130   -26356421.35449 -20477326.67347  20729699.318    20729704.931
  20480450.687   -27709424.43249 -21563809.20848  20480450.159    20480454.309
  24001820.587    -8254894.74049  -6114008.99745  24001820.056    24001827.039
 03  2 26  1 35 30.0000000  0 10G 3G 6G14G23G17G29G26G15G18G16
  23614384.909    -8322052.92349  -6434412.03245  23614384.452    23614391.168
  22761783.003   -17010381.94249 -13230906.68746  22761782.695    22761789.339
  24448079.757    -5074379.76649  -3923595.80545  24448079.258    24448087.574
  21116631.662   -23093235.24149 -17963599.38647  21116631.051    21116636.404
  20762727.727   -27840698.81049 -21388935.64448  20762727.003    20762732.672
  24403207.001    -8285778.91949  -6202683.27145  24403206.682    24403212.564
  22546101.465   -16829303.52549 -12804485.60246  22546101.509    22546106.889
  20722606.863   -26393696.45149 -20506372.17047  20722606.058    20722611.673
  20478708.234   -27718580.79249 -21570944.00848  20478707.706    20478711.873
  24010231.547    -8210694.73749  -6079567.47345  24010231.043    24010237.998
 03  2 26  1 36  0.0000000  0 10G 3G 6G14G23G17G29G26G15G18G16
  23597752.775    -8409454.88149  -6502517.36145  23597752.286    23597759.038
  22780916.140   -16909836.86549 -13152559.90746  22780915.840    22780922.416
  24426464.107    -5187969.69449  -4012107.21445  24426463.631    24426472.033
  21124696.935   -23050851.84649 -17930573.34147  21124696.317    21124701.664
  20764211.220   -27832903.03349 -21382860.98048  20764210.496    20764216.150
  24419763.488    -8198773.88649  -6134887.10145  24419763.190    24419768.999
  22560706.927   -16752551.15949 -12744678.53146  22560707.008    22560712.381
  20715553.686   -26430761.00949 -20535253.60947  20715552.901    20715558.508
  20477035.191   -27727372.68849 -21577794.80648  20477034.664    20477038.823
  24018710.817    -8166136.38449  -6044846.71445  24018710.333    24018717.254
 03  2 26  1 36 30.0000000  0 10G 3G 6G14G23G17G29G26G15G18G16
  23581175.947    -8496566.09649  -6570396.15145  23581175.512    23581182.208
  22800094.516   -16809054.18749 -13074027.98746  22800094.193    22800100.707
  24404853.367    -5301534.20849  -4100598.82545  24404852.902    24404861.242
  21132804.292   -23008247.42949 -17897375.07447  21132803.674    21132809.019
  20765741.456   -27824861.43749 -21376594.77048  20765740.727    20765746.380
  24436373.372    -8111487.83849  -6066871.96645  24436373.091    24436378.914
  22575404.237   -16675316.64249 -12684495.77146  22575404.263    22575409.580
  20708540.830   -26467613.65149 -20563969.91647  20708540.046    20708545.653
  20475431.349   -27735800.86549 -21584362.19148  20475430.824    20475434.950
  24027257.732    -8121222.16749  -6009848.66445  24027257.236    24027264.210
 03  2 26  1 37  0.0000000  0 10G 3G 6G14G23G17G29G26G15G18G16
  23564654.899    -8583384.43949  -6638046.72446  23564654.430    23564661.181
  22819317.584   -16708036.78449 -12995313.15446  22819317.235    22819323.729
  24383247.855    -5415071.14149  -4189068.94945  24383247.400    24383255.646
  21140953.233   -22965424.34549 -17864006.41547  21140952.603    21140957.942
  20767318.561   -27816573.62949 -21370136.70648  20767317.835    20767323.495
  24453036.181    -8023923.61149  -5998640.09045  24453035.936    24453041.833
  22590192.516   -16597603.26249 -12623939.86846  22590192.535    22590197.877
  20701568.462   -26504253.64249 -20592520.52247  20701567.683    20701573.261
  20473896.531   -27743866.54749 -21590647.10848  20473895.997    20473900.117
  24035871.800    -8075954.90249  -5974575.50545  24035871.253    24035878.307
 03  2 26  1 37 30.0000000  0 10G 3G 6G14G23G17G29G26G15G18G16
  23548190.119    -8669907.28349  -6705467.05046  23548189.628    23548196.314
  22838584.869   -16606786.76149 -12916417.06546  22838584.507    22838591.020
  24361648.188    -5528577.45949  -4277515.22745  24361647.713    24361655.863
  21149143.532   -22922383.93149 -17830468.41047  21149142.913    21149148.246
  20768942.792   -27808038.12549 -21363485.63948  20768942.061    20768947.718
  24469751.677    -7936083.48449  -5930193.20245  24469751.384    24469757.199
  22605071.594   -16519413.37949 -12563012.65846  22605071.585    22605076.886
  20694636.822   -26540679.56749 -20620904.32747  20694636.032    20694641.599
  20472430.515   -27751570.39949 -21596650.08448  20472429.982    20472434.092
  24044552.681    -8030336.81449  -5939028.98545  24044552.153    24044559.262
 03  2 26  1 38  0.0000000  0 10G 3G 6G14G23G17G29G26G15G18G16
  23531782.107    -8756131.77049  -6772654.87846  23531781.617    23531788.259
  22857896.024   -16505306.02349 -12837341.18746  22857895.678    22857902.214
  24340054.881    -5642050.39549  -4365935.46845  24340054.361    24340062.415
  21157374.993   -22879127.37349 -17796761.97847  21157374.355    21157379.683
  20770614.393   -27799253.87949 -21356640.74448  20770613.673    20770619.308
  24486519.192    -7847969.50749  -5861532.93845  24486518.846    24486524.725
  22620040.927   -16440749.18249 -12501715.86046  22620040.921    22620046.164
  20687746.237   -26576889.91449 -20649120.14647  20687745.442    20687751.000
  20471033.224   -27758912.90149 -21602371.48348  20471032.689    20471036.821
  24053299.870    -7984370.13649  -5903210.84345  24053299.417    24053306.494
 03  2 26  1 38 30.0000000  0 10G 3G 6G14G23G17G29G26G15G18G16
  23515431.194    -8842055.81849  -6839608.59046  23515430.766    23515437.370
  22877250.500   -16403597.47549 -12758087.80746  22877250.150    22877256.733
  24318468.378    -5755487.56449  -4454327.84645  24318467.846    24318475.969
  21165647.158   -22835656.84349 -17762888.81447  21165646.518    21165651.842
  20772333.420   -27790220.42049 -21349601.66048  20772332.683    20772338.292
  24503338.384    -7759584.47049  -5792661.44445  24503337.962    24503343.757
  22635099.846   -16361614.06349 -12440052.10646  22635099.817    22635105.105
  20680896.732   -26612884.07249 -20677167.50448  20680895.944    20680901.513
  20469704.478   -27765895.42449 -21607812.37848  20469703.959    20469708.088
  24062112.874    -7938057.69149  -5867123.27045  24062112.476    24062119.395
 03  2 26  1 39  0.0000000  0 10G 3G 6G14G23G17G29G26G15G18G16
  23499137.969    -8927677.07249  -6906326.38646  23499137.596    23499144.099
  22896647.735   -16301663.89349 -12678659.07646  22896647.431    22896654.122
  24296889.066    -5868886.68549  -4542690.57145  24296888.345    24296896.588
  21173959.587   -22791974.55849 -17728850.65147  21173958.953    21173964.285
  20774099.902   -27780937.34449 -21342368.06948  20774099.170    20774104.764
  24520208.517    -7670931.36949  -5723581.05745  24520208.054    24520213.706
  22650247.727   -16282011.11649 -12378023.81546  22650247.700    22650253.002
  20674088.512   -26648661.26049 -20705045.80248  20674087.727    20674093.285
  20468444.023   -27772519.11749 -21612973.66948  20468443.481    20468447.603
  24070991.128    -7891402.42449  -5830768.54245  24070990.700    24070997.586
 03  2 26  1 39 30.0000000  0 10G 3G 6G14G23G17G29G26G15G18G16
  23482903.006    -9012992.16949  -6972805.60546  23482902.615    23482909.101
  22916087.553   -16199506.78449 -12599056.16746  22916087.273    22916094.001
  24275317.679    -5982244.44749  -4631021.07545  24275317.008    24275325.057
  21182312.203   -22748081.32849 -17694648.11447  21182311.591    21182316.888
  20775914.217   -27771402.77749 -21334938.50348  20775913.484    20775919.058
  24537129.156    -7582011.87449  -5654293.10545  24537128.799    24537134.557
  22665484.347   -16201942.22449 -12315632.46046  22665484.312    22665489.583
  20667322.014   -26684219.33549 -20732753.35748  20667321.221    20667326.747
  20467251.793   -27778784.27149 -21617855.57448  20467251.247    20467255.378
  24079934.215    -7844406.23049  -5794148.15645  24079933.779    24079940.675
 03  2 26  1 40  0.0000000  0 10G 3G 6G14G23G17G29G26G15G18G16
  23466726.740    -9097998.79949  -7039044.45546  23466726.334    23466732.822
  22935569.561   -16097128.47549 -12519280.89746  22935569.275    22935575.965
  24253754.574    -6095557.92549  -4719317.05045  24253753.846    24253762.008
  21190704.621   -22703978.81949 -17660282.49747  21190703.991    21190709.320
  20777776.673   -27761615.44649 -21327311.98248  20777775.945    20777781.515
  24554100.108    -7492828.27049  -5584799.35845  24554099.850    24554105.654
  22680809.128   -16121410.13549 -12252880.15646  22680809.073    22680814.343
  20660597.475   -26719557.05649 -20760289.20948  20660596.647    20660602.177
  20466127.601   -27784691.72049 -21622458.75448  20466127.075    20466131.205
  24088941.824    -7797071.42949  -5757263.92445  24088941.373    24088948.297
 03  2 26  1 40 30.0000000  0 10G 3G 6G14G23G17G29G26G15G18G16
  23450609.250    -9182696.27649  -7105042.42046  23450608.831    23450615.333
  22955092.833   -15994533.08849 -12439336.46646  22955092.550    22955099.261
  24232200.023    -6208826.48849  -4807578.04845  24232199.408    24232207.430
  21199136.148   -22659670.46149 -17625756.48147  21199135.534    21199140.893
  20779686.981   -27751576.74749 -21319489.60148  20779686.223    20779691.800
  24571120.470    -7403384.76549  -5515103.08345  24571120.297    24571126.079
  22696221.088   -16040419.43649 -12189770.50246  22696221.074    22696226.294
  20653914.654   -26754675.32349 -20787654.05748  20653913.843    20653919.393
  20465070.938   -27790244.34649 -21626785.44648  20465070.397    20465074.540
  24098012.959    -7749402.55749  -5720119.36245  24098012.523    24098019.390
 03  2 26  1 41  0.0000000  0 10G 3G 6G14G23G17G29G26G15G18G16
  23434551.513    -9267079.50149  -7170795.50246  23434551.148    23434557.664
  22974657.432   -15891720.53049 -12359222.79246  22974657.176    22974663.816
  24210655.066    -6322044.72249  -4895799.83945  24210654.403    24210662.451
  21207607.067   -22615155.33549 -17591069.34747  21207606.450    21207611.823
  20781645.770   -27741282.99349 -21311468.47448  20781645.037    20781650.613
  24588190.404    -7313681.46349  -5445204.37745  24588190.240    24588196.007
  22711720.344   -15958970.27349 -12126303.60546  22711720.304    22711725.538
  20647274.277   -26789570.54049 -20814845.10148  20647273.470    20647279.017
  20464082.080   -27795440.58249 -21630834.42948  20464081.541    20464085.687
  24107147.689    -7701399.54649  -5682714.44145  24107147.270    24107154.013
 03  2 26  1 41 30.0000000  0 10G 3G 6G14G23G17G29G26G15G18G16
  23418553.657    -9351148.39749  -7236303.66046  23418553.243    23418559.804
  22994262.635   -15788695.30349 -12278943.42146  22994262.253    22994268.855
  24189119.793    -6435212.39849  -4983982.24545  24189119.371    24189127.022
  21216116.594   -22570437.27949 -17556224.08247  21216115.969    21216121.361
  20783652.935   -27730735.05549 -21303249.28048  20783652.227    20783657.820
  24605309.039    -7223723.06349  -5375106.90245  24605308.709    24605314.400
  22727305.915   -15877067.62849 -12062483.33346  22727305.864    22727311.055
  20640676.184   -26824243.55749 -20841863.00048  20640675.408    20640680.921
  20463160.482   -27800283.41849 -21634608.03748  20463159.949    20463164.080
  24116345.013    -7653067.38849  -5645053.02545  24116344.601    24116351.322
 03  2 26  1 42  0.0000000  0 10G 3G 6G14G23G17G29G26G15G18G16
  23402616.257    -9434899.75149  -7301564.37746  23402615.816    23402622.352
  23013907.823   -15685459.28449 -12198499.79346  23013907.463    23013914.054
  24167594.904    -6548326.04649  -5072122.54245  24167594.463    24167601.981
  21224664.487   -22525517.57649 -17521221.69247  21224663.871    21224669.270
  20785708.863   -27719931.17749 -21294830.65248  20785708.124    20785713.709
  24622475.805    -7133511.19249  -5304811.90845  24622475.475    24622481.191
  22742977.258   -15794714.02749 -11998311.67246  22742977.215    22742982.415
  20634120.731   -26858692.58349 -20868706.36048  20634119.946    20634125.429
  20462306.089   -27804773.26249 -21638106.58648  20462305.561    20462309.673
  24125604.566    -7604407.94049  -5607136.59545  24125604.172    24125610.874
 03  2 26  1 42 30.0000000  0 10G 3G 6G14G23G17G29G26G15G18G16
  23386739.819    -9518330.43749  -7366575.22946  23386739.417    23386745.990
  23033592.745   -15582014.12749 -12117893.21646  23033592.425    23033599.069
  24146080.863    -6661382.51449  -5160218.28845  24146080.447    24146087.840
  21233250.646   -22480397.05749 -17486062.82147  21233250.037    21233255.425
  20787813.599   -27708870.49749 -21286211.91748  20787812.867    20787818.454
  24639690.388    -7043047.77649  -5234320.90245  24639689.997    24639695.629
  22758734.083   -15711911.16649 -11933789.94446  22758734.086    22758739.283
  20627608.316   -26892915.53249 -20895373.55848  20627607.515    20627612.998
  20461518.811   -27808910.20149 -21641330.14748  20461518.276    20461522.390
  24134926.060    -7555423.04049  -5568966.57045  24134925.639    24134932.362
 03  2 26  1 43  0.0000000  0 10G 3G 6G14G23G17G29G26G15G18G16
  23370924.728    -9601438.65549  -7431334.82346  23370924.366    23370930.944
  23053316.848   -15478363.02349 -12037126.15446  23053316.571    23053323.294
  24124578.100    -6774379.68149  -5248267.83345  24124577.653    24124584.942
  21241874.534   -22435078.10349 -17450749.32947  21241873.917    21241879.300
  20789967.316   -27697552.51649 -21277392.68447  20789966.586    20789972.171
  24656952.214    -6952336.07649  -5163636.42145  24656951.967    24656957.357
  22774575.761   -15628662.87149 -11868921.12446  22774575.739    22774580.943
  20621138.940   -26926912.23349 -20921864.46148  20621138.143    20621143.612
  20460798.392   -27812696.00149 -21644280.09348  20460797.864    20460801.956
  24144308.923    -7506116.17949  -5530545.65945  24144308.443    24144315.196
 03  2 26  1 43 30.0000000  0 10G 3G 6G14G23G17G29G26G15G18G16
  23355171.547    -9684221.99849  -7495841.25746  23355171.152    23355177.714
  23073079.754   -15374508.64249 -11956200.68046  23073079.409    23073086.116
  24103087.062    -6887315.11349  -5336269.27045  24103086.651    24103093.796
  21250535.862   -22389562.43449 -17415282.54947  21250535.260    21250540.606
  20792170.120   -27685976.48949 -21268372.37647  20792169.401    20792174.967
  24674260.787    -6861378.76049  -5092760.55745  24674260.535    24674266.088
  22790501.593   -15544972.11949 -11803707.52646  22790501.564    22790506.770
  20614712.804   -26960681.71549 -20948178.29948  20614712.002    20614717.458
  20460144.542   -27816131.94749 -21646957.42248  20460144.007    20460148.108
  24153752.415    -7456490.15449  -5491876.05045  24153751.966    24153758.828
 03  2 26  1 44  0.0000000  0 10G 3G 6G14G23G17G29G26G15G18G16
  23339480.814    -9766677.21149  -7560092.01446  23339480.424    23339486.892
  23092880.970   -15270452.65549 -11875118.11146  23092880.621    23092887.268
  24081608.442    -7000185.47149  -5424220.01145  24081607.910    24081615.084
  21259234.489   -22343851.04749 -17379663.26547  21259233.879    21259239.187
  20794422.345   -27674140.82149 -21259149.75547  20794421.621    20794427.183
  24691615.692    -6770177.31749  -5021694.47045  24691615.591    24691621.057
  22806511.182   -15460840.78349 -11738150.62846  22806511.180    22806516.388
  20608330.225   -26994222.20049 -20974313.70948  20608329.431    20608334.883
  20459557.139   -27819218.48849 -21649362.49248  20459556.614    20459560.693
  24163256.264    -7406547.01949  -5452959.34445  24163255.866    24163262.666
 03  2 26  1 44 30.0000000  0 10G 3G 6G14G23G17G29G26G15G18G16
  23323852.943    -9848801.99149  -7624085.29246  23323852.583    23323858.984
  23112720.090   -15166197.41849 -11793880.28246  23112719.747    23112726.417
  24060142.613    -7112988.10349  -5512117.98145  24060142.110    24060149.284
  21267970.024   -22297945.51349 -17343892.69447  21267969.401    21267974.687
  20796724.190   -27662044.39449 -21249723.94447  20796723.478    20796729.009
  24709016.658    -6678734.49049  -4950440.28545  24709016.504    24709022.186
  22822604.080   -15376272.06049 -11672252.88846  22822604.030    22822609.207
  20601991.436   -27027532.45749 -21000269.71648  20601990.659    20601996.111
  20459036.142   -27821956.27449 -21651495.80048  20459035.614    20459039.697
  24172820.058    -7356289.10249  -5413797.35045  24172819.656    24172826.420
 03  2 26  1 45  0.0000000  0 10G 3G 6G14G23G17G29G26G15G18G16
  23308288.118    -9930595.64549  -7687820.53946  23308287.718    23308294.037
  23132596.264   -15061747.26049 -11712490.56746  23132595.967    23132602.616
  24038689.892    -7225722.04349  -5599962.43745  24038689.332    24038696.515
  21276741.776   -22251849.51549 -17307973.71447  21276741.189    21276746.439
  20799075.524   -27649688.10649 -21240095.64847  20799074.810    20799080.334
  24726462.813    -6587054.50849  -4879001.33045  24726462.556    24726468.362
  22838779.262   -15291270.40149 -11606017.79946  22838779.242    22838784.445
  20595696.402   -27060613.07949 -21026046.79448  20595695.607    20595701.047
  20458580.860   -27824348.44549 -21653359.80148  20458580.320    20458584.446
  24182442.800    -7305720.99749  -5374393.65545  24182442.383    24182449.240
 03  2 26  1 45 30.0000000  0 10G 3G 6G14G23G17G29G26G15G18G16
  23292787.243   -10012053.08549  -7751293.80546  23292786.819    23292793.162
  23152509.637   -14957101.72849 -11630948.60746  23152509.341    23152515.994
  24017251.162    -7338382.08649  -5687749.31545  24017250.584    24017257.873
  21285550.019   -22205561.96549 -17271905.47447  21285549.411    21285554.643
  20801477.033   -27637067.97149 -21230261.75647  20801476.298    20801481.813
  24743954.104    -6495137.02749  -4807377.31345  24743953.857    24743959.694
  22855036.920   -15205836.09149 -11539445.60046  22855036.807    22855042.047
  20589445.786   -27093460.12849 -21051641.86748  20589444.984    20589450.431
  20458191.759   -27826393.02149 -21654952.94848  20458191.239    20458195.384
  24192124.673    -7254842.75849  -5334748.30045  24192124.301    24192131.110
 03  2 26  1 46  0.0000000  0 10G 3G 6G14G23G17G29G26G15G18G16
  23277350.409   -10093173.87649  -7814504.73646  23277350.006    23277356.300
  23172459.343   -14852265.45649 -11549258.01546  23172459.070    23172465.741
  23995826.651    -7450967.60249  -5775478.11845  23995826.106    23995833.395
  21294393.951   -22159086.64949 -17235690.91947  21294393.338    21294398.562
  20803928.418   -27624185.86449 -21220223.72447  20803927.681    20803933.179
  24761489.714    -6402986.91249  -4735571.99345  24761489.438    24761495.299
  22871375.841   -15119974.23449 -11472540.23546  22871375.727    22871381.043
  20583239.420   -27126074.58549 -21077055.70148  20583238.620    20583244.051
  20457868.181   -27828093.33749 -21656277.83848  20457867.643    20457871.791
  24201864.636    -7203659.34149  -5294865.15245  24201864.169    24201871.065
 03  2 26  1 46 30.0000000  0 10G 3G 6G14G23G17G29G26G15G18G16
  23261978.433   -10173954.06149  -7877450.26446  23261977.988    23261984.270
  23192445.179   -14747239.37749 -11467419.52146  23192444.895    23192451.581
  23974417.206    -7563474.39349  -5863145.57745  23974416.587    23974423.902
  21303273.584   -22112423.59049 -17199330.06647  21303273.001    21303278.228
  20806430.144   -27611039.24649 -21209979.57847  20806429.419    20806434.879
  24779069.507    -6310605.06049  -4663586.10745  24779069.317    24779075.010
  22887795.803   -15033686.10549 -11405302.70046  22887795.679    22887801.085
  20577077.856   -27158453.66949 -21102286.12348  20577077.076    20577082.480
  20457610.144   -27829448.95149 -21657334.12748  20457609.612    20457613.768
  24211662.371    -7152171.89049  -5254745.08745  24211661.905    24211668.837
 03  2 26  1 47  0.0000000  0 10G 3G 6G14G23G17G29G26G15G18G16
  23246671.469   -10254392.82749  -7940129.75146  23246670.975    23246677.248
  23212466.330   -14642027.40149 -11385436.17646  23212466.054    23212472.844
  23953022.990    -7675901.26349  -5950750.75245  23953022.378    23953029.708
  21312188.392   -22065575.97449 -17162825.40647  21312187.799    21312193.011
  20808982.178   -27597628.33349 -21199529.49147  20808981.422    20808986.886
  24796692.561    -6217995.41549  -4591422.71745  24796692.248    24796698.005
  22904296.147   -14946976.14049 -11337736.47346  22904296.036    22904301.406
  20570961.018   -27190597.71249 -21127333.39648  20570960.241    20570965.646
  20457417.311   -27830462.11749 -21658123.57848  20457416.785    20457420.932
  24221517.190    -7100384.45449  -5214391.27045  24221516.693    24221523.671
 03  2 26  1 47 30.0000000  0 10G 3G 6G14G23G17G29G26G15G18G16
  23231430.123   -10334486.67449  -8002540.47246  23231429.616    23231435.793
  23232522.578   -14536631.03549 -11303309.15146  23232522.299    23232529.134
  23931644.616    -7788244.51549  -6038290.76045  23931643.958    23931651.341
  21321138.196   -22018544.46549 -17126177.45647  21321137.594    21321142.782
  20811584.827   -27583951.00149 -21188871.80147  20811584.080    20811589.553
  24814358.682    -6125159.44049  -4519082.97545  24814358.417    24814364.080
  22920876.437   -14859846.27049 -11269843.03546  22920876.348    22920881.691
  20564889.346   -27222504.40849 -21152195.72548  20564888.564    20564893.977
  20457289.645   -27831132.96249 -21658646.28448  20457289.124    20457293.264
  24231428.694    -7048298.82749  -5173805.08145  24231428.231    24231435.221
 03  2 26  1 48  0.0000000  0 10G 3G 6G14G23G17G29G26G15G18G16
  23216254.628   -10414234.36449  -8064681.46146  23216254.102    23216260.262
  23252613.262   -14431053.64649 -11221041.06546  23252612.971    23252619.886
  23910282.438    -7900502.54549  -6125764.35845  23910281.817    23910289.138
  21330122.475   -21971331.60149 -17089388.19147  21330121.874    21330127.092
  20814238.082   -27570007.78749 -21178006.93247  20814237.353    20814242.854
  24832067.246    -6032100.47349  -4446569.47345  24832066.918    24832072.597
  22937535.905   -14772300.25749 -11201625.34546  22937535.824    22937541.097
  20558862.912   -27254173.43349 -21176872.85648  20558862.136    20558867.538
  20457226.709   -27831463.61649 -21658903.90548  20457226.187    20457230.298
  24241396.386    -6995918.66049  -5132989.40245  24241395.921    24241402.944
 03  2 26  1 48 30.0000000  0 10G 3G 6G14G23G17G29G26G15G18G16
  23201145.810   -10493631.66149  -8126549.40046  23201145.271    23201151.404
  23272738.241   -14325296.09749 -11138632.60246  23272737.989    23272744.958
  23888937.352    -8012671.08049  -6213168.22745  23888936.713    23888943.880
  21339141.238   -21923937.44249 -17052457.65347  21339140.650    21339145.870
  20816942.479   -27555795.95649 -21166932.75247  20816941.751    20816947.249
  24849817.873    -5938819.48549  -4373882.97945  24849817.659    24849823.286
  22954274.265   -14684339.54149 -11133084.51246  22954274.187    22954279.457
  20552882.168   -27285602.25849 -21201362.81748  20552881.386    20552886.795
  20457228.634   -27831453.46549 -21658895.96248  20457228.106    20457232.175
  24251419.893    -6943245.40749  -5091945.33145  24251419.242    24251426.305
 03  2 26  1 49  0.0000000  0 10G 3G 6G14G23G17G29G26G15G18G16
  23186103.738   -10572677.65649  -8188143.61146  23186103.265    23186109.411
  23292896.779   -14219362.24649 -11056086.76546  23292896.513    23292903.466
  23867609.593    -8124748.73749  -6300501.26145  23867608.908    23867615.947
  21348193.927   -21876365.10149 -17015388.27847  21348193.333    21348198.554
  20819697.795   -27541316.55049 -21155650.06747  20819697.084    20819702.563
  24867609.978    -5845320.54649  -4301026.68145  24867609.912    24867615.498
  22971090.643   -14595968.46949 -11064223.92546  22971090.635    22971095.841
  20546947.086   -27316791.06949 -21225665.75348  20546946.305    20546951.720
  20457294.889   -27831105.18349 -21658624.53848  20457294.370    20457298.422
  24261498.205    -6890283.18849  -5050676.09345  24261497.635    24261504.659
 03  2 26  1 49 30.0000000  0 10G 3G 6G14G23G17G29G26G15G18G16
  23171129.197   -10651368.79049  -8249461.29546  23171128.782    23171134.941
  23313088.648   -14113253.42749 -10973404.58846  23313088.374    23313095.279
  23846299.777    -8236731.80649  -6387760.59845  23846299.161    23846306.038
  21357280.458   -21828614.96549 -16978180.36047  21357279.863    21357285.078
  20822504.591   -27526566.61249 -21144156.58047  20822503.881    20822509.362
  24885443.352    -5751605.06949  -4228001.60345  24885443.256    24885448.847
  22987984.800   -14507188.88849 -10995045.00046  22987984.749    22987990.026
  20541058.167   -27347737.45049 -21249779.78748  20541057.392    20541062.809
  20457425.538   -27830418.62749 -21658089.53048  20457425.009    20457429.056
  24271631.360    -6837033.26449  -5009182.67245  24271630.810    24271637.786
 03  2 26  1 50  0.0000000  0  9G 3G 6G14G23G17G26G15G18G16
  23156222.556   -10729702.82349  -8310500.72246  23156222.211    23156228.420
  23333313.272   -14006972.34449 -10890588.19746  23333313.033    23333319.938
  23825008.436    -8348617.92649  -6474944.38445  23825007.851    23825014.674
  21366400.503   -21780688.85449 -16940835.31747  21366399.889    21366405.079
  20825362.905   -27511545.91349 -21132452.11247  20825362.182    20825367.640
  23004956.059   -14418003.89849 -10925550.19046  23004956.060    23004961.293
  20535215.489   -27378440.67849 -21273704.35248  20535214.717    20535220.129
  20457620.319   -27829394.97549 -21657291.84648  20457619.775    20457623.805
  24281818.592    -6783498.86049  -4967467.56645  24281818.108    24281824.982
 03  2 26  1 50 30.0000000  0  9G 3G 6G14G23G17G26G15G18G16
  23141384.534   -10807677.09849  -8371259.81446  23141384.133    23141390.374
  23353570.268   -13900521.17849 -10807639.28246  23353570.030    23353576.989
  23803736.149    -8460404.10849  -6562050.29045  23803735.557    23803742.236
  21375553.755   -21732588.10149 -16903354.19547  21375553.133    21375558.341
  20828272.956   -27496253.41749 -21120535.86147  20828272.227    20828277.683
  23022004.013   -14328416.32549 -10855741.67246  23022003.978    23022009.262
  20529419.406   -27408899.18649 -21297438.22448  20529418.629    20529424.069
  20457879.048   -27828035.09349 -21656232.16548  20457878.505    20457882.549
  24292059.492    -6729682.44449  -4925532.72045  24292059.017    24292065.885
 03  2 26  1 51  0.0000000  0  9G 3G 6G14G23G17G26G15G18G16
  23126614.990   -10885291.30449  -8431738.33646  23126614.568    23126620.793
  23373858.843   -13793904.39649 -10724561.30346  23373858.595    23373865.485
  23782482.969    -8572089.59949  -6649077.74045  23782482.430    23782489.046
  21384739.566   -21684316.18849 -16865739.69747  21384738.963    21384744.171
  20831234.600   -27480689.67049 -21108408.24647  20831233.887    20831239.323
  23039127.647   -14238430.98549 -10785623.20946  23039127.654    23039132.887
  20523669.762   -27439113.51149 -21320981.82748  20523668.990    20523674.434
  20458201.170   -27826342.17449 -21654912.97948  20458200.632    20458204.672
  24302353.231    -6675588.53849  -4883381.63345  24302352.791    24302359.607
 03  2 26  1 51 30.0000000  0  9G 3G 6G14G23G17G26G15G18G16
  23111914.707   -10962541.44549  -8491933.16446  23111914.275    23111920.567
  23394178.759   -13687123.01849 -10641355.06346  23394178.487    23394185.333
  23761249.765    -8683670.19449  -6736023.46645  23761249.170    23761255.707
  21393957.944   -21635873.25549 -16827991.93347  21393957.332    21393962.519
  20834248.240   -27464852.63849 -21096067.68147  20834247.521    20834252.993
  23056326.820   -14148049.34249 -10715195.93246  23056326.797    23056331.941
  20517967.156   -27469080.88649 -21344333.00048  20517966.387    20517971.820
  20458586.865   -27824315.36349 -21653333.61348  20458586.315    20458590.339
  24312699.406    -6621218.67849  -4841015.54345  24312699.018    24312705.877
 03  2 26  1 52  0.0000000  0  9G 3G 6G14G23G17G26G15G18G16
  23097283.844   -11039426.74249  -8551843.69546  23097283.373    23097289.759
  23414529.160   -13580181.08849 -10558023.72845  23414528.869    23414535.674
  23740036.848    -8795144.64349  -6822886.48545  23740036.155    23740042.706
  21403208.214   -21587262.50749 -16790113.40847  21403207.608    21403212.803
  20837313.789   -27448743.03249 -21083514.71947  20837313.078    20837318.568
  23073600.406   -14057276.04649 -10644463.47446  23073600.409    23073605.544
  20512311.476   -27498801.71149 -21367492.05648  20512310.683    20512316.101
  20459035.517   -27821957.53849 -21651496.31648  20459034.975    20459038.973
  24323097.394    -6566577.17149  -4798437.77545  24323096.852    24323103.947
 03  2 26  1 52 30.0000000  0  9G 3G 6G14G23G17G26G15G18G16
  23082723.300   -11115942.71549  -8611466.44446  23082722.873    23082729.189
  23434910.049   -13473079.15449 -10474567.70745  23434909.690    23434916.526
  23718844.953    -8906508.64149  -6909663.44645  23718844.196    23718850.709
  21412490.553   -21538483.52449 -16752103.78947  21412489.942    21412495.115
  20840431.758   -27432357.88849 -21070747.05147  20840431.060    20840436.538
  23090948.359   -13966111.92949 -10573426.47246  23090948.409    23090953.482
  20506703.305   -27528272.89549 -21390456.58448  20506702.495    20506707.926
  20459547.262   -27819268.06149 -21649400.58848  20459546.731    20459550.718
  24333546.802    -6511664.94249  -4755649.04745  24333546.117    24333553.372
 03  2 26  1 53  0.0000000  0  9G 3G 6G14G23G17G26G15G18G16
  23068233.127   -11192088.64349  -8670800.85846  23068232.695    23068238.982
  23455320.601   -13365821.10649 -10390990.03645  23455320.270    23455327.087
  23697674.224    -9017760.85249  -6996353.32545  23697673.492    23697679.913
  21421804.329   -21489539.36849 -16713965.46547  21421803.704    21421808.875
  20843602.034   -27415697.78849 -21057765.13247  20843601.325    20843606.803
  23108369.792   -13874561.70349 -10502088.61546  23108369.779    23108374.887
  20501142.547   -27557494.69449 -21413226.78548  20501141.745    20501147.184
  20460121.686   -27816249.40549 -21647048.35948  20460121.143    20460125.127
  24344047.005    -6456486.22449  -4712652.65745  24344046.397    24344053.513
 03  2 26  1 53 30.0000000  0  9G 3G 6G14G23G17G26G15G18G16
  23053813.958   -11267861.71549  -8729844.72846  23053813.527    23053819.740
  23475760.362   -13258408.94849 -10307292.28645  23475760.119    23475766.971
  23676525.320    -9128898.07149  -7082953.61045  23676524.714    23676531.061
  21431149.285   -21440431.08749 -16675699.25347  21431148.665    21431153.838
  20846825.016   -27398761.07449 -21044567.67447  20846824.284    20846829.743
  23125864.250   -13782627.67949 -10430451.69446  23125864.237    23125869.236
  20495629.554   -27586465.43749 -21435801.36248  20495628.752    20495634.191
  20460758.701   -27812901.90749 -21644439.89548  20460758.162    20460762.121
  24354597.480    -6401043.28649  -4669450.39945  24354596.873    24354604.031
 03  2 26  1 54  0.0000000  0  9G 3G 6G14G23G17G26G15G18G16
  23039466.406   -11343258.48649  -8788595.38246  23039465.980    23039472.113
  23496229.273   -13150844.07649 -10223475.53445  23496229.059    23496235.885
  23655399.060    -9239916.44949  -7169461.30445  23655398.489    23655404.842
  21440525.389   -21391159.27649 -16637305.60547  21440524.764    21440529.943
  20850100.954   -27381545.83649 -21031153.18247  20850100.216    20850105.657
  23143431.285   -13690311.89449 -10358517.30546  23143431.326    23143436.303
  20490164.782   -27615182.76649 -21458178.46748  20490163.985    20490169.417
  20461458.188   -27809225.95149 -21641575.48248  20461457.648    20461461.598
  24365198.032    -6345337.93949  -4626043.66945  24365197.395    24365204.483
 03  2 26  1 54 30.0000000  0  9G 3G 6G14G23G17G26G15G18G16
  23025190.621   -11418278.17449  -8847052.21646  23025190.202    23025196.248
  23516726.630   -13043130.19749 -10139542.66445  23516726.379    23516733.214
  23634295.657    -9350814.82149  -7255875.47545  23634295.089    23634301.472
  21449932.098   -21341726.76449 -16598786.74147  21449931.461    21449936.606
  20853429.824   -27364052.41549 -21017521.92947  20853429.082    20853434.532
  23161070.221   -13597618.70049 -10286288.82046  23161070.255    23161075.197
  20484748.298   -27643646.63249 -21480358.07348  20484747.484    20484752.904
  20462219.729   -27805223.86849 -21638456.95248  20462219.210    20462223.130
  24375847.595    -6289374.30849  -4582435.68745  24375846.922    24375853.984
 03  2 26  1 55  0.0000000  0  9G 3G 6G14G23G17G26G15G18G16
  23010987.071   -11492917.89149  -8905212.95346  23010986.666    23010992.721
  23537251.916   -12935269.43949 -10055495.34545  23537251.709    23537258.515
  23613215.663    -9461590.12649  -7342193.75545  23613215.092    23613221.500
  21459369.083   -21292134.83249 -16560143.65447  21459368.448    21459373.587
  20856811.790   -27346279.84749 -21003673.15647  20856811.040    20856816.519
  23178780.507   -13504550.62349 -10213768.21546  23178780.534    23178785.442
  20479380.289   -27671855.54249 -21502339.00448  20479379.471    20479384.885
  20463043.236   -27800896.26349 -21635084.76748  20463042.720    20463046.610
  24386545.754    -6233154.88349  -4538628.36745  24386545.226    24386552.152
 03  2 26  1 55 30.0000000  0  9G 3G 6G14G23G17G26G15G18G16
  22996856.435   -11567174.79349  -8963075.39746  22996855.988    22996862.025
  23557804.776   -12827263.87149  -9971335.18445  23557804.472    23557811.303
  23592159.762    -9572239.29749  -7428413.77545  23592159.248    23592165.528
  21468836.245   -21242384.51649 -16521377.15347  21468835.604    21468840.744
  20860247.093   -27328226.95549 -20989605.94447  20860246.372    20860251.857
  23196561.652   -13411110.33249 -10140957.57946  23196561.654    23196566.566
  20474061.124   -27699807.71749 -21524119.88848  20474060.323    20474065.710
  20463928.489   -27796244.25349 -21631459.79748  20463927.967    20463931.844
  24397292.296    -6176681.95249  -4494623.51945  24397291.726    24397298.732
 03  2 26  1 56  0.0000000  0  9G 3G 6G14G23G17G26G15G18G16
  22982798.769   -11641047.94149  -9020638.81446  22982798.350    22982804.385
  23578384.451   -12719117.07849  -9887064.98145  23578384.104    23578390.991
  23571128.140    -9682760.67049  -7514534.19745  23571127.628    23571133.856
  21478333.000   -21192478.51649 -16482489.33747  21478332.340    21478337.505
  20863735.797   -27309893.68749 -20975320.25947  20863735.087    20863740.555
  23214412.778   -13317302.00249 -10067860.16045  23214412.716    23214417.608
  20468790.862   -27727503.05449 -21545700.63748  20468790.062    20468795.427
  20464875.078   -27791269.73049 -21627583.52248  20464874.552    20464878.413
  24408086.204    -6119959.74249  -4450424.41745  24408085.514    24408092.447
 03  2 26  1 56 30.0000000  0  9G 3G 6G14G23G17G26G15G18G16
  22968814.863   -11714533.17149  -9077899.96246  22968814.461    22968820.483
  23598990.844   -12610829.87449  -9802685.36445  23598990.479    23598997.457
  23550121.666    -9793149.69949  -7600551.48445  23550121.131    23550127.408
  21487859.382   -21142416.75249 -16443480.14547  21487858.745    21487863.931
  20867278.312   -27291277.51449 -20960814.12647  20867277.604    20867283.059
  23232333.685   -13223126.76749  -9994476.82745  23232333.620    23232338.528
  20463570.029   -27754938.65349 -21567078.99048  20463569.236    20463574.568
  20465883.184   -27785972.04849 -21623455.42948  20465882.644    20465886.491
  24418927.323    -6062989.24749  -4406031.86745  24418926.699    24418933.637
 03  2 26  1 57  0.0000000  0  9G 3G 6G14G23G17G26G15G18G16
  22954904.845   -11787630.30749  -9134858.70446  22954904.430    22954910.481
  23619623.016   -12502406.86649  -9718199.93145  23619622.635    23619629.621
  23529140.401    -9903406.17949  -7686465.47845  23529139.846    23529146.118
  21497414.778   -21092202.72549 -16404352.31147  21497414.120    21497419.310
  20870874.437   -27272379.66149 -20946088.50447  20870873.735    20870879.180
  23250323.431   -13128590.10549  -9920811.86745  23250323.316    23250328.238
  20458398.426   -27782115.34049 -21588255.59848  20458397.636    20458402.960
  20466952.086   -27780354.67649 -21619078.22948  20466951.564    20466955.406
  24429814.821    -6005775.33849  -4361449.63745  24429814.241    24429821.147
 03  2 26  1 57 30.0000000  0 10G 3G 6G14G23G17G26G15G18G 9G16
  22941069.707   -11860334.05749  -9191510.89946  22941069.328    22941075.323
  23640281.113   -12393847.54149  -9633608.27445  23640280.725    23640287.839
  23508185.583   -10013524.19549  -7772271.59045  23508185.022    23508191.173
  21506999.429   -21041835.00249 -16365104.71347  21506998.765    21507003.966
  20874524.916   -27253196.21049 -20931140.33547  20874524.198    20874529.669
  23268381.982   -13033691.91749  -9846865.20445  23268381.904    23268386.793
  20453276.873   -27809029.12949 -21609227.35148  20453276.092    20453281.412
  20468082.199   -27774415.85249 -21614450.54548  20468081.672    20468085.539
  24462372.306    -8303840.09849  -6427144.39645  24462371.992    24462378.369
  24440748.595    -5948318.18649  -4316677.88345  24440747.972    24440754.938
 03  2 26  1 58  0.0000000  0 10G 3G 6G14G23G17G26G15G18G 9G16
  22927309.336   -11932644.95949  -9247856.98846  22927308.975    22927314.957
  23660964.107   -12285157.33349  -9548914.61945  23660963.746    23660970.895
  23487257.041   -10123504.10849  -7857970.07745  23487256.471    23487262.464
  21516612.508   -20991317.92049 -16325740.73247  21516611.880    21516617.044
  20878229.297   -27233729.40949 -20915971.37547  20878228.573    20878234.048
  23286508.144   -12938438.11849  -9772641.43845  23286508.036    23286512.883
  20448205.080   -27835681.51449 -21629995.41448  20448204.283    20448209.609
  20469272.746   -27768159.24049 -21609575.23948  20469272.218    20469276.088
  24449124.218    -8373459.06049  -6481392.84445  24449123.844    24449130.294
  24451727.605    -5890623.17449  -4271720.74945  24451727.061    24451733.914
 03  2 26  1 58 30.0000000  0 10G 3G 6G14G23G17G26G15G18G 9G16
  22913624.419   -12004559.65749  -9303894.33846  22913624.018    22913629.904
  23681671.778   -12176337.64049  -9464120.05645  23681671.430    23681678.553
  23466355.515   -10233341.97349  -7943557.88145  23466354.950    23466360.771
  21526253.932   -20940651.95549 -16286260.73747  21526253.285    21526258.433
  20881988.026   -27213976.99749 -20900579.86047  20881987.321    20881992.785
  23304701.555   -12842830.54549  -9698142.00245  23304701.551    23304706.380
  20443183.456   -27862070.12349 -21650557.93548  20443182.669    20443187.991
  20470523.773   -27761585.04749 -21604452.46748  20470523.242    20470527.106
  24435911.774    -8442890.60349  -6535495.23045  24435911.510    24435917.711
  24462751.501    -5832692.19149  -4226579.74945  24462750.900    24462757.862
 03  2 26  1 59  0.0000000  0 10G 3G 6G14G23G17G26G15G18G 9G16
  22900015.295   -12076075.92949  -9359621.23346  22900014.870    22900020.712
  23702403.668   -12067390.88549  -9379226.49145  23702403.358    23702410.439
  23445481.438   -10343035.19749  -8029032.97545  23445480.842    23445486.707
  21535923.369   -20889838.56349 -16246665.86347  21535922.721    21535927.877
  20885801.309   -27193937.81749 -20884964.88847  20885800.601    20885806.112
  23322961.725   -12746872.35249  -9623369.37045  23322961.720    23322966.603
  20438212.242   -27888193.66549 -21670913.90848  20438211.471    20438216.783
  20471834.915   -27754694.59949 -21599083.26348  20471834.394    20471838.263
  24422735.685    -8512131.43749  -6589449.03745  24422735.402    24422741.638
  24473819.737    -5774528.30349  -4181257.25645  24473819.248    24473826.231
 03  2 26  1 59 30.0000000  0 10G 3G 6G14G23G17G26G15G18G 9G16
  22886482.277   -12147191.81949  -9415036.14546  22886481.848    22886487.671
  23723159.339   -11958319.79249  -9294236.03845  23723158.938    23723165.890
  23424635.376   -10452581.36549  -8114393.48345  23424634.794    23424640.583
  21545620.506   -20838879.50649 -16206957.48047  21545619.868    21545625.047
  20889669.250   -27173611.60049 -20869126.24847  20889668.553    20889674.029
  23341288.068   -12650566.67649  -9548325.97145  23341288.003    23341292.934
  20433291.735   -27914051.09549 -21691062.52948  20433290.977    20433296.262
  20473206.034   -27747489.21549 -21593468.65248  20473205.505    20473209.380
  24409596.475    -8581178.41249  -6643251.78945  24409596.048    24409602.430
  24484931.725    -5716134.56149  -4135755.66745  24484931.205    24484938.200
 03  2 26  2  0  0.0000000  0 10G 3G 6G14G23G17G26G15G18G 9G16
  22873025.880   -12217905.09049  -9470137.32646  22873025.464    22873031.308
  23743938.116   -11849126.90349  -9209150.68045  23743937.744    23743944.571
  23403817.786   -10561977.89449  -8199637.37845  23403817.115    23403822.944
  21555345.122   -20787776.31049 -16167136.78547  21555344.506    21555349.670
  20893592.019   -27152997.21849 -20853063.06947  20893591.298    20893596.762
  23359679.946   -12553916.78749  -9473014.36745  23359679.910    23359684.869
  20428422.133   -27939641.08649 -21711002.75448  20428421.348    20428426.606
  20474636.888   -27739969.88349 -21587609.40948  20474636.374    20474640.235
  24396494.637    -8650028.64749  -6696901.23845  24396494.259    24396500.538
  24496086.868    -5657513.93549  -4090077.28245  24496086.422    24496093.440
 03  2 26  2  0 30.0000000  0 10G 3G 6G14G23G17G26G15G18G 9G16
  22859646.761   -12288212.60449  -9524922.34446  22859646.346    22859652.173
  23764739.697   -11739813.76949  -9123971.62145  23764739.363    23764746.154
  23383029.344   -10671221.06049  -8284761.78245  23383028.696    23383034.525
  21565097.029   -20736529.61949 -16127204.28147  21565096.424    21565101.551
  20897569.922   -27132092.99349 -20836774.04347  20897569.204    20897574.682
  23378136.909   -12456924.67649  -9397436.09345  23378136.783    23378141.864
  20423603.772   -27964961.46549 -21730732.89048  20423602.994    20423608.259
  20476127.421   -27732137.06449 -21581505.89248  20476126.892    20476130.764
  24383430.988    -8718677.61049  -6750393.85045  24383430.573    24383437.042
  24507284.893    -5598668.21649  -4044223.50345  24507284.350    24507291.398
 03  2 26  2  1  0.0000000  0 10G 3G 6G14G23G17G26G15G18G 9G16
  22846345.010   -12358113.27049  -9579390.33746  22846344.595    22846350.493
  23785563.479   -11630384.11949  -9038701.76345  23785563.137    23785569.870
  23362270.339   -10780309.30149  -8369765.45845  23362269.767    23362275.634
  21574875.696   -20685142.13549 -16087162.06147  21574875.085    21574880.228
  20901602.851   -27110899.76149 -20820259.80747  20901602.132    20901607.591
  23396658.168   -12359594.59149  -9321594.46145  23396657.981    23396663.142
  20418836.786   -27990012.08949 -21750252.82348  20418836.014    20418841.257
  20477677.151   -27723993.03949 -21575159.86748  20477676.639    20477680.497
  24370406.115    -8787123.40949  -6803728.15545  24370405.759    24370412.107
  24518524.779    -5539601.64049  -3998197.64945  24518524.369    24518531.448
 03  2 26  2  1 30.0000000  0 10G 3G 6G14G23G17G26G15G18G 9G16
  22833121.179   -12427604.68549  -9633539.42046  22833120.759    22833126.687
  23806408.984   -11520840.36849  -8953343.00645  23806408.607    23806415.355
  23341541.365   -10889239.88849  -8454646.28145  23341540.828    23341546.728
  21584680.975   -20633615.06349 -16047011.07347  21584680.357    21584685.506
  20905691.097   -27089415.67449 -20803518.93247  20905690.382    20905695.849
  23415243.101   -12261929.34849  -9245491.67345  23415242.965    23415248.199
  20414121.445   -28014791.32649 -21769561.28648  20414120.658    20414125.895
  20479285.970   -27715538.60549 -21568571.96748  20479285.456    20479289.291
  24357420.441    -8855362.70449  -6856901.54445  24357420.219    24357426.461
  24529806.487    -5480316.57949  -3952001.53745  24529806.028    24529813.105
 03  2 26  2  2  0.0000000  0 10G 3G 6G14G23G17G26G15G18G 9G16
  22819975.757   -12496683.91949  -9687367.33746  22819975.370    22819981.302
  23827275.847   -11411184.31649  -8867896.75145  23827275.510    23827282.247
  23320843.134   -10998009.43749  -8539401.62746  23320842.527    23320848.444
  21594512.687   -20581949.27949 -16006751.99547  21594512.021    21594517.171
  20909834.888   -27067639.83649 -20786550.72747  20909834.173    20909839.639
  23433891.461   -12163931.46349  -9169129.68945  23433891.325    23433896.615
  20409458.021   -28039297.59649 -21788657.05448  20409457.247    20409462.456
  20480953.749   -27706774.29949 -21561742.60848  20480953.241    20480957.055
  24344474.904    -8923391.70849  -6909911.06045  24344474.701    24344480.936
  24541129.177    -5420815.55349  -3905637.10845  24541128.670    24541135.812
 03  2 26  2  2 30.0000000  0 10G 3G 6G14G23G17G26G15G18G 9G16
  22806909.049   -12565349.74049  -9740873.11546  22806908.666    22806914.556
  23848163.431   -11301419.50049  -8782365.75645  23848163.060    23848169.904
  23300175.783   -11106616.32849  -8624030.24046  23300175.245    23300181.136
  21604370.286   -20530147.05149 -15966386.59747  21604369.626    21604374.763
  20914034.188   -27045572.35249 -20769355.26647  20914033.476    20914038.927
  23452602.313   -12065604.83649  -9092511.52845  23452602.212    23452607.553
  20404846.698   -28063530.48249 -21807539.79048  20404845.899    20404851.077
  20482680.063   -27697702.39649 -21554673.56248  20482679.546    20482683.344
  24331569.718    -8991208.09649  -6962754.91845  24331569.515    24331575.952
  24552492.188    -5361102.44849  -3859107.44145  24552491.694    24552498.891
 03  2 26  2  3  0.0000000  0 10G 3G 6G14G23G17G26G15G18G 9G16
  22793921.655   -12633598.45949  -9794053.89246  22793921.287    22793927.175
  23869071.484   -11191546.61949  -8696750.55445  23869071.196    23869078.101
  23279540.324   -11215056.10949  -8708528.63446  23279539.770    23279545.670
  21614253.898   -20478208.18049 -15925914.72947  21614253.234    21614258.375
  20918289.561   -27023210.00449 -20751930.04647  20918288.850    20918294.309
  23471375.616   -11966950.90149  -9015638.32345  23471375.544    23471380.762
  20400287.891   -28087487.24949 -21826207.37548  20400287.065    20400292.225
  20484464.945   -27688322.61049 -21547364.61348  20484464.420    20484468.211
  24318706.165    -9058806.57149  -7015428.98345  24318706.010    24318712.388
  24563895.370    -5301178.40549  -3812413.39845  24563894.889    24563902.106
 03  2 26  2  3 30.0000000  0 10G 3G 6G14G23G17G26G15G18G 9G16
  22781013.632   -12701430.49749  -9846909.97546  22781013.263    22781019.102
  23889999.155   -11081570.76049  -8611055.08845  23889998.838    23890005.822
  23258936.627   -11323329.08049  -8792897.05746  23258936.073    23258941.843
  21624162.693   -20426136.97849 -15885339.74847  21624162.044    21624167.169
  20922600.587   -27000555.29249 -20734277.00647  20922599.895    20922605.335
  23490210.121   -11867975.44449  -8938514.57345  23490210.006    23490215.142
  20395781.340   -28111169.23049 -21844660.84448  20395780.525    20395785.670
  20486307.753   -27678638.58249 -21539818.59448  20486307.235    20486311.018
  24305884.056    -9126187.06149  -7067933.17545  24305883.857    24305890.251
  24575337.577    -5241049.10149  -3765559.41945  24575337.068    24575344.384
 03  2 26  2  4  0.0000000  0 10G 3G 6G14G23G17G26G15G18G 9G16
  22768185.688   -12768841.87649  -9899438.26146  22768185.243    22768191.105
  23910946.355   -10971492.85049  -8525280.11445  23910946.007    23910953.043
  23238365.609   -11431430.53049  -8877131.81246  23238364.995    23238370.732
  21634096.737   -20373933.04849 -15844661.33947  21634096.087    21634101.208
  20926967.837   -26977605.29149 -20716393.86447  20926967.142    20926972.548
  23509105.419   -11768679.69349  -8861141.24745  23509105.345    23509110.495
  20391327.620   -28134573.27949 -21862897.73248  20391326.828    20391331.985
  20488208.581   -27668649.52149 -21532034.87848  20488208.069    20488211.861
  24293104.363    -9193344.38749  -7120263.48345  24293104.224    24293110.504
  24586818.527    -5180715.67149  -3718546.39345  24586818.169    24586825.562
 03  2 26  2  4 30.0000000  0 10G 3G 6G14G23G17G26G15G18G 9G16
  22755438.044   -12835831.00549  -9951637.54046  22755437.609    22755443.445
  23931912.393   -10861315.74549  -8439427.85345  23931912.072    23931919.071
  23217827.543   -11539358.17649  -8961231.14546  23217826.914    23217832.648
  21644055.707   -20321598.12849 -15803880.86347  21644055.072    21644060.186
  20931391.278   -26954359.58349 -20698280.31647  20931390.590    20931396.007
  23528061.043   -11669067.14849  -8783521.07145  23528061.022    23528066.082
  20386927.039   -28157698.35049 -21880917.24248  20386926.245    20386931.433
  20490167.120   -27658357.24549 -21524014.90148  20490166.593    20490170.373
  24280367.814    -9260275.55649  -7172417.57645  24280367.701    24280373.850
  24598337.806    -5120181.39049  -3671376.83645  24598337.585    24598344.941
 03  2 26  2  5  0.0000000  0 10G 3G 6G14G23G17G26G15G18G 9G16
  22742771.305   -12902395.16249 -10003505.67446  22742770.847    22742776.642
  23952896.942   -10751041.45849  -8353499.85345  23952896.635    23952903.670
  23197323.079   -11647109.10849  -9045192.78246  23197322.498    23197328.215
  21654039.427   -20269133.27249 -15762999.13547  21654038.791    21654043.909
  20935871.204   -26930817.25249 -20679935.62247  20935870.509    20935875.955
  23547076.466   -11569140.54549  -8705656.16145  23547076.438    23547081.409
  20382579.843   -28180542.94649 -21898718.19448  20382579.054    20382584.229
  20492183.248   -27647762.37349 -21515759.12848  20492182.707    20492186.485
  24267674.931    -9326977.09049  -7224392.72345  24267674.818    24267680.905
  24609894.802    -5059448.75949  -3624052.76545  24609894.494    24609901.845
 03  2 26  2  5 30.0000000  0 10G 3G 6G14G23G17G26G15G18G 9G16
  22730185.669   -12968532.83249 -10055041.46746  22730185.210    22730190.985
  23973899.359   -10640673.07949  -8267498.54845  23973899.015    23973906.064
  23176852.722   -11754681.29349  -9129015.15246  23176852.109    23176857.754
  21664047.481   -20216540.49049 -15722017.71847  21664046.853    21664051.975
  20940407.687   -26906977.79749 -20661359.41047  20940406.978    20940412.445
  23566151.014   -11468903.35149  -8627549.23545  23566150.984    23566155.844
  20378286.118   -28203106.46849 -21916300.13148  20378285.327    20378290.480
  20494256.582   -27636866.78849 -21507269.03748  20494256.052    20494259.836
  24255026.265    -9393446.33249  -7276186.85845  24255026.105    24255032.110
  24621488.848    -4998521.42749  -3576576.96845  24621488.538    24621495.948
 03  2 26  2  6  0.0000000  0 10G 3G 6G14G23G17G26G15G18G 9G16
  22717681.789   -13034240.99049 -10106242.57746  22717681.326    22717687.115
  23994919.426   -10530212.00749  -8181424.99145  23994919.163    23994926.063
  23156417.065   -11862071.04349  -9212695.35546  23156416.477    23156422.051
  21674079.787   -20163820.19349 -15680936.94747  21674079.177    21674084.266
  20945001.076   -26882839.40849 -20642550.25647  20945000.368    20945005.840
  23585284.160   -11368357.89449  -8549202.12645  23585284.078    23585289.070
  20374046.336   -28225386.70049 -21933661.31948  20374045.532    20374050.698
  20496387.043   -27625670.91249 -21498544.94948  20496386.527    20496390.325
  24242422.488    -9459679.31449  -7327796.89145  24242422.311    24242428.263
  24633119.625    -4937401.39449  -3528950.97545  24633119.217    24633126.535
 03  2 26  2  6 30.0000000  0 10G 3G 6G14G23G17G26G15G18G 9G16
  22705259.848   -13099518.65849 -10157108.25746  22705259.406    22705265.154
  24015956.316   -10419662.09049  -8095282.21945  24015956.069    24015963.006
  23136016.353   -11969276.84849  -9296232.22846  23136015.720    23136021.313
  21684135.917   -20110974.87449 -15639758.76647  21684135.295    21684140.364
  20949651.298   -26858402.25649 -20623508.30847  20949650.599    20949656.048
  23604475.165   -11267508.30849  -8470618.02045  23604475.082    23604480.031
  20369860.537   -28247383.05549 -21950801.31148  20369859.750    20369864.904
  20498574.258   -27614176.87249 -21489588.53348  20498573.743    20498577.544
  24229864.053    -9525674.01949  -7379221.27745  24229863.854    24229869.756
  24644786.265    -4876092.56949  -3481177.89945  24644786.019    24644793.354
 03  2 26  2  7  0.0000000  0 10G 3G 6G14G23G17G26G15G18G 9G16
  22692920.417   -13164362.60449 -10207635.95346  22692920.019    22692925.724
  24037009.906   -10309024.88949  -8009071.43945  24037009.665    24037016.578
  23115651.412   -12076294.70649  -9379622.65846  23115650.798    23115656.307
  21694215.698   -20058005.07949 -15598483.57947  21694215.078    21694220.137
  20954358.757   -26833664.42249 -20604232.06247  20954358.070    20954363.475
  23623723.642   -11166356.59149  -8391798.48845  23623723.576    23623728.516
  20365729.154   -28269093.40849 -21967718.43848  20365728.360    20365733.529
  20500818.218   -27602384.84149 -21480399.91048  20500817.689    20500821.469
  24217351.846    -9591426.14449  -7430456.63845  24217351.536    24217357.387
  24656488.651    -4814597.08949  -3433259.39045  24656488.258    24656495.568
 03  2 26  2  7 30.0000000  0 10G 3G 6G14G23G17G26G15G18G 9G16
  22680663.528   -13228772.97849 -10257825.80346  22680663.144    22680668.791
  24058079.253   -10198304.94349  -7922796.16645  24058079.019    24058085.877
  23095322.241   -12183124.51749  -9462866.55046  23095321.671    23095327.151
  21704318.548   -20004914.24449 -15557114.07547  21704317.923    21704322.981
  20959123.080   -26808627.78449 -20584722.97547  20959122.391    20959127.779
  23643028.740   -11064907.89449  -8312747.53045  23643028.671    23643033.505
  20361652.023   -28290518.90149 -21984413.59648  20361651.222    20361656.383
  20503118.213   -27590298.21349 -21470981.72848  20503117.677    20503121.448
  24204885.943    -9656934.22849  -7481501.83245  24204885.646    24204891.535
  24668225.550    -4752919.79949  -3385199.19245  24668225.023    24668232.503
 03  2 26  2  8  0.0000000  0 10G 3G 6G14G23G17G26G15G18G 9G16
  22668490.010   -13292744.91949 -10307674.03146  22668489.621    22668495.297
  24079164.444   -10087501.79549  -7836456.04645  24079164.232    24079171.035
  23075029.971   -12289760.70849  -9545959.58046  23075029.420    23075034.783
  21714444.719   -19951700.79349 -15515649.03347  21714444.093    21714449.147
  20963945.057   -26783288.11849 -20564977.76747  20963944.363    20963949.742
  23662390.258   -10963162.43449  -8233465.33545  23662390.178    23662395.037
  20357629.910   -28311655.10349 -22000883.34148  20357629.127    20357634.254
  20505474.572   -27577915.13649 -21461332.55448  20505474.046    20505477.843
  24192467.739    -9722192.38349  -7532352.29845  24192467.444    24192473.246
  24679996.746    -4691061.07549  -3336997.63545  24679996.364    24680003.862
 03  2 26  2  8 30.0000000  0 10G 3G 6G14G23G17G26G15G18G 9G16
  22656400.039   -13356278.05149 -10357180.31446  22656399.641    22656405.295
  24100264.611    -9976619.91749  -7750054.58945  24100264.284    24100271.182
  23054774.719   -12396202.53649  -9628901.15946  23054774.112    23054779.439
  21724593.538   -19898368.08749 -15474091.05847  21724592.927    21724598.016
  20968824.383   -26757647.10049 -20544997.73447  20968823.675    20968829.058
  23681807.314   -10861125.14649  -8153955.73745  23681807.147    23681812.138
  20353662.747   -28332502.59449 -22017128.11648  20353661.943    20353667.064
  20507886.763   -27565238.80749 -21451454.87448  20507886.246    20507890.041
  24180097.224    -9787199.24749  -7583006.94345  24180096.997    24180102.754
  24691801.821    -4629025.52849  -3288658.28545  24691801.162    24691808.886
 03  2 26  2  9  0.0000000  0  9G 3G 6G14G23G17G26G15G18G 9
  22644394.296   -13419368.52049 -10406341.66946  22644393.873    22644399.547
  24121379.589    -9865659.98949  -7663592.32445  24121379.297    24121386.227
  23034557.208   -12502445.47449  -9711687.75446  23034556.619    23034561.993
  21734765.158   -19844915.65549 -15432439.79447  21734764.546    21734769.643
  20973761.642   -26731701.57649 -20524780.42447  20973760.938    20973766.338
  23701279.558   -10758797.43149  -8074219.86645  23701279.426    23701284.360
  20349751.073   -28353058.31849 -22033145.54148  20349750.281    20349755.420
  20510354.919   -27552268.59249 -21441348.18548  20510354.387    20510358.175
  24167775.551    -9851949.84049  -7633461.88345  24167775.318    24167781.075
 03  2 26  2  9 30.0000000  0  9G 3G 6G14G23G17G26G15G18G 9
  22632473.575   -13482011.88249 -10455154.63846  22632473.195    22632478.861
  24142509.408    -9754621.94649  -7577069.16945  24142508.989    24142515.872
  23014378.486   -12608484.45749  -9794315.43146  23014377.988    23014383.402
  21744959.806   -19791342.43049 -15390694.40347  21744959.198    21744964.299
  20978757.412   -26705448.45949 -20504323.43447  20978756.709    20978762.101
  23720806.963   -10656179.73449  -7994258.00245  23720806.908    23720811.781
  20345895.706   -28373318.32949 -22048932.54148  20345894.920    20345900.064
  20512879.228   -27539003.23949 -21431011.52348  20512878.680    20512882.453
  24155503.813    -9916438.46449  -7683712.70545  24155503.423    24155509.205
 03  2 26  2 10  0.0000000  0  9G 3G 6G14G23G17G26G15G18G 9
  22620637.341   -13544211.35749 -10503621.72346  22620636.989    22620642.616
  24163652.592    -9643513.61349  -7490491.26945  24163652.222    24163659.166
  22994238.149   -12714321.96249  -9876786.11346  22994237.661    22994243.025
  21755176.176   -19737654.93849 -15348859.97247  21755175.565    21755180.662
  20983810.979   -26678891.55649 -20483629.72247  20983810.290    20983815.681
  23740388.069   -10553280.28549  -7914076.60045  23740388.001    23740392.882
  20342095.782   -28393286.72649 -22064492.30248  20342094.991    20342100.149
  20515458.485   -27525449.04449 -21420449.78748  20515457.934    20515461.701
  24143281.376    -9980667.17349  -7733760.99345  24143280.925    24143286.745
 03  2 26  2 10 30.0000000  0  9G 3G 6G14G23G17G26G15G18G 9
  22608886.075   -13605964.97349 -10551741.37546  22608885.644    22608891.240
  24184808.676    -9532337.59249  -7403860.62445  24184808.316    24184815.357
  22974136.651   -12819955.47149  -9959097.84546  22974136.217    22974141.521
  21765413.974   -19683854.70849 -15306937.69647  21765413.368    21765418.458
  20988922.422   -26652030.89949 -20462699.32547  20988921.732    20988927.080
  23760022.181   -10450102.46049  -7833678.29345  23760022.059    23760027.124
  20338351.605   -28412962.40649 -22079823.97548  20338350.813    20338355.976
  20518092.411   -27511607.41349 -21409664.07748  20518091.871    20518095.635
  24131109.017   -10044632.96349  -7783604.41245  24131108.641    24131114.445
 03  2 26  2 11  0.0000000  0  9G 3G 6G14G23G17G26G15G18G 9
  22597220.133   -13667269.42649 -10599511.04046  22597219.730    22597225.333
  24205977.418    -9421094.95549  -7317178.07045  24205977.141    24205984.121
  22954074.739   -12925381.17949 -10041247.64846  22954074.325    22954079.541
  21775673.263   -19629941.62749 -15264927.49047  21775672.655    21775677.728
  20994092.028   -26624864.23149 -20441530.47647  20994091.343    20994096.697
  23779708.907   -10346647.78249  -7753064.26445  23779708.770    23779713.864
  20334663.664   -28432342.68449 -22094925.46648  20334662.866    20334668.016
  20520781.100   -27497478.15349 -21398654.24548  20520780.579    20520784.319
  24118987.509   -10108331.36949  -7833239.47945  24118987.203    24118992.934
 03  2 26  2 11 30.0000000  0  9G 3G 6G14G23G17G26G15G18G 9
  22585640.159   -13728122.28249 -10646928.80446  22585639.767    22585645.391
  24227158.377    -9309787.74449  -7230445.20645  24227158.177    24227165.185
  22934052.974   -13030596.02949 -10123233.14546  22934052.526    22934057.743
  21785953.851   -19575916.76349 -15222830.16747  21785953.229    21785958.295
  20999320.126   -26597390.48149 -20420122.33747  20999319.434    20999324.786
  23799447.842   -10242919.04349  -7672236.66445  23799447.735    23799452.811
  20331032.266   -28451425.79249 -22109795.38948  20331031.460    20331036.624
  20523524.334   -27483062.39949 -21387421.16148  20523523.800    20523527.535
  24106917.603   -10171758.86149  -7882663.44545  24106917.288    24106922.989
 03  2 26  2 12  0.0000000  0  9G 3G 6G14G23G17G26G15G18G 9
  22574146.366   -13788522.75649 -10693994.05146  22574145.924    22574151.561
  24248351.155    -9198419.58149  -7143664.83845  24248350.846    24248357.960
  22914071.650   -13135598.36149 -10205053.04646  22914071.159    22914076.374
  21796255.225   -19521782.46349 -15180647.57447  21796254.607    21796259.707
  21004606.629   -26569609.69249 -20398474.95047  21004605.934    21004611.266
  23819238.120   -10138920.37449  -7591198.73045  23819238.004    23819243.061
  20327457.439   -28470211.47549 -22124433.55048  20327456.645    20327461.800
  20526321.672   -27468362.20649 -21375966.44248  20526321.144    20526324.861
  24094899.548   -10234913.28549  -7931874.63345  24094899.429    24094905.024
 03  2 26  2 12 30.0000000  0  9G 3G 6G14G23G17G26G15G18G 9
  22562739.230   -13848467.44749 -10740704.15546  22562738.791    22562744.429
  24269555.221    -9086991.65049  -7056837.91445  24269554.867    24269562.021
  22894131.561   -13240384.16149 -10286704.22546  22894131.003    22894136.223
  21806577.447   -19467538.78549 -15138379.75747  21806576.831    21806581.936
  21009951.904   -26541520.24949 -20376587.05847  21009951.203    21009956.490
  23839079.465   -10034653.54149  -7509951.84045  23839079.418    23839084.453
  20323939.651   -28488697.37849 -22138838.13248  20323938.860    20323943.994
  20529173.150   -27453377.46149 -21364289.99848  20529172.629    20529176.314
  24082934.433   -10297790.10149  -7980869.48745  24082934.291    24082939.938
 03  2 26  2 13  0.0000000  0  9G 3G 6G14G23G17G26G15G18G 9
  22551419.090   -13907954.87149 -10787057.94646  22551418.658    22551424.282
  24290770.153    -8975506.49949  -6969966.37545  24290769.930    24290776.936
  22874233.046   -13344951.24449 -10368184.96746  22874232.459    22874237.706
  21816920.197   -19413187.26149 -15096027.89447  21816919.571    21816924.659
  21015356.067   -26513121.14649 -20354457.86547  21015355.342    21015360.645
  23858971.165    -9930121.87949  -7428498.59145  23858971.158    23858976.175
  20320479.141   -28506882.45149 -22153008.29848  20320478.346    20320483.472
  20532078.532   -27438109.48149 -21352392.84748  20532077.998    20532081.688
  24071022.829   -10360386.27749  -8029645.67945  24071022.658    24071028.255
 03  2 26  2 13 30.0000000  0  9G 3G 6G14G23G17G26G15G18G 9
  22540186.251   -13966983.75149 -10833054.42246  22540185.794    22540191.435
  24311995.425    -8863967.19349  -6883052.65145  24311995.246    24312002.098
  22854376.566   -13449297.38949 -10449493.55046  22854375.955    22854381.186
  21827283.105   -19358729.65649 -15053593.37347  21827282.477    21827287.568
  21020819.133   -26484412.35749 -20332087.36347  21020818.430    21020823.696
  23878912.603    -9825328.69149  -7346841.55945  23878912.573    23878917.663
  20317076.011   -28524765.95449 -22166943.47248  20317075.222    20317080.332
  20535037.501   -27422560.01849 -21340276.35848  20535036.970    20535040.661
  24059165.162   -10422698.93549  -8078200.94645  24059164.947    24059170.543
 03  2 26  2 14  0.0000000  0  9G 3G 6G14G23G17G26G15G18G 9
  22529041.128   -14025551.67949 -10878691.71346  22529040.680    22529046.297
  24333230.476    -8752376.18849  -6796098.65045  24333230.245    24333237.154
  22834562.567   -13553420.03049 -10530627.97246  22834561.982    22834567.242
  21837665.997   -19304167.12549 -15011077.09747  21837665.369    21837670.457
  21026341.311   -26455393.21649 -20309475.03147  21026340.597    21026345.849
  23898903.159    -9720277.17449  -7264983.24045  23898903.164    23898908.365
  20313730.535   -28542346.41949 -22180642.50948  20313729.747    20313734.856
  20538049.791   -27406730.22249 -21327941.42548  20538049.254    20538052.941
  24047361.975   -10484725.20049  -8126533.04445  24047361.698    24047367.269
 03  2 26  2 14 30.0000000  0  9G 3G 6G14G23G17G26G15G18G 9
  22517984.244   -14083655.57149 -10923967.41746  22517983.774    22517989.432
  24354475.076    -8640734.86849  -6709105.43745  24354474.927    24354481.859
  22814791.863   -13657315.34449 -10611585.26546  22814791.289    22814796.467
  21848068.894   -19249499.71349 -14968479.08247  21848068.267    21848073.312
  21031922.864   -26426061.81549 -20286619.37947  21031922.143    21031927.407
  23918942.618    -9614969.18449  -7182925.05345  23918942.630    23918947.799
  20310443.222   -28559621.30849 -22194103.42648  20310442.413    20310447.520
  20541115.385   -27390620.18749 -21315388.11948  20541114.862    20541118.558
  24035614.039   -10546460.76949  -8174638.64545  24035613.811    24035619.343
 03  2 26  2 15  0.0000000  0  9G 3G 6G14G23G17G26G15G18G 9
  22507015.750   -14141295.13649 -10968881.32346  22507015.317    22507020.914
  24375728.601    -8529047.33849  -6622076.23345  24375728.314    24375735.368
  22795064.674   -13760982.31049 -10692364.62546  22795064.095    22795069.156
  21858491.098   -19194730.43749 -14925801.70447  21858490.482    21858495.504
  21037563.712   -26396418.78249 -20263520.89947  21037563.008    21037568.281
  23939030.083    -9509409.20349  -7100670.51545  23939030.004    23939035.165
  20307213.952   -28576591.00849 -22207326.53748  20307213.149    20307218.259
  20544233.841   -27374232.59449 -21302618.54048  20544233.323    20544236.985
  24023921.682   -10607903.98649  -8222516.42045  24023921.306    24023926.973
 03  2 26  2 15 30.0000000  0  9G 3G 6G14G23G17G26G15G18G 9
  22496136.011   -14198468.10349 -11013431.64746  22496135.569    22496141.161
  24396990.536    -8417315.38449  -6535012.38945  24396990.245    24396997.222
  22775381.506   -13864417.68249 -10772963.52146  22775380.902    22775385.970
  21868932.614   -19139859.89349 -14883045.41447  21868931.993    21868936.974
  21043264.115   -26366462.79749 -20240178.56347  21043263.402    21043268.692
  23959164.992    -9403599.83649  -7018221.67545  23959164.845    23959169.950
  20304043.147   -28593253.46849 -22220310.25148  20304042.354    20304047.472
  20547404.923   -27357568.25749 -21289633.31648  20547404.388    20547408.061
  24012285.674   -10669051.13649  -8270163.50845  24012285.251    24012290.888
 03  2 26  2 16  0.0000000  0  9G 3G 6G14G23G17G26G15G18G 9
  22485345.689   -14255171.30049 -11057615.90446  22485345.279    22485350.862
  24418260.706    -8305540.25349  -6447914.90245  24418260.340    24418267.289
  22755743.130   -13967617.60649 -10853378.94046  22755742.537    22755747.595
  21879393.396   -19084888.10749 -14840210.22747  21879392.792    21879397.769
  21049024.472   -26336191.88349 -20216590.82447  21049023.754    21049029.026
  23979347.039    -9297542.71449  -6935579.76145  23979346.983    23979351.850
  20300931.268   -28609606.33449 -22233052.71548  20300930.478    20300935.589
  20550628.688   -27340627.03549 -21276432.33348  20550628.166    20550631.835
  24000706.763   -10729897.87049  -8317576.49145  24000706.396    24000711.985
 03  2 26  2 16 30.0000000  0  9G 3G 6G14G23G17G26G15G18G 9
  22474644.701   -14311405.14149 -11101434.43346  22474644.308    22474649.894
  24439538.116    -8193726.96449  -6360787.69845  24439537.810    24439544.649
  22736149.500   -14070582.15749 -10933610.96346  22736148.932    22736154.017
  21889872.683   -19029818.92349 -14797299.15547  21889872.077    21889877.059
  21054844.466   -26305607.48449 -20192758.81447  21054843.765    21054849.031
  23999575.189    -9191243.54049  -6852749.23545  23999574.990    23999579.901
  20297878.136   -28625650.53049 -22245554.66748  20297877.352    20297882.443
  20553904.478   -27323412.66949 -21263018.51848  20553903.948    20553907.604
  23989185.300   -10790443.69349  -8364755.00045  23989184.923    23989190.578
 03  2 26  2 17  0.0000000  0  9G 3G 6G14G23G17G26G15G18G 9
  22464033.746   -14367165.88649 -11144884.32146  22464033.353    22464038.953
  24460822.770    -8081875.75049  -6273630.95045  24460822.415    24460829.245
  22716601.645   -14173306.62549 -11013655.90346  22716601.064    22716606.105
  21900370.673   -18974651.44649 -14754311.48847  21900370.049    21900375.057
  21060724.609   -26274707.27249 -20168680.71747  21060723.894    21060729.128
  24019849.032    -9084703.17949  -6769730.77745  24019848.765    24019853.726
  20294884.370   -28641382.87649 -22257813.61648  20294883.565    20294888.634
  20557232.416   -27305924.06349 -21249391.00948  20557231.875    20557235.516
  23977722.206   -10850683.19549  -8411694.83545  23977721.779    23977727.427
 03  2 26  2 17 30.0000000  0  9G 3G 6G14G23G17G26G15G18G 9
  22453513.088   -14422452.48849 -11187964.74646  22453512.667    22453518.203
  24482113.972    -7969989.81949  -6186447.11045  24482113.565    24482120.432
  22697099.866   -14275788.76049 -11093512.00046  22697099.315    22697104.329
  21910887.053   -18919387.51649 -14711248.66747  21910886.419    21910891.439
  21066664.786   -26243491.32749 -20144356.58647  21066664.072    21066669.310
  24040168.071    -8977925.27549  -6686527.20245  24040167.798    24040172.982
  20291950.060   -28656802.75549 -22269829.07548  20291949.256    20291954.328
  20560612.162   -27288163.24749 -21235551.38448  20560611.635    20560615.259
  23966317.674   -10910613.96249  -8458394.07345  23966317.234    23966322.888
 03  2 26  2 18  0.0000000  0  9G 3G 6G14G23G17G26G15G18G 9
  22443082.955   -14477263.05549 -11230674.22946  22443082.508    22443088.047
  24503411.306    -7858071.64049  -6099238.12845  24503410.831    24503417.700
  22677644.692   -14378025.97149 -11173177.25746  22677644.184    22677649.141
  21921421.520   -18864028.18349 -14668111.50847  21921420.916    21921425.958
  21072665.203   -26211958.63249 -20119785.64547  21072664.498    21072669.763
  24060531.779    -8870912.74649  -6603140.81645  24060531.511    24060536.765
  20289075.483   -28671908.65949 -22281599.87748  20289074.676    20289079.767
  20564043.521   -27270131.23149 -21221500.43248  20564042.989    20564046.611
  23954972.538   -10970232.64449  -8504850.14745  23954972.177    23954977.838
 03  2 26  2 18 30.0000000  0  9G 3G 6G14G23G17G26G15G18G 9
  22432743.576   -14531596.40649 -11273011.85546  22432743.165    22432748.696
  24524714.118    -7746124.44849  -6012006.55045  24524713.585    24524720.545
  22658236.432   -14480016.83649 -11252650.55146  22658235.900    22658240.815
  21931973.793   -18808575.58249 -14624901.67747  21931973.181    21931978.232
  21078725.976   -26180109.11749 -20094967.83647  21078725.262    21078730.520
  24080939.383    -8763669.59449  -6519574.70845  24080939.212    24080944.523
  20286260.670   -28686700.37349 -22293125.85748  20286259.875    20286264.977
  20567526.061   -27251830.08849 -21207239.77548  20567525.528    20567529.161
  23943687.339   -11029537.13849  -8551061.39545  23943687.020    23943692.492
 03  2 26  2 19  0.0000000  0  8G 3G14G23G17G26G15G18G 9
  22422495.927   -14585447.86449 -11314973.97846  22422495.549    22422501.074
  22638876.130   -14581755.84749 -11331927.58846  22638875.543    22638880.412
  21942544.107   -18753028.12449 -14581617.92747  21942543.493    21942548.507
  21084847.675   -26147939.51149 -20069900.60647  21084846.964    21084852.195
  24101390.934    -8656195.94149  -6435829.00945  24101390.804    24101396.043
  20283506.459   -28701173.67349 -22304403.73048  20283505.661    20283510.770
  20571060.106   -27233258.31549 -21192768.23748  20571059.592    20571063.255
  23932462.948   -11088521.53549  -8597023.19245  23932462.631    23932468.196
 03  2 26  2 19 30.0000000  0  8G 3G14G23G17G26G15G18G 9
  22412339.931   -14638817.49349 -11356560.65546  22412339.570    22412345.110
  22619563.908   -14683241.73449 -11411007.38746  22619563.323    22619568.177
  21953131.929   -18697388.74549 -14538262.55747  21953131.294    21953136.311
  21091030.129   -26115450.58049 -20044584.54947  21091029.404    21091034.622
  24121885.584    -8548496.24149  -6351907.17445  24121885.386    24121890.515
  20280812.849   -28715328.71949 -22315433.61948  20280812.066    20280817.129
  20574645.157   -27214418.58649 -21178087.90248  20574644.640    20574648.305
  23921299.753   -11147184.16849  -8642734.27845  23921299.479    23921304.976
 03  2 26  2 20  0.0000000  0  8G 3G14G23G17G26G15G18G 9
  22402275.908   -14691704.31849 -11397771.11646  22402275.537    22402281.006
  22600300.169   -14784473.13949 -11489888.89146  22600299.578    22600304.352
  21963736.856   -18641659.35349 -14494837.03647  21963736.252    21963741.226
  21097273.384   -26082642.08849 -20019019.48547  21097272.642    21097277.881
  24142422.469    -8440574.53949  -6267812.33945  24142422.219    24142427.229
  20278179.842   -28729165.17749 -22326215.25248  20278179.039    20278184.104
  20578280.800   -27195312.98649 -21163200.39348  20578280.283    20578283.921
  23910198.262   -11205522.93249  -8688193.01145  23910197.935    23910203.411
 03  2 26  2 20 30.0000000  0  8G 3G14G23G17G26G15G18G 9
  22392303.869   -14744107.69049 -11438604.87046  22392303.501    22392308.857
  22581085.096   -14885448.60949 -11568570.96046  22581084.550    22581089.241
  21974358.501   -18585842.31549 -14451343.23147  21974357.859    21974362.830
  21103577.209   -26049514.97849 -19993206.14447  21103576.468    21103581.735
  24163000.782    -8332434.87849  -6183547.65745  24163000.652    24163005.692
  20275607.481   -28742682.86849 -22336748.49848  20275606.710    20275611.748
  20581966.646   -27175943.69049 -21148107.41648  20581966.131    20581969.775
  23899158.642   -11263535.94149  -8733397.88845  23899158.277    23899163.797
 03  2 26  2 21  0.0000000  0  8G 3G14G23G17G26G15G18G 9
  22382424.389   -14796024.69449 -11479059.63146  22382424.021    22382429.341
  22561919.501   -14986164.14549 -11647050.48546  22561918.929    22561923.627
  21984996.845   -18529937.46949 -14407780.99947  21984996.194    21985001.150
  21109942.055   -26016067.26349 -19967142.98147  21109941.362    21109946.646
  24183620.205    -8224078.89049  -6099114.40345  24183620.078    24183625.087
  20273096.243   -28755879.39649 -22347031.48448  20273095.448    20273100.492
  20585702.628   -27156310.83949 -21132809.06348  20585702.115    20585705.737
  23888181.991   -11321218.67749  -8778345.43245  23888181.626    23888187.132
 03  2 26  2 21 30.0000000  0  9G 3G14G23G17G31G26G15G18G 9
  22372637.010   -14847457.33249 -11519136.95846  22372636.636    22372641.961
  22542803.066   -15086621.04049 -11725328.47146  22542802.483    22542807.178
  21995650.968   -18473949.60949 -14364154.07847  21995650.308    21995655.256
  21116367.340   -25982302.10549 -19940832.45847  21116366.634    21116371.941
  24375335.737    -3254327.03949  -2511777.72245  24375334.957    24375340.894
  24204279.555    -8115513.45749  -6014517.95445  24204279.376    24204284.339
  20270645.691   -28768757.09749 -22357066.03348  20270644.895    20270649.929
  20589487.833   -27136419.40849 -21117309.21848  20589487.305    20589490.908
  23877268.004   -11378572.03149  -8823036.29445  23877267.681    23877273.116
 03  2 26  2 22  0.0000000  0  9G 3G14G23G17G31G26G15G18G 9
  22362942.780   -14898400.64449 -11558833.00246  22362942.427    22362947.766
  22523736.925   -15186813.57649 -11803400.47546  22523736.382    22523741.049
  22006321.262   -18417876.77849 -14320460.94747  22006320.631    22006325.549
  21122853.791   -25948215.34849 -19914271.34447  21122853.103    21122858.433
  24358353.019    -3343571.13549  -2581318.52645  24358352.334    24358358.322
  24224978.747    -8006738.41449  -5929758.17345  24224978.736    24224983.677
  20268256.615   -28781311.68749 -22366848.81348  20268255.819    20268260.851
  20593322.630   -27116267.34949 -21101606.29648  20593322.120    20593325.681
  23866417.901   -11435589.83349  -8867465.69445  23866417.543    23866422.940
 03  2 26  2 22 30.0000000  0  9G 3G14G23G17G31G26G15G18G 9
  22353342.598   -14948849.75449 -11598143.95246  22353342.243    22353347.565
  22504722.163   -15286736.20349 -11881262.16446  22504721.655    22504726.236
  22017008.114   -18361717.13749 -14276700.16947  22017007.463    22017012.327
  21129402.127   -25913803.72949 -19887457.09147  21129401.450    21129406.743
  24341429.907    -3432502.35349  -2650615.53945  24341429.269    24341435.182
  24245717.825    -7897753.70749  -5844835.04345  24245717.739    24245722.748
  20265929.837   -28793538.79549 -22376376.41048  20265929.039    20265934.067
  20597207.411   -27095852.66249 -21085698.72748  20597206.880    20597210.427
  23855632.627   -11492265.77349  -8911628.70345  23855632.410    23855637.903
 03  2 26  2 23  0.0000000  0  9G 3G14G23G17G31G26G15G18G 9
  22343836.354   -14998805.36849 -11637070.35946  22343835.974    22343841.279
  22485758.976   -15386388.37049 -11958913.10646  22485758.463    22485762.986
  22027710.842   -18305473.93549 -14232874.27747  22027710.184    22027715.034
  21136012.008   -25879068.46449 -19860390.63647  21136011.324    21136016.614
  24324566.421    -3521120.25049  -2719668.39845  24324565.743    24324571.639
  24266495.848    -7788564.20649  -5759752.32745  24266495.814    24266500.868
  20263665.307   -28805438.99949 -22385649.27748  20263664.497    20263669.516
  20601141.523   -27075178.65649 -21069589.09348  20601140.997    20601144.545
  23844912.756   -11548598.76449  -8955524.48945  23844912.501    23844918.079
 03  2 26  2 23 30.0000000  0  9G 3G14G23G17G31G26G15G18G 9
  22334424.462   -15048264.66749 -11675610.03746  22334424.100    22334429.441
  22466847.873   -15485766.52949 -12036350.53946  22466847.315    22466851.867
  22038429.491   -18249147.01049 -14188983.15547  22038428.823    22038433.662
  21142683.860   -25844007.54449 -19833070.42247  21142683.185    21142688.472
  24307763.237    -3609420.86949  -2788474.02545  24307762.517    24307768.437
  24287312.509    -7679171.69749  -5674511.42545  24287312.454    24287317.681
  20261463.419   -28817009.87349 -22394665.52448  20261462.621    20261467.627
  20605125.014   -27054245.38349 -21053277.43348  20605124.489    20605128.002
  23834259.023   -11604584.86749  -8999149.96245  23834258.716    23834264.225
 03  2 26  2 24  0.0000000  0  9G 3G14G23G17G31G26G15G18G 9
  22325107.226   -15097227.06949 -11713762.51546  22325106.850    22325112.180
  22447989.142   -15584869.12249 -12113573.25646  22447988.641    22447993.183
  22049163.638   -18192738.64949 -14145028.56847  22049162.982    22049167.758
  21149417.553   -25808621.86549 -19805497.15747  21149416.853    21149422.167
  24291020.714    -3697402.90149  -2857031.40545  24291020.047    24291026.020
  24308167.039    -7569580.54049  -5589115.71345  24308167.006    24308172.157
  20259324.219   -28828251.47049 -22403425.18948  20259323.422    20259328.433
  20609157.380   -27033055.02849 -21036765.45448  20609156.858    20609160.374
  23823671.564   -11660222.14549  -9042503.61445  23823671.196    23823676.780
 03  2 26  2 24 30.0000000  0  9G 3G14G23G17G31G26G15G18G 9
  22315884.711   -15145691.68049 -11751527.10647  22315884.335    22315889.610
  22429183.261   -15683694.37049 -12190579.86146  22429182.760    22429187.256
  22059913.001   -18136250.56949 -14101011.87047  22059912.331    22059917.092
  21156213.089   -25772910.80149 -19777670.33947  21156212.409    21156217.721
  24274339.145    -3785064.34649  -2925338.94545  24274338.576    24274344.493
  24329058.693    -7459793.94549  -5503567.71845  24329058.653    24329063.891
  20257247.787   -28839163.03849 -22411927.68948  20257246.990    20257251.986
  20613238.327   -27011609.29749 -21020054.48048  20613237.822    20613241.329
  23813150.792   -11715508.26649  -9085583.65345  23813150.479    23813156.087
 03  2 26  2 25  0.0000000  0  9G 3G14G23G17G31G26G15G18G 9
  22306757.175   -15193657.50949 -11788903.03147  22306756.754    22306761.985
  22410430.575   -15782240.26549 -12267368.78846  22410430.032    22410434.518
  22070677.058   -18079684.69249 -14056934.54247  22070676.409    22070681.198
  21163070.403   -25736875.29549 -19749590.71347  21163069.712    21163075.051
  24257718.870    -3872403.40749  -2993395.26345  24257718.431    24257724.471
  24349986.790    -7349815.90449  -5417870.55045  24349986.755    24349991.982
  20255234.340   -28849743.83649 -22420172.44148  20255233.534    20255238.510
  20617367.467   -26989910.47049 -21003146.28548  20617366.964    20617370.467
  23802697.394   -11770440.83649  -9128388.17545  23802697.146    23802702.652
 03  2 26  2 25 30.0000000  0  9G 3G14G23G17G31G26G15G18G 9
  22297725.160   -15241120.68749 -11825887.28947  22297724.756    22297730.024
  22391731.963   -15880501.99349 -12343936.30346  22391731.387    22391735.855
  22081456.256   -18023039.59649 -14012795.49247  22081455.616    22081460.400
  21169990.108   -25700511.93249 -19721255.62247  21169989.421    21169994.712
  24241160.943    -3959415.15749  -3061196.54745  24241160.584    24241166.505
  24370951.217    -7239646.77149  -5332024.47145  24370951.232    24370956.516
  20253284.474   -28859990.44649 -22428156.79548  20253283.664    20253288.617
  20621545.015   -26967957.16149 -20986039.79248  20621544.522    20621548.028
  23792312.415   -11825014.41349  -9170912.98345  23792312.185    23792317.606
 03  2 26  2 26  0.0000000  0  9G 3G14G23G17G31G26G15G18G 9
  22288788.839   -15288081.46849 -11862480.06447  22288788.403    22288793.606
  22373087.505   -15978478.73549 -12420281.74646  22373086.965    22373091.416
  22092249.978   -17966318.11149 -13968596.90747  22092249.344    22092254.119
  21176972.125   -25663821.41749 -19692665.60247  21176971.428    21176976.665
  24224665.551    -4046098.58249  -3128741.95745  24224665.144    24224671.038
  24391951.111    -7129291.24149  -5246033.17945  24391951.193    24391956.496
  20251398.109   -28869903.23749 -22435881.02348  20251397.299    20251402.245
  20625770.500   -26945751.97449 -20968737.02048  20625769.987    20625773.509
  23781996.079   -11879227.56649  -9213156.92945  23781995.757    23782001.159
 03  2 26  2 26 30.0000000  0  9G 3G14G23G17G31G26G15G18G 9
  22279948.457   -15334537.79449 -11898679.75447  22279948.043    22279953.233
  22354497.753   -16076167.91549 -12496403.11746  22354497.224    22354501.706
  22103058.065   -17909521.06749 -13924339.45047  22103057.452    22103062.229
  21184016.417   -25626803.35149 -19663820.34347  21184015.711    21184020.980
  24208233.189    -4132451.02749  -3196029.45445  24208232.620    24208238.621
  24412986.138    -7018751.91149  -5159898.67245  24412986.151    24412991.422
  20249575.492   -28879480.95149 -22443344.15348  20249574.691    20249579.630
  20630043.677   -26923296.22649 -20951239.00948  20630043.168    20630046.682
  23771748.647   -11933077.26349  -9255117.68045  23771748.401    23771753.852
 03  2 26  2 27  0.0000000  0  9G 3G14G23G17G31G26G15G18G 9
  22271204.176   -15380489.25049 -11934486.03947  22271203.747    22271208.920
  22335963.038   -16173568.09749 -12572299.29146  22335962.505    22335966.964
  22113880.159   -17852650.60549 -13880024.78047  22113879.550    22113884.292
  21191122.930   -25589458.20849 -19634720.22347  21191122.261    21191127.489
  24191864.100    -4218471.07749  -3263057.92845  24191863.442    24191869.468
  24434055.354    -6908033.15749  -5073624.33345  24434055.325    24434060.557
  20247816.726   -28888723.31649 -22450545.97048  20247815.929    20247820.862
  20634364.098   -26900592.30349 -20933547.61248  20634363.577    20634367.093
  23761570.783   -11986561.62149  -9296793.74145  23761570.617    23761576.033
 03  2 26  2 27 30.0000000  0  8G 3G14G23G17G31G15G18G 9
  22262556.561   -15425932.52549 -11969896.34547  22262556.133    22262561.302
  22317484.253   -16270674.74649 -12647966.74346  22317483.668    22317488.137
  22124716.399   -17795705.78349 -13835652.17047  22124715.768    22124720.493
  21198292.217   -25551783.59549 -19605363.37347  21198291.528    21198296.746
  24175558.979    -4304154.19849  -3329823.85645  24175558.320    24175564.505
  20246122.353   -28897627.16749 -22457484.01448  20246121.572    20246126.487
  20638731.945   -26877639.03049 -20915661.91848  20638731.424    20638734.905
  23751463.481   -12039675.60049  -9338181.19145  23751463.304    23751468.741
 03  2 26  2 28  0.0000000  0  8G 3G14G23G17G31G15G18G 9
  22254005.577   -15470868.07649 -12004911.02747  22254005.163    22254010.322
  22299061.333   -16367487.46849 -12723405.16446  22299060.792    22299065.221
  22135566.212   -17738689.65349 -13791223.99747  22135565.577    22135570.307
  21205523.928   -25513780.62149 -19575750.66047  21205523.222    21205528.456
  24159318.267    -4389499.66749  -3396326.69745  24159317.603    24159323.682
  20244492.348   -28906192.87249 -22464158.57148  20244491.570    20244496.467
  20643146.668   -26854439.51449 -20897584.35248  20643146.127    20643149.599
  23741426.734   -12092418.43749  -9379279.45545  23741426.692    23741432.092
 03  2 26  2 28 30.0000000  0  8G 3G14G23G17G31G15G18G 9
  22245552.000   -15515291.82749 -12039526.89347  22245551.575    22245556.700
  22280695.330   -16464001.24949 -12798610.64646  22280694.776    22280699.151
  22146429.869   -17681600.80549 -13746739.16547  22146429.256    22146433.951
  21212818.728   -25475446.13849 -19545879.62047  21212818.012    21212823.250
  24143142.628    -4474502.60049  -3462562.62145  24143141.961    24143148.126
  20242927.391   -28914416.74449 -22470566.75948  20242926.613    20242931.450
  20647608.402   -26830992.74449 -20879314.12148  20647607.889    20647611.339
  23731461.766   -12144784.80849  -9420084.35145  23731461.531    23731467.020
 03  2 26  2 29  0.0000000  0  8G 3G14G23G17G31G15G18G 9
  22237195.665   -15559204.51449 -12073744.53747  22237195.250    22237200.360
  22262386.236   -16560215.76749 -12873582.93746  22262385.671    22262390.061
  22157306.767   -17624442.34849 -13702200.09747  22157306.116    22157310.842
  21220176.306   -25436781.75049 -19515751.51947  21220175.588    21220180.834
  24127032.382    -4559162.43649  -3528531.20545  24127031.773    24127037.731
  20241427.334   -28922299.65749 -22476709.27148  20241426.552    20241431.352
  20652116.596   -26807301.81549 -20860853.64348  20652116.078    20652119.524
  23721568.516   -12196773.79249  -9460595.19245  23721568.300    23721573.780
 03  2 26  2 29 30.0000000  0  8G 3G14G23G17G31G15G18G 9
  22228936.966   -15602603.89749 -12107562.20247  22228936.568    22228941.669
  22244134.712   -16656127.92749 -12948319.62346  22244134.166    22244138.557
  22168196.804   -17567214.47649 -13657606.93547  22168196.187    22168200.891
  21227596.833   -25397786.35349 -19485365.48647  21227596.121    21227601.406
  24110988.040    -4643476.07449  -3594230.03845  24110987.401    24110993.325
  20239992.495   -28929839.80649 -22482584.69348  20239991.705    20239996.486
  20656671.183   -26783367.12749 -20842203.21948  20656670.665    20656674.112
  23711747.814   -12248381.74649  -9500809.13645  23711747.639    23711753.003
 03  2 26  2 30  0.0000000  0  8G 3G14G23G17G31G15G18G 9
  22220776.072   -15645489.50349 -12140979.50947  22220775.657    22220780.764
  22225941.058   -16751735.82349 -13022819.21246  22225940.552    22225944.937
  22179099.762   -17509919.00349 -13612961.09247  22179099.149    22179103.866
  21235080.310   -25358460.31049 -19454721.81247  21235079.610    21235084.918
  24095009.804    -4727441.76749  -3659657.74845  24095009.182    24095015.063
  20238622.973   -28937036.55949 -22488192.53248  20238622.183    20238626.969
  20661271.804   -26759190.65549 -20823364.38748  20661271.289    20661274.732
  23701999.952   -12299606.48349  -9540724.45945  23701999.748    23702005.107
 03  2 26  2 30 30.0000000  0  8G 3G14G23G17G31G15G18G 9
  22212713.510   -15687858.42449 -12173994.21547  22212713.079    22212718.155
  22207806.054   -16847035.63849 -13097078.74346  22207805.506    22207809.920
  22190015.607   -17452555.61149 -13568262.33047  22190015.002    22190019.733
  21242627.174   -25318801.24749 -19423818.64947  21242626.496    21242631.789
  24079098.609    -4811055.47349  -3724811.18245  24079097.957    24079103.793
  20237319.278   -28943887.26549 -22493530.72548  20237318.496    20237323.297
  20665918.507   -26734771.85049 -20804336.72548  20665917.983    20665921.467
  23692325.951   -12350443.66949  -9580337.79545  23692325.604    23692331.045
 03  2 26  2 31  0.0000000  0  8G 3G14G23G17G31G15G18G 9
  22204749.258   -15729710.88249 -12206606.47647  22204748.832    22204753.879
  22189729.894   -16942026.55649 -13171097.58246  22189729.320    22189733.673
  22200943.936   -17395126.68349 -13523512.49747  22200943.337    22200948.070
  21250237.164   -25278810.39349 -19392656.93947  21250236.457    21250241.763
  24063254.571    -4894316.13049  -3789689.54045  24063254.026    24063259.726
  20236081.413   -28950392.27949 -22498599.55048  20236080.623    20236085.415
  20670610.765   -26710113.65049 -20785122.52348  20670610.244    20670613.736
  23682726.030   -12400891.78149  -9619647.97445  23682725.680    23682731.033
 03  2 26  2 31 30.0000000  0  8G 3G14G23G17G31G15G18G 9
  22196883.723   -15771044.25949 -12238814.25647  22196883.317    22196888.351
  22171713.074   -17036705.01749 -13244872.93846  22171712.513    22171716.859
  22211884.754   -17337632.14649 -13478711.55047  22211884.153    22211888.880
  21257910.626   -25238486.00449 -19361235.32447  21257909.945    21257915.245
  24047478.408    -4977220.28049  -3854290.09045  24047477.848    24047483.468
  20234909.722   -28956549.31849 -22503397.22348  20234908.934    20234913.742
  20675348.598   -26685216.15649 -20765721.85148  20675348.084    20675351.563
  23673200.908   -12450946.98149  -9658651.97245  23673200.484    23673205.859
 03  2 26  2 32  0.0000000  0  8G 3G14G23G17G31G15G18G 9
  22189116.975   -15811858.54249 -12270617.55347  22189116.574    22189121.606
  22153755.975   -17131069.76949 -13318403.85447  22153755.444    22153759.756
  22222837.658   -17280074.14749 -13433861.14647  22222837.060    22222841.813
  21265647.457   -25197828.86849 -19329554.43447  21265646.769    21265652.036
  24031770.294    -5059766.54449  -3918611.77745  24031769.762    24031775.347
  20233804.301   -28962358.37849 -22507923.74548  20233803.509    20233808.313
  20680131.518   -26660081.79349 -20746136.61348  20680130.993    20680134.466
  23663750.648   -12500607.55049  -9697348.47945  23663750.336    23663755.676
 03  2 26  2 32 30.0000000  0  8G 3G14G23G17G31G15G18G 9
  22181449.505   -15852151.01349 -12302014.24047  22181449.102    22181454.144
  22135859.313   -17225117.19149 -13391687.49747  22135858.794    22135863.076
  22233802.675   -17222452.49549 -13388961.14247  22233802.059    22233806.866
  21273447.985   -25156836.93849 -19297612.66047  21273447.289    21273452.555
  24016130.953    -5141951.24049  -3982651.73345  24016130.419    24016135.981
  20232765.526   -28967816.98549 -22512177.18848  20232764.738    20232769.563
  20684959.582   -26634710.24349 -20726366.56048  20684959.051    20684962.489
  23654376.346   -12549869.59349  -9735734.44945  23654376.106    23654381.323
 03  2 26  2 33  0.0000000  0  8G 3G14G23G17G31G15G18G 9
  22173881.587   -15891920.45649 -12333003.37747  22173881.182    22173886.255
  22118023.466   -17318844.95449 -13464722.05447  22118022.931    22118027.242
  22244779.574   -17164768.26749 -13344012.37847  22244778.980    22244783.783
  21281312.189   -25115510.15449 -19265409.96847  21281311.515    21281316.755
  24000560.894    -5223772.01249  -4046408.13345  24000560.428    24000565.897
  20231793.720   -28972923.81149 -22516156.51548  20231792.941    20231797.771
  20689832.503   -26609102.77449 -20706412.67048  20689831.967    20689835.372
  23645078.358   -12598730.43249  -9773807.78445  23645078.134    23645083.339
 03  2 26  2 33 30.0000000  0  8G 3G14G23G17G31G15G18G 9
  22166413.226   -15931166.82749 -12363584.92747  22166412.812    22166417.866
  22100248.698   -17412251.83349 -13537506.57747  22100248.127    22100252.446
  22255768.018   -17107023.37249 -13299016.34247  22255767.423    22255772.245
  21289239.971   -25073849.31349 -19232946.97547  21289239.287    21289244.520
  23985060.308    -5305227.40249  -4109879.79745  23985059.928    23985065.371
  20230888.835   -28977679.01749 -22519861.85648  20230888.048    20230892.861
  20694749.892   -26583261.82349 -20686276.85348  20694749.353    20694752.743
  23635857.219   -12647188.17449  -9811567.02445  23635856.947    23635862.063
 03  2 26  2 34  0.0000000  0  8G 3G14G23G17G31G15G18G 9
  22159044.628   -15969888.64149 -12393757.72147  22159044.233    22159049.332
  22082535.398   -17505335.24949 -13610039.04547  22082534.869    22082539.161
  22266767.897   -17049218.69449 -13253973.72047  22266767.278    22266772.063
  21297231.511   -25031853.42249 -19200222.89247  21297230.824    21297236.022
  23969629.862    -5386314.89349  -4173064.78645  23969629.501    23969634.748
  20230051.110   -28982081.18949 -22523292.09948  20230050.308    20230055.110
  20699711.588   -26557187.96549 -20665959.54648  20699711.038    20699714.425
  23626713.290   -12695239.94149  -9849009.91745  23626712.987    23626718.135
 03  2 26  2 34 30.0000000  0  8G 3G14G23G17G31G15G18G 9
  22151776.453   -16008083.15849 -12423519.64047  22151776.035    22151781.105
  22064884.479   -17598091.32749 -13682316.45347  22064883.949    22064888.243
  22277779.220   -16991353.81149 -13208884.18647  22277778.585    22277783.373
  21305287.276   -24989520.38649 -19167236.11747  21305286.547    21305291.726
  23954270.175    -5467030.49649  -4235960.01845  23954269.765    23954274.945
  20229281.100   -28986127.51349 -22526445.06448  20229280.311    20229285.117
  20704717.596   -26530880.96049 -20645460.57048  20704717.073    20704720.440
  23617647.374   -12742881.38149  -9886133.07645  23617647.053    23617652.244
 03  2 26  2 35  0.0000000  0  8G 3G14G23G17G31G15G18G 9
  22144608.441   -16045751.21249 -12452871.32847  22144608.037    22144613.063
  22047295.897   -17690519.59949 -13754338.41947  22047295.385    22047299.661
  22288801.478   -16933431.41549 -13163749.83647  22288800.834    22288805.607
  21313406.786   -24946851.88449 -19133987.92647  21313406.046    21313411.245
  23938981.342    -5547373.64249  -4298565.00545  23938980.899    23938986.078
  20228578.659   -28989818.84249 -22529321.40748  20228577.857    20228582.660
  20709767.378   -26504344.21249 -20624782.57148  20709766.837    20709770.221
  23608659.756   -12790111.81649  -9922935.96845  23608659.375    23608664.473
 03  2 26  2 35 30.0000000  0  8G 3G14G23G17G31G15G18G 9
  22137541.080   -16082890.13849 -12481810.70947  22137540.690    22137545.657
  22029770.379   -17782616.61649 -13826102.26547  22029769.838    22029774.143
  22299834.735   -16875451.20149 -13118570.42747  22299834.086    22299838.837
  21321590.477   -24903846.36549 -19100477.13847  21321589.750    21321594.938
  23923764.002    -5627340.73149  -4360876.96345  23923763.414    23923768.697
  20227944.223   -28993152.77449 -22531919.26248  20227943.416    20227948.191
  20714860.898   -26477577.36349 -20603925.26848  20714860.381    20714863.765
  23599751.201   -12836927.01049  -9959415.29845  23599750.703    23599755.791
 03  2 26  2 36  0.0000000  0  8G 3G14G23G17G31G15G18G 9
  22130574.576   -16119499.51649 -12510337.45847  22130574.163    22130579.102
  22012308.233   -17874380.51549 -13897606.54047  22012307.677    22012311.991
  22310878.698   -16817414.61049 -13073347.10247  22310878.030    22310882.829
  21329838.288   -24860503.86249 -19066703.75647  21329837.561    21329842.759
  23908618.471    -5706929.87649  -4422894.40645  23908617.879    23908623.232
  20227377.931   -28996128.64849 -22534238.11548  20227377.138    20227381.896
  20719997.969   -26450581.79149 -20582889.73648  20719997.424    20720000.839
  23590921.866   -12883324.94049  -9995569.48845  23590921.455    23590926.475
 03  2 26  2 36 30.0000000  0  8G 3G14G23G17G31G15G18G 9
  22123709.313   -16155576.60049 -12538449.43847  22123708.885    22123713.825
  21994910.289   -17965807.34649 -13968848.16647  21994909.701    21994913.993
  22321933.504   -16759320.96049 -13028079.30547  22321932.847    22321937.697
  21338150.613   -24816822.34849 -19032666.20747  21338149.866    21338155.058
  23893545.758    -5786136.95249  -4484614.15145  23893545.203    23893550.516
  20226880.300   -28998743.62449 -22536275.74848  20226879.513    20226884.254
  20725178.568   -26423357.36749 -20561675.88048  20725178.038    20725181.454
  23582172.827   -12929301.22449 -10031395.12245  23582172.352    23582177.388
 03  2 26  2 37  0.0000000  0  8G 3G14G23G17G31G15G18G 9
  22116944.976   -16191123.20849 -12566148.05547  22116944.558    22116949.517
  21977576.225   -18056898.08649 -14039827.89947  21977575.661    21977579.924
  22332998.435   -16701174.34349 -12982770.24447  22332997.787    22333002.620
  21346526.842   -24772804.70349 -18998366.74047  21346526.137    21346531.310
  23878545.609    -5864962.86049  -4546036.84945  23878544.998    23878550.438
  20226451.008   -29000999.59249 -22538033.62848  20226450.230    20226454.954
  20730401.919   -26395908.33949 -20540287.00948  20730401.382    20730404.805
  23573503.877   -12974856.35349 -10066892.58145  23573503.443    23573508.578
 03  2 26  2 37 30.0000000  0  8G 3G14G23G17G31G15G18G 9
  22110282.350   -16226135.36549 -12593430.22647  22110281.960    22110286.906
  21960307.121   -18147647.44949 -14110541.63147  21960306.586    21960310.821
  22344073.805   -16642972.72249 -12937418.32147  22344073.170    22344077.985
  21354967.724   -24728447.55549 -18963802.72647  21354967.034    21354972.181
  23863619.047    -5943402.25049  -4607158.39245  23863618.451    23863623.886
  20226090.815   -29002892.41249 -22539508.53748  20226090.009    20226094.763
  20735668.365   -26368232.95749 -20518721.76548  20735667.826    20735671.231
  23564916.214   -13019984.76849 -10102057.53245  23564915.799    23564920.820
 03  2 26  2 38  0.0000000  0  8G 3G14G23G17G31G15G18G 9
  22103721.312   -16260613.84049 -12620296.54047  22103720.922    22103725.840
  21943103.192   -18238054.65149 -14180988.73747  21943102.656    21943106.804
  22355159.200   -16584718.53749 -12892025.43647  22355158.586    22355163.388
  21363473.058   -24683752.14849 -18928975.13647  21363472.346    21363477.458
  23848766.313    -6021454.32949  -4667978.10545  23848765.613    23848771.107
  20225799.554   -29004422.83049 -22540701.05348  20225798.771    20225803.520
  20740977.323   -26340334.01049 -20496982.31548  20740976.811    20740980.178
  23556409.950   -13064685.40249 -10136889.14945  23556409.567    23556414.456
 03  2 26  2 38 30.0000000  0  8G 3G14G23G17G31G15G18G 9
  22097262.064   -16294557.38349 -12646746.02347  22097261.654    22097266.569
  21925964.810   -18328117.33349 -14251167.39847  21925964.271    21925968.360
  22366254.450   -16526412.52549 -12846592.16647  22366253.845    22366258.628
  21372042.835   -24638717.62949 -18893883.29747  21372042.133    21372047.219
  23833987.619    -6099116.54249  -4728494.03645  23833986.895    23833992.499
  20225577.582   -29005589.38749 -22541610.04848  20225576.795    20225581.545
  20746328.697   -26312212.43949 -20475069.39348  20746328.166    20746331.536
  23547985.671   -13108955.40549 -10171385.22345  23547985.289    23547990.066
 03  2 26  2 39  0.0000000  0  8G 3G14G23G17G31G15G18G 9
  22090904.882   -16327964.39249 -12672777.43547  22090904.485    22090909.387
  21908892.557   -18417832.57349 -14321075.32247  21908891.990    21908896.028
  22377359.487   -16468055.01449 -12801118.77547  22377358.897    22377363.681
  21380677.205   -24593343.45049 -18858526.79747  21380676.506    21380681.610
  23819283.745    -6176385.98149  -4788703.92345  23819283.073    23819288.548
  20225425.138   -29006390.46949 -22542234.25248  20225424.340    20225429.115
  20751722.298   -26283868.74249 -20452983.37948  20751721.772    20751725.140
  23539643.880   -13152791.68049 -10205543.32345  23539643.534    23539648.260
 03  2 26  2 39 30.0000000  0  8G 3G14G23G17G31G15G18G 9
  22084649.847   -16360834.24949 -12698390.28747  22084649.495    22084654.424
  21891886.625   -18507198.95349 -14390711.40447  21891886.053    21891890.103
  22388474.091   -16409647.48549 -12755606.40947  22388473.492    22388478.255
  21389376.251   -24547629.51649 -18822905.55547  21389375.544    21389380.669
  23804654.873    -6253260.89149  -4848606.36545  23804654.201    23804659.731
  20225342.314   -29006825.51249 -22542573.23148  20225341.547    20225346.307
  20757157.932   -26255304.19349 -20430725.27648  20757157.409    20757160.766
  23531385.071   -13196191.93749 -10239361.67045  23531384.731    23531389.361
 03  2 26  2 40  0.0000000  0  8G 3G14G23G17G31G15G18G 9
  22078497.507   -16393165.11849 -12723583.14747  22078497.115    22078502.077
  21874947.741   -18596213.03849 -14460072.97847  21874947.179    21874951.216
  22399598.196   -16351189.95049 -12710055.07647  22399597.601    22399602.342
  21398140.154   -24501574.60849 -18787018.61047  21398139.476    21398144.610
  23790101.753    -6329737.88449  -4908198.78145  23790101.086    23790106.628
  20225329.604   -29006892.41249 -22542625.34348  20225328.836    20225333.558
  20762635.443   -26226519.64149 -20408295.73948  20762634.897    20762638.267
  23523209.896   -13239152.61249 -10272837.46945  23523209.531    23523214.183
 03  2 26  2 40 30.0000000  0  8G 3G14G23G17G31G15G18G 9
  22072447.793   -16424956.48949 -12748355.62447  22072447.403    22072452.380
  21858076.286   -18684872.95249 -14529158.57547  21858075.739    21858079.767
  22410731.596   -16292683.71649 -12664465.79547  22410730.974    22410735.679
  21406968.985   -24455178.94149 -18750866.13647  21406968.284    21406973.427
  23775624.684    -6405814.99549  -4967479.57145  23775624.058    23775629.613
  20225387.077   -29006590.37349 -22542389.97348  20225386.276    20225391.043
  20768154.611   -26197516.01849 -20385695.49848  20768154.096    20768157.472
  23515118.822   -13281671.52949 -10305969.06245  23515118.442    23515123.036
 03  2 26  2 41  0.0000000  0  8G 3G14G23G17G31G15G18G 9
  22066500.801   -16456207.95549 -12772707.39447  22066500.400    22066505.374
  21841272.486   -18773177.22449 -14597967.04747  21841271.942    21841275.994
  22421873.984   -16234130.37749 -12618839.79947  22421873.370    22421878.007
  21415862.516   -24408443.01849 -18714448.53147  21415861.827    21415866.983
  23761223.978    -6481490.87549  -5026447.72845  23761223.427    23761228.918
  20225514.771   -29005919.16549 -22541866.94048  20225513.978    20225518.733
  20773715.091   -26168295.58649 -20362926.31248  20773714.567    20773717.935
  23507112.119   -13323746.88349 -10338755.00145  23507111.695    23507116.287
 03  2 26  2 41 30.0000000  0  8G 3G14G23G17G31G15G18G 9
  22060656.846   -16486918.11649 -12796637.37247  22060656.465    22060661.397
  21824536.864   -18861123.21249 -14666496.33947  21824536.298    21824540.342
  22433025.228   -16175530.02249 -12573177.18047  22433024.621    22433029.268
  21424821.078   -24361365.41149 -18677764.69347  21424820.376    21424825.595
  23746900.256    -6556762.63149  -5085100.98245  23746899.624    23746905.164
  20225713.081   -29004876.89449 -22541054.77048  20225712.291    20225717.037
  20779316.673   -26138858.79749 -20339988.54348  20779316.159    20779319.553
  23499190.346   -13365375.65649 -10371192.96145  23499189.980    23499194.627
 03  2 26  2 42  0.0000000  0  8G 3G14G23G17G31G15G18G 9
  22054916.128   -16517085.64649 -12820144.51847  22054915.749    22054920.693
  21807869.885   -18948708.41249 -14734744.49247  21807869.347    21807873.407
  22444185.376   -16116882.99249 -12527478.18547  22444184.784    22444189.442
  21433844.726   -24313945.95049 -18640814.46547  21433844.028    21433849.265
  23732653.876    -6631627.32549  -5143437.04245  23732653.346    23732658.842
  20225982.288   -29003462.17649 -22539952.38448  20225981.494    20225986.221
  20784959.320   -26109206.49049 -20316882.83648  20784958.812    20784962.175
  23491354.154   -13406554.76749 -10403280.54645  23491353.844    23491358.451
 03  2 26  2 42 30.0000000  0  8G 3G14G23G17G31G15G18G 9
  22049278.821   -16546709.69649 -12843228.16947  22049278.442    22049283.402
  21791272.014   -19035930.34249 -14802709.58847  21791271.497    21791275.556
  22455354.190   -16058190.27849 -12481743.59447  22455353.592    22455358.260
  21442933.460   -24266184.20949 -18603597.52147  21442932.756    21442938.035
  23718485.376    -6706082.80349  -5201454.23845  23718484.855    23718490.323
  20226322.542   -29001674.09649 -22538559.07148  20226321.769    20226326.488
  20790642.813   -26079339.55349 -20293609.88248  20790642.278    20790645.627
  23483603.917   -13447281.89049 -10435015.93745  23483603.610    23483608.317
 03  2 26  2 43  0.0000000  0  8G 3G14G23G17G31G15G18G 9
  22043744.998   -16575790.07849 -12865888.18247  22043744.623    22043749.571
  21774743.572   -19122787.75349 -14870390.63347  21774743.039    21774747.104
  22466531.420   -15999453.45649 -12435974.63347  22466530.844    22466535.524
  21452087.216   -24218080.85849 -18566114.38747  21452086.540    21452091.796
  23704395.086    -6780127.60649  -5259151.42645  23704394.549    23704400.048
  20226733.902   -28999512.38549 -22536874.61848  20226733.114    20226737.848
  20796366.773   -26049260.00649 -20270171.26048  20796366.255    20796369.588
  23475940.167   -13487555.38049 -10466397.83745  23475939.845    23475944.551
 03  2 26  2 43 30.0000000  0  8G 3G14G23G17G31G15G18G 9
  22038314.803   -16604325.96649 -12888123.92347  22038314.442    22038319.322
  21758284.945   -19209278.25149 -14937785.78247  21758284.413    21758288.475
  22477716.975   -15940673.10849 -12390171.75047  22477716.331    22477721.033
  21461306.181   -24169634.87049 -18528364.26247  21461305.507    21461310.763
  23690383.428    -6853759.18149  -5316526.62345  23690382.919    23690388.386
  20227216.600   -28996975.60849 -22534897.89748  20227215.820    20227220.571
  20802131.034   -26018968.67049 -20246567.60348  20802130.515    20802133.810
  23468363.185   -13527372.13949 -10497423.85045  23468362.950    23468367.570
 03  2 26  2 44  0.0000000  0  8G 3G14G23G17G31G15G18G 9
  22032988.522   -16632315.78149 -12909934.14847  22032988.130    22032993.045
  21741896.689   -19295399.12249 -15004892.91147  21741896.159    21741900.189
  22488910.745   -15881849.23849 -12344334.96247  22488910.121    22488914.838
  21470590.465   -24120845.73949 -18490346.76147  21470589.790    21470595.046
  23676450.949    -6926974.57149  -5373577.51945  23676450.425    23676455.982
  20227771.014   -28994062.11849 -22532627.63048  20227770.246    20227774.980
  20807935.538   -25988465.89349 -20222799.18948  20807935.006    20807938.286
  23460873.639   -13566729.21749 -10528091.66945  23460873.455    23460878.164
 03  2 26  2 44 30.0000000  0  8G 3G14G23G17G31G15G18G 9
  22027766.194   -16659759.21049 -12931318.61347  22027765.795    22027770.721
  21725579.031   -19381148.80549 -15071710.79947  21725578.485    21725582.531
  22500112.523   -15822983.28549 -12298465.38346  22500111.927    22500116.636
  21479939.956   -24071713.96049 -18452062.26447  21479939.277    21479944.535
  23662597.924    -6999772.23549  -5430302.92545  23662597.425    23662603.012
  20228397.213   -28990771.47349 -22530063.47548  20228396.423    20228401.185
  20813779.928   -25957753.41249 -20198867.37248  20813779.400    20813782.670
  23453472.054   -13605624.88849 -10558399.95245  23453471.800    23453476.506
 03  2 26  2 45  0.0000000  0  8G 3G14G23G17G31G15G18G 9
  22022648.038   -16686655.16549 -12952276.48547  22022647.618    22022652.552
  21709332.555   -19466524.55849 -15138237.31947  21709332.012    21709336.051
  22511322.252   -15764075.59049 -12252563.27346  22511321.667    22511326.374
  21489354.771   -24022238.96349 -18413510.31747  21489354.060    21489359.327
  23648824.945    -7072149.52449  -5486700.76545  23648824.390    23648829.969
  20229095.428   -28987102.21549 -22527204.29748  20229094.649    20229099.381
  20819664.093   -25926831.82849 -20174772.61448  20819663.557    20819666.816
  23446158.836   -13644056.25849 -10588346.43645  23446158.583    23446163.186
 03  2 26  2 45 30.0000000  0  8G 3G14G23G17G31G15G18G 9
  22017634.141   -16713003.34149 -12972807.50847  22017633.739    22017638.656
  21693157.484   -19551525.00349 -15204471.38647  21693156.940    21693160.978
  22522539.650   -15705127.49749 -12206629.68846  22522539.120    22522543.858
  21498834.840   -23972420.65649 -18374690.85247  21498834.127    21498839.414
  23635132.316    -7144104.68149  -5542769.65745  23635131.739    23635137.256
  20229865.848   -28983053.65849 -22524049.56748  20229865.086    20229869.790
  20825587.752   -25895702.71149 -20150516.14548  20825587.226    20825590.463
  23438934.355   -13682021.18749 -10617929.47545  23438934.103    23438938.683
 03  2 26  2 46  0.0000000  0  8G 3G14G23G17G31G15G18G 9
  22012724.588   -16738803.45949 -12992911.47447  22012724.168    22012729.029
  21677054.153   -19636148.33949 -15270411.60247  21677053.598    21677057.635
  22533764.585   -15646140.24249 -12160665.58146  22533764.010    22533768.744
  21508380.223   -23922259.16749 -18335603.97947  21508379.539    21508384.839
  23621520.396    -7215635.92849  -5598508.24145  23621519.772    23621525.181
  20230708.507   -28978625.31649 -22520598.90248  20230707.733    20230712.435
  20831550.636   -25864367.61149 -20126099.17148  20831550.108    20831553.322
  23431798.959   -13719517.87649 -10647147.63845  23431798.674    23431803.276
 03  2 26  2 46 30.0000000  0  8G 3G14G23G17G31G15G18G 9
  22007919.671   -16764053.32649 -13012586.67147  22007919.245    22007924.128
  21661023.360   -19720390.69549 -15336054.95347  21661022.806    21661026.837
  22544997.118   -15587112.85349 -12114670.20646  22544996.494    22545001.302
  21517991.225   -23871753.04949 -18296248.56247  21517990.545    21517995.813
  23607989.852    -7286739.31449  -5653913.42745  23607989.289    23607994.656
  20231623.993   -28973814.24849 -22516850.00748  20231623.239    20231627.962
  20837552.802   -25832826.00249 -20101521.28048  20837552.263    20837555.464
  23424753.381   -13756542.21449 -10675997.73645  23424753.101    23424757.760
 03  2 26  2 47  0.0000000  0  8G 3G14G23G17G31G15G18G 9
  22003219.352   -16788753.54949 -13031833.57747  22003218.958    22003223.806
  21645065.149   -19804251.37949 -15401400.89047  21645064.604    21645068.639
  22556236.846   -15528047.50349 -12068645.25046  22556236.263    22556241.060
  21527667.709   -23820902.96849 -18256625.11847  21527666.996    21527672.252
  23594540.887    -7357414.11349  -5708984.64245  23594540.250    23594545.672
  20232612.274   -28968620.90749 -22512803.23248  20232611.495    20232616.197
  20843593.852   -25801080.06049 -20076784.16748  20843593.321    20843596.509
  23417797.949   -13793093.11749 -10704478.92345  23417797.746    23417802.421
 03  2 26  2 47 30.0000000  0  8G 3G14G23G17G31G15G18G 9
  21998624.013   -16812902.14849 -13050650.64247  21998623.600    21998628.430
  21629180.218   -19887727.06749 -15466446.83847  21629179.651    21629183.682
  22567483.959   -15468943.53249 -12022590.19946  22567483.366    22567488.127
  21537409.823   -23769707.67749 -18216732.68647  21537409.122    21537414.364
  23581174.091    -7427656.78549  -5763719.14345  23581173.423    23581178.800
  20233673.661   -28963043.17549 -22508456.93848  20233672.880    20233677.582
  20849673.773   -25769129.91049 -20051887.93648  20849673.222    20849676.403
  23410933.300   -13829167.02649 -10732588.42345  23410933.058    23410937.832
 03  2 26  2 48  0.0000000  0  8G 3G14G23G17G31G15G18G 9
  21994133.404   -16836500.27949 -13069038.76947  21994133.009    21994137.851
  21613368.495   -19970817.67049 -15531192.71947  21613367.967    21613372.003
  22578737.966   -15409803.55849 -11976507.09246  22578737.345    22578742.113
  21547217.313   -23718169.07549 -18176572.73547  21547216.592    21547221.828
  23567889.526    -7497467.15649  -5818116.78445  23567888.940    23567894.241
  20234808.058   -28957081.83149 -22503811.71848  20234807.285    20234811.987
  20855792.037   -25736978.10249 -20026834.56348  20855791.486    20855794.665
  23404159.538   -13864763.56349 -10760325.94245  23404159.268    23404164.024
 03  2 26  2 48 30.0000000  0  8G 3G14G23G17G31G15G18G 9
  21989747.978   -16859545.54249 -13086996.09147  21989747.585    21989752.465
  21597630.855   -20053519.27549 -15595635.48447  21597630.332    21597634.399
  22589999.025   -15350626.43749 -11930395.04746  22589998.390    22590003.159
  21557090.626   -23666284.65049 -18136143.31747  21557089.917    21557095.123
  23554688.125    -7566841.13549  -5872174.38245  23554687.480    23554692.797
  20236016.021   -28950733.91349 -22498865.28548  20236015.248    20236019.934
  20861948.774   -25704624.08549 -20001623.63048  20861948.234    20861951.420
  23397477.371   -13899878.56049 -10787688.23745  23397477.104    23397481.881
 03  2 26  2 49  0.0000000  0  8G 3G14G23G17G31G15G18G 9
  21985467.780   -16882038.15749 -13104522.77747  21985467.378    21985472.230
  21581967.450   -20135830.71949 -15659774.22547  21581966.945    21581970.999
  22601266.787   -15291413.67249 -11884255.22446  22601266.149    22601270.968
  21567029.496   -23614055.56249 -18095445.32847  21567028.777    21567033.999
  23541569.885    -7635777.42049  -5925890.93145  23541569.331    23541574.575
  20237297.557   -28943999.38449 -22493617.58748  20237296.771    20237301.445
  20868143.626   -25672069.82349 -19976256.65748  20868143.085    20868146.295
  23390887.061   -13934510.58649 -10814674.20645  23390886.766    23390891.517
 03  2 26  2 49 30.0000000  0  8G 3G14G23G17G31G15G18G 9
  21981292.758   -16903977.94049 -13121618.69047  21981292.338    21981297.166
  21566378.678   -20217750.01749 -15723607.39947  21566378.187    21566382.230
  22612541.136   -15232166.39349 -11838088.51546  22612540.534    22612545.312
  21577034.015   -23561481.61449 -18054478.62747  21577033.271    21577038.469
  23528535.345    -7704274.23349  -5979265.02745  23528534.775    23528540.060
  20238652.794   -28936877.52549 -22488068.07348  20238652.013    20238656.673
  20874376.380   -25639316.43649 -19950734.52548  20874375.830    20874379.023
  23384389.035   -13968657.46849 -10841282.13245  23384388.764    23384393.560
 03  2 26  2 50  0.0000000  0  8G 3G14G23G17G31G15G18G 9
  21977223.215   -16925363.46749 -13138282.71647  21977222.795    21977227.601
  21550865.068   -20299274.61649 -15787133.01647  21550864.557    21550868.585
  22623822.144   -15172884.41749 -11791894.75446  22623821.564    22623826.308
  21587104.219   -23508562.04749 -18013242.59747  21587103.499    21587108.725
  23515584.979    -7772328.70049  -6032294.43945  23515584.450    23515589.683
  20240082.057   -28929366.67349 -22482215.44148  20240081.263    20240085.947
  20880646.964   -25606364.34249 -19925057.55748  20880646.429    20880649.594
  23377983.927   -14002316.51349 -10867509.93245  23377983.639    23377988.398
 03  2 26  2 50 30.0000000  0  8G 3G14G23G17G31G15G18G 9
  21973259.264   -16946194.02649 -13154514.29347  21973258.830    21973263.640
  21535426.972   -20380402.40949 -15850349.43947  21535426.445    21535430.429
  22635109.642   -15113568.44349 -11745674.51246  22635109.060    22635113.796
  21597240.304   -23455296.53749 -17971737.00547  21597239.612    21597244.845
  23502719.129    -7839938.54749  -6084977.38045  23502718.587    23502723.890
  20241585.529   -28921465.61649 -22476058.76248  20241584.772    20241589.451
  20886955.163   -25573214.51949 -19899226.51448  20886954.632    20886957.791
  23371672.074   -14035485.17549 -10893355.59945  23371671.808    23371676.609
 03  2 26  2 51  0.0000000  0  8G 3G14G23G17G31G15G18G 9
  21969400.852   -16966470.11249 -13170313.81847  21969400.401    21969405.255
  21520064.554   -20461132.31949 -15913255.82147  21520064.030    21520067.978
  22646403.273   -15054220.06549 -11699429.02146  22646402.672    22646407.396
  21607442.019   -23401686.24949 -17929962.75247  21607441.290    21607446.540
  23489938.178    -7907102.67549  -6137313.01445  23489937.645    23489942.847
  20243163.313   -28913174.39249 -22469598.05548  20243162.530    20243167.199
  20893300.593   -25539868.81449 -19873242.83448  20893300.069    20893303.236
  23365453.672   -14068162.28249 -10918818.26145  23365453.473    23365458.310
 03  2 26  2 51 30.0000000  0  8G 3G14G23G17G31G15G18G 9
  21965648.200   -16986190.18549 -13185680.09047  21965647.768    21965652.652
  21504778.487   -20541461.15849 -15975849.68147  21504777.972    21504781.839
  22657703.166   -14994838.72049 -11653157.84346  22657702.559    22657707.292
  21617709.623   -23347729.75649 -17887918.72147  21617708.882    21617714.111
  23477242.753    -7973817.70949  -6189298.69545  23477242.173    23477247.369
  20244815.777   -28904490.77049 -22462831.58548  20244814.976    20244819.662
  20899683.391   -25506326.76949 -19847106.16548  20899682.861    20899686.057
  23359329.727   -14100344.29749 -10943895.13745  23359329.493    23359334.271
 03  2 26  2 52  0.0000000  0  8G 3G14G23G17G31G15G18G 9
  21962001.251   -17005355.04649 -13200613.73247  21962000.813    21962005.693
  21489568.891   -20621388.13849 -16038130.40647  21489568.361    21489572.194
  22669008.953   -14935426.24349 -11606862.40246  22669008.352    22669013.094
  21628042.905   -23293427.83449 -17845605.53247  21628042.178    21628047.404
  23464632.998    -8040082.83049  -6240933.80545  23464632.363    23464637.394
  20246542.816   -28895415.05849 -22455759.59948  20246542.021    20246546.685
  20906103.129   -25472590.82049 -19820818.40448  20906102.606    20906105.784
  23353300.115   -14132030.06049 -10968585.32445  23353299.817    23353304.691
 03  2 26  2 52 30.0000000  0  8G 3G14G23G17G31G15G18G 9
  21958460.165   -17023963.33649 -13215113.67647  21958459.755    21958464.598
  21474436.296   -20700910.27249 -16100095.66847  21474435.778    21474439.569
  22680320.803   -14875982.22449 -11560542.37646  22680320.191    22680324.899
  21638442.093   -23238779.80549 -17803022.65447  21638441.339    21638446.562
  23452109.191    -8105895.07849  -6292216.02245  23452108.623    23452113.697
  20248344.802   -28885945.42849 -22448380.66248  20248344.003    20248348.668
  20912559.749   -25438661.10949 -19794379.65448  20912559.216    20912562.377
  23347365.529   -14163216.51049 -10992886.42145  23347365.215    23347370.159
 03  2 26  2 53  0.0000000  0  8G 3G14G23G17G31G15G18G 9
  21955024.907   -17042015.44349 -13229180.23047  21955024.523    21955029.357
  21459380.937   -20780026.68549 -16161744.78247  21459380.400    21459384.165
  22691638.355   -14816508.17549 -11514198.95946  22691637.726    22691642.446
  21648906.936   -23183786.57149 -17760170.78547  21648906.204    21648911.412
  23439671.875    -8171253.28449  -6343144.43545  23439671.303    23439676.416
  20250221.753   -28876081.84849 -22440694.74248  20250220.964    20250225.636
  20919052.839   -25404539.53349 -19767791.40148  20919052.302    20919055.512
  23341526.120   -14193902.65949 -11016797.67445  23341525.778    23341530.721
 03  2 26  2 53 30.0000000  0  8G 3G14G23G17G31G15G18G 9
  21951695.677   -17059510.43349 -13242812.67447  21951695.298    21951700.132
  21444403.228   -20858734.84349 -16223075.78047  21444402.719    21444406.472
  22702961.546   -14757004.41049 -11467832.38046  22702960.917    22702965.620
  21659437.655   -23128447.19149 -17717049.19347  21659436.924    21659442.125
  23427321.504    -8236154.94949  -6393717.10245  23427320.893    23427326.046
  20252173.964   -28865822.89549 -22432700.74448  20252173.182    20252177.850
  20925582.300   -25370226.72849 -19741054.14248  20925581.781    20925585.001
  23335782.276   -14224085.80849 -11040316.99245  23335782.015    23335787.055
 03  2 26  2 54  0.0000000  0  8G 3G14G23G17G31G15G18G 9
  21948472.772   -17076447.17649 -13256010.12347  21948472.379    21948477.171
  21429503.752   -20937032.15949 -16284086.63947  21429503.224    21429506.969
  22714290.393   -14697470.87349 -11421442.61246  22714289.784    22714294.481
  21670034.361   -23072761.15249 -17673657.48447  21670033.638    21670038.855
  23415058.547    -8300597.23849  -6443931.82346  23415057.963    23415063.055
  20254201.715   -28855166.91849 -22424397.37948  20254200.939    20254205.616
  20932148.210   -25335722.59749 -19714167.79848  20932147.706    20932150.917
  23330134.898   -14253763.08649 -11063442.11445  23330134.654    23330139.664
 03  2 26  2 54 30.0000000  0  8G 3G14G23G17G31G15G18G 9
  21945355.995   -17092825.86749 -13268772.71847  21945355.597    21945360.398
  21414682.697   -21014917.27449 -16344776.30447  21414682.164    21414685.857
  22725624.709   -14637908.64249 -11375030.48246  22725624.098    22725628.818
  21680697.020   -23016728.54949 -17629995.71047  21680696.277    21680701.503
  23402883.147    -8364578.87549  -6493787.57746  23402882.651    23402887.692
  20256305.084   -28844113.58749 -22415784.38048  20256304.292    20256308.991
  20938750.225   -25301028.81249 -19687133.66947  20938749.705    20938752.909
  23324583.975   -14282933.10949 -11086171.96645  23324583.657    23324588.723
 03  2 26  2 55  0.0000000  0  8G 3G14G23G17G31G15G18G 9
  21942345.283   -17108647.17949 -13281101.00047  21942344.861    21942349.683
  21399940.223   -21092389.47149 -16405144.21247  21399939.680    21399943.339
  22736964.205   -14578319.18549 -11328597.13446  22736963.607    22736968.274
  21691425.390   -22960350.63649 -17586064.87047  21691424.639    21691429.860
  23390795.656    -8428098.80749  -6543283.57646  23390795.130    23390800.161
  20258484.044   -28832663.05849 -22406861.87848  20258483.254    20258487.933
  20945387.893   -25266147.47449 -19659953.39547  20945387.370    20945390.576
  23319129.797   -14311594.55549 -11108505.54245  23319129.562    23319134.607
 03  2 26  2 55 30.0000000  0  8G 3G14G23G17G31G15G18G 9
  21939440.926   -17123909.46349 -13292993.67647  21939440.522    21939445.372
  21385276.930   -21169445.20949 -16465187.61347  21385276.401    21385280.068
  22748309.048   -14518701.80049 -11282142.02246  22748308.404    22748313.069
  21702219.643   -22903626.34549 -17541864.12447  21702218.897    21702224.130
  23378796.665    -8491153.64349  -6592417.15146  23378796.117    23378801.147
  20260738.985   -28820813.17049 -22397628.19448  20260738.203    20260742.877
  20952061.390   -25231078.01049 -19632626.52747  20952060.870    20952064.092
  23313773.106   -14339744.23049 -11130440.32845  23313772.841    23313777.841
 03  2 26  2 56  0.0000000  0  8G 3G14G23G17G31G15G18G 9
  21936642.882   -17138613.14349 -13304451.07947  21936642.468    21936647.326
  21370693.152   -21246083.29949 -16524905.56847  21370692.627    21370696.313
  22759658.906   -14459057.48949 -11235665.92846  22759658.287    22759662.984
  21713079.822   -22846555.72549 -17497393.51947  21713079.098    21713084.323
  23366886.526    -8553741.99549  -6641187.25746  23366885.981    23366890.900
  20263070.026   -28808563.38249 -22388082.90248  20263069.239    20263073.931
  20958770.387   -25195821.81449 -19605154.15647  20958769.876    20958773.101
  23308514.107   -14367380.55549 -11151975.10045  23308513.802    23308518.822
 03  2 26  2 56 30.0000000  0  8G 3G14G23G17G31G15G18G 9
  21933951.313   -17152757.26449 -13315472.46047  21933950.902    21933955.757
  21356189.327   -21322301.17549 -16584296.09347  21356188.818    21356192.505
  22771013.929   -14399386.37149 -11189168.95646  22771013.296    22771018.021
  21724005.997   -22789138.40849 -17452652.76647  21724005.294    21724010.500
  23355065.599    -8615861.19849  -6689591.78146  23355065.045    23355069.943
  20265477.526   -28795912.05149 -22378224.72248  20265476.732    20265481.413
  20965514.911   -25160379.28649 -19577536.59747  20965514.376    20965517.598
  23303353.264   -14394500.84249 -11173107.76445  23303352.954    23303357.984
 03  2 26  2 57  0.0000000  0  8G 3G14G23G17G31G15G18G 9
  21931365.865   -17166343.69049 -13326059.27047  21931365.462    21931370.356
  21341765.404   -21398099.16849 -16643359.43047  21341764.904    21341768.590
  22782373.624   -14339691.07649 -11142653.13446  22782372.951    22782377.638
  21734997.724   -22731376.48649 -17407643.47547  21734997.015    21735002.227
  23343333.872    -8677511.57049  -6737630.96546  23343333.287    23343338.245
  20267961.110   -28782860.57349 -22368054.73248  20267960.343    20267964.994
  20972294.221   -25124753.59449 -19549776.31047  20972293.693    20972296.912
  23298290.600   -14421105.30549 -11193838.48246  23298290.359    23298295.361
 03  2 26  2 57 30.0000000  0  8G 3G14G23G17G31G15G18G 9
  21928887.009   -17179370.02949 -13336209.65247  21928886.638    21928891.481
  21327422.112   -21473473.48949 -16702092.63247  21327421.584    21327425.302
  22793738.114   -14279969.86949 -11096117.13046  22793737.474    22793742.217
  21746055.485   -22673267.47349 -17362363.73347  21746054.800    21746059.979
  23331692.167    -8738689.04249  -6785301.67846  23331691.566    23331696.558
  20270521.470   -28769405.99049 -22357570.63348  20270520.681    20270525.320
  20979108.648   -25088943.71449 -19521872.50347  20979108.136    20979111.321
  23293326.848   -14447189.81249 -11214164.04446  23293326.625    23293331.615
 03  2 26  2 58  0.0000000  0  8G 3G14G23G17G31G15G18G 9
  21926514.752   -17191836.36149 -13345923.67047  21926514.380    21926519.202
  21313159.715   -21548422.29549 -16760494.26647  21313159.207    21313162.947
  22805107.413   -14220223.32549 -11049561.38246  22805106.813    22805111.600
  21757179.207   -22614812.03049 -17316814.04647  21757178.529    21757183.684
  23320140.796    -8799391.64749  -6832602.35846  23320140.143    23320145.169
  20273158.685   -28755547.39849 -22346771.72648  20273157.895    20273162.514
  20985957.960   -25052950.36249 -19493825.72547  20985957.424    20985960.624
  23288462.623   -14472752.28149 -11234082.82146  23288462.253    23288467.263
 03  2 26  2 58 30.0000000  0  8G 3G14G23G17G31G15G18G 9
  21924249.076   -17203742.50649 -13355201.17447  21924248.708    21924253.528
  21298978.660   -21622944.19649 -16818563.25047  21298978.164    21298981.874
  22816481.470   -14160452.35749 -11002986.60646  22816480.829    22816485.645
  21768368.856   -22556010.10049 -17270994.37847  21768368.172    21768373.351
  23308680.076    -8859617.99349  -6879531.93246  23308679.407    23308684.402
  20275872.827   -28741284.52549 -22335657.78748  20275872.036    20275876.655
  20992841.910   -25016774.85849 -19465637.00947  20992841.378    20992844.585
  23283697.779   -14497791.37049 -11253593.77546  23283697.462    23283702.450
 03  2 26  2 59  0.0000000  0  8G 3G14G23G17G31G15G18G 9
  21922089.839   -17215089.46049 -13364042.94647  21922089.443    21922094.270
  21284879.025   -21697038.35549 -16876298.92447  21284878.495    21284882.202
  22827859.856   -14100658.66149 -10956394.10746  22827859.232    22827864.003
  21779624.250   -22496862.83349 -17224905.59947  21779623.540    21779628.696
  23297310.128    -8919367.23649  -6926089.73546  23297309.408    23297314.441
  20278663.851   -28726617.63049 -22324229.02748  20278663.054    20278667.669
  20999760.144   -24980419.22849 -19437307.93747  20999759.639    20999762.811
  23279032.736   -14522306.25349 -11272696.25446  23279032.441    23279037.375
 03  2 26  2 59 30.0000000  0  8G 3G14G23G17G31G15G18G 9
  21920037.192   -17225876.00249 -13372448.03747  21920036.794    21920041.657
  21270861.342   -21770701.56449 -16933698.79647  21270860.820    21270864.546
  22839242.702   -14040841.42049 -10909783.26246  22839242.032    22839246.843
  21790945.499   -22437369.20549 -17178546.93347  21790944.783    21790949.964
  23286031.565    -8978636.10349  -6972273.22146  23286030.917    23286035.932
  20281532.166   -28711544.54949 -22312483.76648  20281531.358    20281535.983
  21006712.732   -24943883.05049 -19408838.18447  21006712.216    21006715.384
  23274468.146   -14546293.81149 -11291387.83246  23274467.771    23274472.705
 03  2 26  3  0  0.0000000  0  8G 3G14G23G17G31G15G18G 9
  21918091.278   -17236102.06549 -13380416.38547  21918090.851    21918095.724
  21256925.951   -21843932.37649 -16990761.73647  21256925.417    21256929.160
  22850629.785   -13981001.41349 -10863154.68846  22850629.158    22850633.997
  21802332.608   -22377529.50649 -17131918.60647  21802331.900    21802337.081
  23274844.768    -9037422.94549  -7018081.09546  23274844.141    23274849.104
  20284477.906   -28696064.50049 -22300421.38348  20284477.099    20284481.710
  21013699.437   -24907167.60049 -19380228.72947  21013698.919    21013702.097
  23270004.190   -14569752.29849 -11309667.14846  23270003.742    23270008.690
 03  2 26  3  0 30.0000000  0  8G 3G14G23G17G31G15G18G 9
  21916251.861   -17245768.36949 -13387948.56047  21916251.435    21916256.259
  21243073.067   -21916729.53649 -17047486.76647  21243072.547    21243076.321
  22862021.141   -13921139.56249 -10816509.09546  22862020.493    22862025.328
  21813785.480   -22317344.38949 -17085021.12747  21813784.751    21813789.905
  23263749.873    -9095726.57949  -7063512.45346  23263749.252    23263754.220
  20287501.160   -28680177.29249 -22288041.73848  20287500.346    20287504.931
  21020720.070   -24870273.93149 -19351480.40747  21020719.549    21020722.738
  23265640.906   -14592680.36149 -11327533.14146  23265640.562    23265645.634
 03  2 26  3  1  0.0000000  0  8G 3G14G23G17G31G15G18G 9
  21914519.015   -17254874.47549 -13395044.21947  21914518.605    21914523.407
  21229303.098   -21989091.02749 -17103872.31347  21229302.580    21229306.353
  22873416.633   -13861256.05249 -10769846.62546  22873416.024    22873420.767
  21825304.167   -22256813.41249 -17037854.14146  21825303.417    21825308.605
  23252747.471    -9153544.82249  -7108565.58546  23252746.898    23252751.708
  20290602.074   -28663881.73249 -22275343.90048  20290601.269    20290605.877
  21027774.462   -24833202.85549 -19322593.84747  21027773.945    21027777.129
  23261379.050   -14615075.81249 -11344984.11346  23261378.812    23261383.873
 03  2 26  3  1 30.0000000  0  8G 3G14G23G17G31G15G18G 9
  21912892.868   -17263419.73949 -13401702.86047  21912892.470    21912897.281
  21215616.365   -22061014.91149 -17159916.87147  21215615.875    21215619.620
  22884816.237   -13801351.02149 -10723167.37646  22884815.631    22884820.339
  21836888.650   -22195936.25949 -16990417.41846  21836887.907    21836893.127
  23241837.834    -9210875.43349  -7153238.74446  23241837.181    23241841.993
  20293780.916   -28647176.67149 -22262326.96948  20293780.128    20293784.721
  21034862.536   -24795954.70149 -19293569.30347  21034862.018    21034865.204
  23257219.107   -14636936.69249 -11362018.54146  23257218.882    23257223.825
 03  2 26  3  2  0.0000000  0  8G 3G14G23G17G31G15G18G 9
  21911373.260   -17271405.54249 -13407925.55447  21911372.822    21911377.655
  21202013.098   -22132500.71849 -17215620.06847  21202012.582    21202016.280
  22896219.509   -13741426.09149 -10676472.62346  22896218.958    22896223.639
  21848538.745   -22134714.59949 -16942712.23846  21848538.012    21848543.263
  23231021.016    -9267718.03449  -7197531.63746  23231020.419    23231025.165
  20297037.586   -28630062.72049 -22248991.41748  20297036.794    20297041.394
  21041983.846   -24758531.97449 -19264408.73047  21041983.308    21041986.526
  23253160.926   -14658262.54749 -11378636.07146  23253160.682    23253165.555
 03  2 26  3  2 30.0000000  0  8G 3G14G23G17G31G15G18G 9
  21909960.286   -17278830.61849 -13413711.31747  21909959.851    21909964.699
  21188493.816   -22203545.19449 -17270979.37047  21188493.281    21188496.953
  22907626.801   -13681480.34049 -10629761.65246  22907626.211    22907630.914
  21860254.713   -22073146.76949 -16894737.31546  21860253.961    21860259.254
  23220297.668    -9324069.42349  -7241441.76446  23220297.113    23220301.765
  20300372.485   -28612537.58249 -22235335.46648  20300371.695    20300376.312
  21049138.483   -24720934.04349 -19235111.63547  21049137.935    21049141.155
  23249205.162   -14679049.80949 -11394833.90846  23249204.970    23249209.869
 03  2 26  3  3  0.0000000  0  8G 3G14G23G17G31G15G18G 9
  21908653.900   -17285695.40749 -13419060.49747  21908653.495    21908658.334
  21175058.640   -22274147.25549 -17325993.93547  21175058.112    21175061.792
  22919037.870   -13621514.82449 -10583035.27246  22919037.291    22919041.949
  21872036.409   -22011233.44949 -16846493.17646  21872035.665    21872040.976
  23209668.092    -9379928.15949  -7284968.01146  23209667.512    23209672.162
  20303785.724   -28594600.68649 -22221358.66348  20303784.952    20303789.583
  21056326.256   -24683162.00449 -19205678.86947  21056325.719    21056328.951
  23245352.129   -14699297.40849 -11410611.23646  23245351.948    23245356.820
 03  2 26  3  3 30.0000000  0  8G 3G14G23G17G31G15G18G 9
  21907454.105   -17292000.45449 -13423973.51447  21907453.665    21907458.521
  21161707.961   -22344305.61449 -17380662.76147  21161707.425    21161711.073
  22930452.641   -13561530.20949 -10536294.02046  22930452.008    22930456.634
  21883883.816   -21948974.81049 -16797979.96046  21883883.113    21883888.410
  23199132.492    -9435292.99649  -7328109.39846  23199131.896    23199136.593
  20307277.398   -28576251.88149 -22207060.89148  20307276.625    20307281.254
  21063546.890   -24645217.10549 -19176111.41247  21063546.360    21063549.601
  23241602.100   -14719003.96049 -11425966.96746  23241601.924    23241606.714
 03  2 26  3  4  0.0000000  0  8G 3G14G23G17G31G15G18G 9
  21906360.854   -17297745.64349 -13428450.27747  21906360.412    21906365.226
  21148442.038   -22414018.31449 -17434984.32047  21148441.518    21148445.168
  22941870.949   -13501526.66649 -10489538.00546  22941870.314    22941874.915
  21895796.862   -21886371.40349 -16749198.10346  21895796.146    21895801.462
  23188691.222    -9490162.03749  -7370864.46246  23188690.623    23188695.352
  20310847.542   -28557490.50749 -22192441.64148  20310846.783    20310851.422
  21070800.274   -24607100.15549 -19146409.89647  21070799.739    21070803.013
  23237955.462   -14738167.60049 -11440899.64846  23237955.188    23237959.941
 03  2 26  3  4 30.0000000  0  8G 3G14G23G17G31G15G18G 9
  21905374.088   -17302931.00249 -13432490.80947  21905373.675    21905378.529
  21135261.224   -22483284.03149 -17488957.57747  21135260.684    21135264.337
  22953292.772   -13441504.68549 -10442767.62946  22953292.166    22953296.746
  21907775.501   -21823423.24349 -16700147.59746  21907774.773    21907780.124
  23178344.654    -9544533.58749  -7413231.86846  23178344.076    23178348.755
  20314496.420   -28538315.49949 -22177500.07448  20314495.647    20314500.306
  21078086.260   -24568812.09449 -19116575.03447  21078085.715    21078088.963
  23234412.351   -14756786.79649 -11455408.07846  23234412.071    23234416.858
 03  2 26  3  5  0.0000000  0  8G 3G14G23G17G31G15G18G 9
  21904493.913   -17307556.27149 -13436094.91247  21904493.495    21904498.315
  21122165.808   -22552100.69549 -17542580.92647  21122165.269    21122168.927
  22964718.001   -13381464.35149 -10395982.94746  22964717.427    22964722.086
  21919819.717   -21760130.25449 -16650828.40546  21919819.035    21919824.406
  23168093.149    -9598405.64549  -7455210.06946  23168092.544    23168097.198
  20318224.196   -28518725.95749 -22162235.49148  20318223.437    20318228.056
  21085404.732   -24530353.32549 -19086607.16047  21085404.188    21085407.419
  23230973.187   -14774859.51349 -11469490.69046  23230972.932    23230977.749
 03  2 26  3  5 30.0000000  0  8G 3G14G23G17G31G15G18G 9
  21903720.328   -17311621.74949 -13439262.80447  21903719.890    21903724.708
  21109156.184   -22620466.69449 -17595853.11247  21109155.656    21109159.267
  22976146.764   -13321406.04749 -10349184.27546  22976146.165    22976150.857
  21931929.579   -21696492.53149 -16601240.58246  21931928.931    21931934.284
  23157936.984    -9651776.57649  -7496797.77846  23157936.354    23157940.992
  20322030.950   -28498721.42349 -22146647.53048  20322030.171    20322034.782
  21092755.497   -24491724.74049 -19056506.95547  21092754.960    21092758.184
  23227638.328   -14792384.39849 -11483146.42446  23227638.031    23227642.767
 03  2 26  3  6  0.0000000  0  8G 3G14G23G17G31G15G18G 9
  21903052.980   -17315128.77049 -13441995.54547  21903052.542    21903057.354
  21096232.332   -22688381.84549 -17648773.98247  21096231.793    21096235.407
  22987578.580   -13261331.38649 -10302372.85746  22987577.961    22987582.692
  21944104.803   -21632511.45949 -16551385.21246  21944104.143    21944109.467
  23147876.225    -9704645.99149  -7537994.69946  23147875.579    23147880.257
  20325916.573   -28478302.28449 -22130736.51148  20325915.791    20325920.428
  21100138.205   -24452928.33649 -19026275.98347  21100137.669    21100140.873
  23224407.854   -14809361.09449 -11496374.98546  23224407.497    23224412.233
 03  2 26  3  6 30.0000000  0  8G 3G14G23G17G31G15G18G 9
  21902492.232   -17318075.43849 -13444291.64447  21902491.800    21902496.589
  21083394.986   -22755842.35249 -17701340.58547  21083394.450    21083398.073
  22999013.820   -13201238.65049 -10255547.34746  22999013.214    22999017.974
  21956345.730   -21568185.23649 -16501260.89146  21956345.059    21956350.346
  23137911.568    -9757010.13149  -7578797.89646  23137910.928    23137915.599
  20329881.598   -28457465.85749 -22114500.34248  20329880.806    20329885.452
  21107553.140   -24413962.79749 -18995913.21647  21107552.585    21107555.788
  23221282.230   -14825785.85149 -11509173.47546  23221281.921    23221286.679
 03  2 26  3  7  0.0000000  0  8G 3G14G23G17G31G15G18G 9
  21902037.737   -17320463.88249 -13446152.76647  21902037.285    21902042.079
  21070644.161   -22822848.36849 -17753553.04447  21070643.607    21070647.269
  23010452.124   -13141129.96149 -10208709.40646  23010451.516    23010456.289
  21968651.947   -21503515.82849 -16450869.16846  21968651.259    21968656.534
  23128043.066    -9808869.00349  -7619207.38246  23128042.459    23128047.124
  20333925.890   -28436213.00049 -22097939.67948  20333925.107    20333929.729
  21114999.707   -24374830.68349 -18965420.65947  21114999.160    21115002.362
  23218261.688   -14841658.71949 -11521541.90846  23218261.452    23218266.151
 03  2 26  3  7 30.0000000  0  8G 3G14G23G17G31G15G18G 9
  21901689.634   -17322293.30249 -13447578.28547  21901689.186    21901693.940
  21057980.289   -22889397.30849 -17805409.33547  21057979.744    21057983.384
  23021893.551   -13081004.65949 -10161858.52046  23021892.955    23021897.727
  21981023.506   -21438502.58549 -16400209.50146  21981022.805    21981028.139
  23118271.243    -9860220.11049  -7659221.20646  23118270.644    23118275.292
  20338049.718   -28414542.17849 -22081053.31348  20338048.932    20338053.571
  21122478.016   -24335531.95949 -18934798.26947  21122477.483    21122480.657
  23215346.755   -14856977.17349 -11533478.35346  23215346.450    23215351.137
 03  2 26  3  8  0.0000000  0  8G 3G14G23G17G31G15G18G 9
  21901447.621   -17323564.97149 -13448569.18647  21901447.174    21901451.945
  21045403.419   -22955488.96149 -17856909.29847  21045402.891    21045406.516
  23033337.870   -13020864.17049 -10114995.80146  23033337.273    23033342.042
  21993460.386   -21373146.55649 -16349282.74046  21993459.665    21993465.024
  23108596.229    -9911062.96449  -7698838.99446  23108595.602    23108600.249
  20342252.972   -28392453.83749 -22063841.61448  20342252.202    20342256.818
  21129987.680   -24296068.36949 -18904047.41247  21129987.134    21129990.315
  23212537.133   -14871740.95549 -11544982.56246  23212536.905    23212541.688
 03  2 26  3  8 30.0000000  0  8G 3G14G23G17G31G15G18G 9
  21901311.858   -17324278.30749 -13449125.03047  21901311.448    21901316.177
  21032914.095   -23021120.70749 -17908050.90047  21032913.557    21032917.168
  23044785.226   -12960708.06349 -10068120.91246  23044784.588    23044789.374
  22005962.606   -21307447.02149 -16298088.31046  22005961.889    22005967.224
  23099018.218    -9961395.03949  -7738058.75746  23099017.643    23099022.298
  20346536.037   -28369946.24149 -22046303.22348  20346535.277    20346539.879
  21137528.780   -24256439.65449 -18873167.88847  21137528.254    21137531.422
  23209833.752   -14885947.59049 -11556052.65246  23209833.486    23209838.223
 03  2 26  3  9  0.0000000  0  8G 3G14G23G17G31G15G18G 9
  21901282.120   -17324434.33849 -13449246.60347  21901281.718    21901286.456
  21020512.393   -23086291.90049 -17958833.62647  21020511.863    21020515.481
  23056235.322   -12900537.33049 -10021234.62346  23056234.671    23056239.456
  22018529.900   -21241405.56349 -16246627.44046  22018529.179    22018534.486
  23089537.723   -10011215.49649  -7776879.86146  23089537.156    23089541.794
  20350898.834   -28347019.65549 -22028438.34848  20350898.066    20350902.649
  21145101.008   -24216647.26549 -18842160.82647  21145100.462    21145103.641
  23207236.428   -14899596.33049 -11566688.00846  23207236.155    23207240.936
 03  2 26  3  9 30.0000000  0  8G 3G14G23G17G31G15G18G 9
  21901358.429   -17324033.28149 -13448934.08647  21901358.045    21901362.775
  21008198.695   -23151000.69149 -18009256.03347  21008198.157    21008201.769
  23067688.231   -12840351.88849  -9974336.87746  23067687.602    23067692.449
  22031162.389   -21175021.59349 -16194899.67846  22031161.664    22031166.965
  23080154.888   -10060522.55049  -7815300.92546  23080154.322    23080158.887
  20355341.549   -28323673.04349 -22010246.17648  20355340.761    20355345.348
  21152704.186   -24176692.13749 -18811026.95147  21152703.678    21152706.843
  23204745.703   -14912685.40349 -11576887.25746  23204745.339    23204750.139
 03  2 26  3 10  0.0000000  0  8G 3G14G23G17G31G15G18G 9
  21901540.656   -17323075.71049 -13448187.92247  21901540.279    21901545.005
  20995973.233   -23215245.98949 -18059317.28547  20995972.681    20995976.280
  23079143.786   -12780152.53849  -9927428.30546  23079143.182    23079148.010
  22043859.916   -21108295.62349 -16142905.43346  22043859.214    22043864.522
  23070869.983   -10109315.01049  -7853320.99046  23070869.399    23070874.002
  20359864.228   -28299906.13449 -21991726.49548  20359863.460    20359868.067
  21160338.191   -24136575.18349 -18779766.98447  21160337.693    21160340.838
  23202361.469   -14925213.96249 -11586649.76446  23202361.229    23202365.978
 03  2 26  3 10 30.0000000  0  8G 3G14G23G17G31G15G18G 9
  21901828.973   -17321560.52549 -13447007.24847  21901828.589    21901833.302
  20983836.484   -23279024.90249 -18109015.11847  20983835.943    20983839.523
  23090602.253   -12719938.03649  -9880507.91846  23090601.659    23090606.424
  22056622.721   -21041226.75649 -16090643.99346  22056622.018    22056627.295
  23061683.523   -10157589.85749  -7890937.72146  23061682.939    23061687.615
  20364467.261   -28275716.97349 -21972877.79348  20364466.483    20364471.117
  21168003.180   -24096295.43449 -18748380.16547  21168002.677    21168005.790
  23200084.652   -14937178.99749 -11595973.13946  23200084.335    23200089.114
 03  2 26  3 11  0.0000000  0  8G 3G14G23G17G31G15G18G 9
  21902222.870   -17319490.38849 -13445394.14847  21902222.477    21902227.223
  20971788.359   -23342338.06949 -18158350.03247  20971787.833    20971791.409
  23102063.175   -12659710.57149  -9833577.42946  23102062.515    23102067.297
  22069450.303   -20973817.35849 -16038117.19546  22069449.608    22069454.866
  23052595.445   -10205347.69449  -7928151.59846  23052594.841    23052599.559
  20369150.384   -28251107.04149 -21953701.22348  20369149.581    20369154.217
  21175698.601   -24055855.92149 -18716868.85047  21175698.089    21175701.173
  23197914.951   -14948581.27049 -11604858.00846  23197914.568    23197919.249
 03  2 26  3 11 30.0000000  0  8G 3G14G23G17G31G15G18G 9
  21902722.590   -17316864.52349 -13443348.01447  21902722.181    21902726.937
  20959829.353   -23405183.04549 -18207320.11747  20959828.832    20959832.411
  23113526.720   -12599469.45549  -9786636.30046  23113526.059    23113530.814
  22082342.851   -20906066.61249 -15985324.41346  22082342.162    22082347.400
  23043606.186   -10252586.04749  -7964960.67246  23043605.674    23043610.377
  20373913.869   -28226074.73749 -21934195.53248  20373913.083    20373917.701
  21183424.496   -24015256.11549 -18685232.62647  21183423.971    21183427.045
  23195852.693   -14959418.17749 -11613302.32746  23195852.346    23195856.999
 03  2 26  3 12  0.0000000  0  8G 3G14G23G17G31G15G18G 9
  21903327.923   -17313683.66749 -13440869.42247  21903327.502    21903332.216
  20947959.638   -23467559.00649 -18255924.74247  20947959.120    20947962.656
  23124992.621   -12539215.43849  -9739685.12146  23124992.011    23124996.765
  22095300.217   -20837975.22449 -15932266.19046  22095299.512    22095304.742
  23034716.006   -10299303.88649  -8001364.15746  23034715.498    23034720.230
  20378757.800   -28200619.77349 -21914360.49748  20378757.000    20378761.612
  21191180.635   -23974497.35449 -18653472.54547  21191180.101    21191183.172
  23193898.149   -14969688.84149 -11621305.40646  23193897.829    23193902.456
 03  2 26  3 12 30.0000000  0  8G 3G14G23G17G31G15G18G 9
  21904038.837   -17309947.81449 -13437958.36647  21904038.400    21904043.109
  20936179.545   -23529463.93549 -18304162.32947  20936179.015    20936182.543
  23136461.067   -12478948.45349  -9692723.84246  23136460.472    23136465.184
  22108322.366   -20769543.21249 -15878942.55146  22108321.657    22108326.963
  23025925.305   -10345499.34049  -8037360.59746  23025924.783    23025929.532
  20383682.363   -28174740.99749 -21894195.21748  20383681.571    20383686.200
  21198966.951   -23933580.03149 -18621588.91047  21198966.421    21198969.485
  23192051.702   -14979391.79049 -11628866.12846  23192051.447    23192056.052
 03  2 26  3 13  0.0000000  0  8G 3G14G23G17G31G15G18G 9
  21904854.992   -17305658.86949 -13434616.32247  21904854.555    21904859.282
  20924489.110   -23590897.49549 -18352032.61248  20924488.588    20924492.093
  23147931.790   -12418669.64649  -9645753.33846  23147931.151    23147935.865
  22121409.111   -20700771.85749 -15825354.48446  22121408.428    22121413.764
  23017234.144   -10391172.03749  -8072949.68946  23017233.571    23017238.263
  20388687.433   -28148439.01249 -21873700.16448  20388686.646    20388691.279
  21206783.144   -23892505.68949 -18589582.92547  21206782.610    21206785.669
  23190313.469   -14988526.72049 -11635984.23646  23190313.091    23190317.662
 03  2 26  3 13 30.0000000  0  8G 3G14G23G17G31G15G18G 9
  21905776.439   -17300816.65849 -13430843.16347  21905776.027    21905780.755
  20912888.703   -23651857.99049 -18399534.27848  20912888.179    20912891.685
  23159404.678   -12358378.82749  -9598773.48046  23159404.078    23159408.820
  22134560.439   -20631661.12449 -15771501.96146  22134559.743    22134565.105
  23008642.743   -10436320.12449  -8108129.99646  23008642.118    23008646.826
  20393773.250   -28121712.75549 -21852874.50748  20393772.485    20393777.103
  21214629.135   -23851274.48549 -18557454.71047  21214628.618    21214631.685
  23188683.566   -14997091.86649 -11642658.36346  23188683.139    23188687.768
 03  2 26  3 14  0.0000000  0  8G 3G14G23G17G31G15G18G 9
  21906803.360   -17295420.29349 -13426638.20047  21906802.936    21906807.602
  20901378.854   -23712342.66049 -18446665.16948  20901378.307    20901381.803
  23170880.146   -12298074.80449  -9551783.33246  23170879.554    23170884.307
  22147776.514   -20562209.97649 -15717384.18146  22147775.854    22147781.189
  23000151.683   -10480940.78149  -8142899.32346  23000151.107    23000155.824
  20398940.202   -28094560.35849 -21831716.78648  20398939.418    20398944.050
  21222505.124   -23809885.83349 -18525203.81047  21222504.606    21222507.695
  23187162.453   -15005084.58649 -11648886.44646  23187162.181    23187166.760
